<?xml version="1.0" encoding="UTF-8" standalone="no" ?>
<gpx xmlns="http://www.topografix.com/GPX/1/1" xmlns:xsi="http://www.w3.org/2001/XMLSchema-instance" xsi:schemaLocation="http://www.topografix.com/GPX/1/1 http://www.topografix.com/GPX/1/1/gpx.xsd" version="1.1" creator="VisuGPX - https://www.visugpx.com">
  <metadata>
    <name>4-5-22 Le Puy St Privat</name>
  </metadata>
  <trk>
    <name><![CDATA[2022-05-04 Le Puy/St Privat]]></name>
    <trkseg>
      <trkpt lat="45.04548" lon="3.88282">
        <ele>647.1</ele>
        <time>2022-05-04T06:11:29Z</time>
      </trkpt>
      <trkpt lat="45.04548" lon="3.88281">
        <ele>647.1</ele>
        <time>2022-05-04T06:11:30Z</time>
      </trkpt>
      <trkpt lat="45.04546" lon="3.88263">
        <ele>644.7</ele>
        <time>2022-05-04T06:11:48Z</time>
      </trkpt>
      <trkpt lat="45.04543" lon="3.8825">
        <ele>644.22</ele>
        <time>2022-05-04T06:12:03Z</time>
      </trkpt>
      <trkpt lat="45.04542" lon="3.88251">
        <ele>640.86</ele>
        <time>2022-05-04T06:12:32Z</time>
      </trkpt>
      <trkpt lat="45.04539" lon="3.88262">
        <ele>640.38</ele>
        <time>2022-05-04T06:13:08Z</time>
      </trkpt>
      <trkpt lat="45.04536" lon="3.88272">
        <ele>640.38</ele>
        <time>2022-05-04T06:13:42Z</time>
      </trkpt>
      <trkpt lat="45.04542" lon="3.8827">
        <ele>640.38</ele>
        <time>2022-05-04T06:14:24Z</time>
      </trkpt>
      <trkpt lat="45.04543" lon="3.88271">
        <ele>640.38</ele>
        <time>2022-05-04T06:15:00Z</time>
      </trkpt>
      <trkpt lat="45.04543" lon="3.88271">
        <ele>640.38</ele>
        <time>2022-05-04T06:15:33Z</time>
      </trkpt>
      <trkpt lat="45.04545" lon="3.88269">
        <ele>640.38</ele>
        <time>2022-05-04T06:15:52Z</time>
      </trkpt>
      <trkpt lat="45.04546" lon="3.88269">
        <ele>640.38</ele>
        <time>2022-05-04T06:16:19Z</time>
      </trkpt>
      <trkpt lat="45.04547" lon="3.88269">
        <ele>640.38</ele>
        <time>2022-05-04T06:16:48Z</time>
      </trkpt>
      <trkpt lat="45.04548" lon="3.8827">
        <ele>640.38</ele>
        <time>2022-05-04T06:17:11Z</time>
      </trkpt>
      <trkpt lat="45.04547" lon="3.88269">
        <ele>640.38</ele>
        <time>2022-05-04T06:17:43Z</time>
      </trkpt>
      <trkpt lat="45.04546" lon="3.8827">
        <ele>640.38</ele>
        <time>2022-05-04T06:17:45Z</time>
      </trkpt>
      <trkpt lat="45.04547" lon="3.88271">
        <ele>640.38</ele>
        <time>2022-05-04T06:18:11Z</time>
      </trkpt>
      <trkpt lat="45.04538" lon="3.88258">
        <ele>640.38</ele>
        <time>2022-05-04T06:18:31Z</time>
      </trkpt>
      <trkpt lat="45.04526" lon="3.88261">
        <ele>640.86</ele>
        <time>2022-05-04T06:18:50Z</time>
      </trkpt>
      <trkpt lat="45.04492" lon="3.88251">
        <ele>641.34</ele>
        <time>2022-05-04T06:19:19Z</time>
      </trkpt>
      <trkpt lat="45.04475" lon="3.88262">
        <ele>640.38</ele>
        <time>2022-05-04T06:19:39Z</time>
      </trkpt>
      <trkpt lat="45.04471" lon="3.88262">
        <ele>640.38</ele>
        <time>2022-05-04T06:19:44Z</time>
      </trkpt>
      <trkpt lat="45.04453" lon="3.88267">
        <ele>638.93</ele>
        <time>2022-05-04T06:20:06Z</time>
      </trkpt>
      <trkpt lat="45.04441" lon="3.88278">
        <ele>638.45</ele>
        <time>2022-05-04T06:20:14Z</time>
      </trkpt>
      <trkpt lat="45.04433" lon="3.88279">
        <ele>637.97</ele>
        <time>2022-05-04T06:20:22Z</time>
      </trkpt>
      <trkpt lat="45.04421" lon="3.88278">
        <ele>637.49</ele>
        <time>2022-05-04T06:20:35Z</time>
      </trkpt>
      <trkpt lat="45.0442" lon="3.88279">
        <ele>637.49</ele>
        <time>2022-05-04T06:20:36Z</time>
      </trkpt>
      <trkpt lat="45.04419" lon="3.88279">
        <ele>637.49</ele>
        <time>2022-05-04T06:20:37Z</time>
      </trkpt>
      <trkpt lat="45.04418" lon="3.8828">
        <ele>637.49</ele>
        <time>2022-05-04T06:20:38Z</time>
      </trkpt>
      <trkpt lat="45.04417" lon="3.8828">
        <ele>637.49</ele>
        <time>2022-05-04T06:20:39Z</time>
      </trkpt>
      <trkpt lat="45.04397" lon="3.88285">
        <ele>635.57</ele>
        <time>2022-05-04T06:20:58Z</time>
      </trkpt>
      <trkpt lat="45.04396" lon="3.88286">
        <ele>635.57</ele>
        <time>2022-05-04T06:20:59Z</time>
      </trkpt>
      <trkpt lat="45.04395" lon="3.88287">
        <ele>635.57</ele>
        <time>2022-05-04T06:21:00Z</time>
      </trkpt>
      <trkpt lat="45.04393" lon="3.88286">
        <ele>635.57</ele>
        <time>2022-05-04T06:21:01Z</time>
      </trkpt>
      <trkpt lat="45.04392" lon="3.88286">
        <ele>635.57</ele>
        <time>2022-05-04T06:21:02Z</time>
      </trkpt>
      <trkpt lat="45.04391" lon="3.88286">
        <ele>635.57</ele>
        <time>2022-05-04T06:21:03Z</time>
      </trkpt>
      <trkpt lat="45.04378" lon="3.88275">
        <ele>634.13</ele>
        <time>2022-05-04T06:21:23Z</time>
      </trkpt>
      <trkpt lat="45.04372" lon="3.88266">
        <ele>633.17</ele>
        <time>2022-05-04T06:21:32Z</time>
      </trkpt>
      <trkpt lat="45.04349" lon="3.88265">
        <ele>632.68</ele>
        <time>2022-05-04T06:21:48Z</time>
      </trkpt>
      <trkpt lat="45.04332" lon="3.88265">
        <ele>632.2</ele>
        <time>2022-05-04T06:21:59Z</time>
      </trkpt>
      <trkpt lat="45.04331" lon="3.88265">
        <ele>632.2</ele>
        <time>2022-05-04T06:22:00Z</time>
      </trkpt>
      <trkpt lat="45.0432" lon="3.8827">
        <ele>631.24</ele>
        <time>2022-05-04T06:22:20Z</time>
      </trkpt>
      <trkpt lat="45.04315" lon="3.88275">
        <ele>630.76</ele>
        <time>2022-05-04T06:22:38Z</time>
      </trkpt>
      <trkpt lat="45.04312" lon="3.8827">
        <ele>630.76</ele>
        <time>2022-05-04T06:23:02Z</time>
      </trkpt>
      <trkpt lat="45.0431" lon="3.88267">
        <ele>630.76</ele>
        <time>2022-05-04T06:23:21Z</time>
      </trkpt>
      <trkpt lat="45.04309" lon="3.88267">
        <ele>630.76</ele>
        <time>2022-05-04T06:23:42Z</time>
      </trkpt>
      <trkpt lat="45.04307" lon="3.88266">
        <ele>630.76</ele>
        <time>2022-05-04T06:24:00Z</time>
      </trkpt>
      <trkpt lat="45.04309" lon="3.88259">
        <ele>630.76</ele>
        <time>2022-05-04T06:24:23Z</time>
      </trkpt>
      <trkpt lat="45.0432" lon="3.88254">
        <ele>630.76</ele>
        <time>2022-05-04T06:24:43Z</time>
      </trkpt>
      <trkpt lat="45.04318" lon="3.88247">
        <ele>630.76</ele>
        <time>2022-05-04T06:25:07Z</time>
      </trkpt>
      <trkpt lat="45.04319" lon="3.88245">
        <ele>630.76</ele>
        <time>2022-05-04T06:25:31Z</time>
      </trkpt>
      <trkpt lat="45.0432" lon="3.8825">
        <ele>630.76</ele>
        <time>2022-05-04T06:25:52Z</time>
      </trkpt>
      <trkpt lat="45.04318" lon="3.88246">
        <ele>630.76</ele>
        <time>2022-05-04T06:26:15Z</time>
      </trkpt>
      <trkpt lat="45.04316" lon="3.88239">
        <ele>630.76</ele>
        <time>2022-05-04T06:26:35Z</time>
      </trkpt>
      <trkpt lat="45.04312" lon="3.88226">
        <ele>631.72</ele>
        <time>2022-05-04T06:26:45Z</time>
      </trkpt>
      <trkpt lat="45.04311" lon="3.88208">
        <ele>632.2</ele>
        <time>2022-05-04T06:27:04Z</time>
      </trkpt>
      <trkpt lat="45.04313" lon="3.88194">
        <ele>632.68</ele>
        <time>2022-05-04T06:27:22Z</time>
      </trkpt>
      <trkpt lat="45.04317" lon="3.88182">
        <ele>632.68</ele>
        <time>2022-05-04T06:27:40Z</time>
      </trkpt>
      <trkpt lat="45.04317" lon="3.88162">
        <ele>633.17</ele>
        <time>2022-05-04T06:27:58Z</time>
      </trkpt>
      <trkpt lat="45.04317" lon="3.88119">
        <ele>634.13</ele>
        <time>2022-05-04T06:28:24Z</time>
      </trkpt>
      <trkpt lat="45.04308" lon="3.8809">
        <ele>634.61</ele>
        <time>2022-05-04T06:28:47Z</time>
      </trkpt>
      <trkpt lat="45.04309" lon="3.88074">
        <ele>634.61</ele>
        <time>2022-05-04T06:28:59Z</time>
      </trkpt>
      <trkpt lat="45.04299" lon="3.8806">
        <ele>636.53</ele>
        <time>2022-05-04T06:29:11Z</time>
      </trkpt>
      <trkpt lat="45.043" lon="3.88057">
        <ele>637.01</ele>
        <time>2022-05-04T06:29:14Z</time>
      </trkpt>
      <trkpt lat="45.04301" lon="3.88054">
        <ele>637.01</ele>
        <time>2022-05-04T06:29:16Z</time>
      </trkpt>
      <trkpt lat="45.04302" lon="3.88048">
        <ele>637.01</ele>
        <time>2022-05-04T06:29:19Z</time>
      </trkpt>
      <trkpt lat="45.04302" lon="3.88046">
        <ele>637.49</ele>
        <time>2022-05-04T06:29:20Z</time>
      </trkpt>
      <trkpt lat="45.04302" lon="3.88044">
        <ele>637.49</ele>
        <time>2022-05-04T06:29:21Z</time>
      </trkpt>
      <trkpt lat="45.04302" lon="3.88042">
        <ele>637.49</ele>
        <time>2022-05-04T06:29:22Z</time>
      </trkpt>
      <trkpt lat="45.04301" lon="3.88041">
        <ele>637.49</ele>
        <time>2022-05-04T06:29:23Z</time>
      </trkpt>
      <trkpt lat="45.04301" lon="3.88039">
        <ele>637.49</ele>
        <time>2022-05-04T06:29:24Z</time>
      </trkpt>
      <trkpt lat="45.04301" lon="3.88035">
        <ele>637.97</ele>
        <time>2022-05-04T06:29:27Z</time>
      </trkpt>
      <trkpt lat="45.04297" lon="3.88015">
        <ele>638.93</ele>
        <time>2022-05-04T06:29:50Z</time>
      </trkpt>
      <trkpt lat="45.04293" lon="3.87984">
        <ele>640.38</ele>
        <time>2022-05-04T06:30:11Z</time>
      </trkpt>
      <trkpt lat="45.04289" lon="3.87968">
        <ele>641.34</ele>
        <time>2022-05-04T06:30:21Z</time>
      </trkpt>
      <trkpt lat="45.04289" lon="3.87966">
        <ele>641.34</ele>
        <time>2022-05-04T06:30:22Z</time>
      </trkpt>
      <trkpt lat="45.0429" lon="3.87927">
        <ele>643.26</ele>
        <time>2022-05-04T06:30:48Z</time>
      </trkpt>
      <trkpt lat="45.04285" lon="3.87918">
        <ele>644.7</ele>
        <time>2022-05-04T06:30:59Z</time>
      </trkpt>
      <trkpt lat="45.04271" lon="3.87894">
        <ele>646.62</ele>
        <time>2022-05-04T06:31:26Z</time>
      </trkpt>
      <trkpt lat="45.04267" lon="3.87858">
        <ele>649.03</ele>
        <time>2022-05-04T06:31:48Z</time>
      </trkpt>
      <trkpt lat="45.04251" lon="3.87833">
        <ele>652.39</ele>
        <time>2022-05-04T06:32:13Z</time>
      </trkpt>
      <trkpt lat="45.04236" lon="3.87796">
        <ele>655.28</ele>
        <time>2022-05-04T06:32:39Z</time>
      </trkpt>
      <trkpt lat="45.04229" lon="3.87776">
        <ele>657.2</ele>
        <time>2022-05-04T06:32:55Z</time>
      </trkpt>
      <trkpt lat="45.04214" lon="3.87751">
        <ele>659.6</ele>
        <time>2022-05-04T06:33:15Z</time>
      </trkpt>
      <trkpt lat="45.04206" lon="3.87735">
        <ele>661.52</ele>
        <time>2022-05-04T06:33:32Z</time>
      </trkpt>
      <trkpt lat="45.04195" lon="3.87713">
        <ele>662.97</ele>
        <time>2022-05-04T06:33:53Z</time>
      </trkpt>
      <trkpt lat="45.04183" lon="3.87686">
        <ele>666.33</ele>
        <time>2022-05-04T06:34:18Z</time>
      </trkpt>
      <trkpt lat="45.04171" lon="3.87668">
        <ele>668.73</ele>
        <time>2022-05-04T06:34:39Z</time>
      </trkpt>
      <trkpt lat="45.04157" lon="3.87648">
        <ele>671.62</ele>
        <time>2022-05-04T06:35:01Z</time>
      </trkpt>
      <trkpt lat="45.04145" lon="3.87626">
        <ele>674.5</ele>
        <time>2022-05-04T06:35:21Z</time>
      </trkpt>
      <trkpt lat="45.04141" lon="3.87613">
        <ele>676.42</ele>
        <time>2022-05-04T06:35:37Z</time>
      </trkpt>
      <trkpt lat="45.04155" lon="3.876">
        <ele>678.83</ele>
        <time>2022-05-04T06:35:55Z</time>
      </trkpt>
      <trkpt lat="45.04172" lon="3.8759">
        <ele>680.75</ele>
        <time>2022-05-04T06:36:13Z</time>
      </trkpt>
      <trkpt lat="45.04173" lon="3.87589">
        <ele>680.75</ele>
        <time>2022-05-04T06:36:14Z</time>
      </trkpt>
      <trkpt lat="45.04174" lon="3.87589">
        <ele>680.75</ele>
        <time>2022-05-04T06:36:15Z</time>
      </trkpt>
      <trkpt lat="45.04185" lon="3.87578">
        <ele>682.19</ele>
        <time>2022-05-04T06:36:29Z</time>
      </trkpt>
      <trkpt lat="45.04185" lon="3.87577">
        <ele>682.19</ele>
        <time>2022-05-04T06:36:30Z</time>
      </trkpt>
      <trkpt lat="45.04186" lon="3.87576">
        <ele>682.19</ele>
        <time>2022-05-04T06:36:31Z</time>
      </trkpt>
      <trkpt lat="45.04185" lon="3.87562">
        <ele>683.63</ele>
        <time>2022-05-04T06:36:43Z</time>
      </trkpt>
      <trkpt lat="45.04183" lon="3.87544">
        <ele>685.56</ele>
        <time>2022-05-04T06:36:57Z</time>
      </trkpt>
      <trkpt lat="45.04178" lon="3.87519">
        <ele>687.96</ele>
        <time>2022-05-04T06:37:17Z</time>
      </trkpt>
      <trkpt lat="45.04178" lon="3.87517">
        <ele>687.96</ele>
        <time>2022-05-04T06:37:18Z</time>
      </trkpt>
      <trkpt lat="45.04174" lon="3.87496">
        <ele>689.4</ele>
        <time>2022-05-04T06:37:37Z</time>
      </trkpt>
      <trkpt lat="45.04173" lon="3.87495">
        <ele>689.4</ele>
        <time>2022-05-04T06:37:38Z</time>
      </trkpt>
      <trkpt lat="45.04169" lon="3.87473">
        <ele>691.33</ele>
        <time>2022-05-04T06:37:55Z</time>
      </trkpt>
      <trkpt lat="45.04162" lon="3.87453">
        <ele>693.73</ele>
        <time>2022-05-04T06:38:12Z</time>
      </trkpt>
      <trkpt lat="45.0416" lon="3.87448">
        <ele>694.21</ele>
        <time>2022-05-04T06:38:16Z</time>
      </trkpt>
      <trkpt lat="45.04154" lon="3.87428">
        <ele>696.13</ele>
        <time>2022-05-04T06:38:31Z</time>
      </trkpt>
      <trkpt lat="45.04145" lon="3.8741">
        <ele>698.53</ele>
        <time>2022-05-04T06:38:48Z</time>
      </trkpt>
      <trkpt lat="45.04134" lon="3.87389">
        <ele>700.46</ele>
        <time>2022-05-04T06:39:07Z</time>
      </trkpt>
      <trkpt lat="45.04127" lon="3.87373">
        <ele>702.38</ele>
        <time>2022-05-04T06:39:23Z</time>
      </trkpt>
      <trkpt lat="45.04118" lon="3.87356">
        <ele>703.82</ele>
        <time>2022-05-04T06:39:41Z</time>
      </trkpt>
      <trkpt lat="45.04111" lon="3.87337">
        <ele>706.23</ele>
        <time>2022-05-04T06:40:00Z</time>
      </trkpt>
      <trkpt lat="45.041" lon="3.87314">
        <ele>708.63</ele>
        <time>2022-05-04T06:40:21Z</time>
      </trkpt>
      <trkpt lat="45.04089" lon="3.87307">
        <ele>710.55</ele>
        <time>2022-05-04T06:40:39Z</time>
      </trkpt>
      <trkpt lat="45.04085" lon="3.87307">
        <ele>711.03</ele>
        <time>2022-05-04T06:40:58Z</time>
      </trkpt>
      <trkpt lat="45.04084" lon="3.87306">
        <ele>711.51</ele>
        <time>2022-05-04T06:41:32Z</time>
      </trkpt>
      <trkpt lat="45.04084" lon="3.87306">
        <ele>711.03</ele>
        <time>2022-05-04T06:42:04Z</time>
      </trkpt>
      <trkpt lat="45.04083" lon="3.87307">
        <ele>711.03</ele>
        <time>2022-05-04T06:42:39Z</time>
      </trkpt>
      <trkpt lat="45.04076" lon="3.87307">
        <ele>711.03</ele>
        <time>2022-05-04T06:42:54Z</time>
      </trkpt>
      <trkpt lat="45.04063" lon="3.87292">
        <ele>713.44</ele>
        <time>2022-05-04T06:43:14Z</time>
      </trkpt>
      <trkpt lat="45.04053" lon="3.87293">
        <ele>716.32</ele>
        <time>2022-05-04T06:43:34Z</time>
      </trkpt>
      <trkpt lat="45.04044" lon="3.87303">
        <ele>719.2</ele>
        <time>2022-05-04T06:43:52Z</time>
      </trkpt>
      <trkpt lat="45.04035" lon="3.87314">
        <ele>722.57</ele>
        <time>2022-05-04T06:44:11Z</time>
      </trkpt>
      <trkpt lat="45.04025" lon="3.87327">
        <ele>725.45</ele>
        <time>2022-05-04T06:44:31Z</time>
      </trkpt>
      <trkpt lat="45.04017" lon="3.87335">
        <ele>728.82</ele>
        <time>2022-05-04T06:44:50Z</time>
      </trkpt>
      <trkpt lat="45.0401" lon="3.87311">
        <ele>731.22</ele>
        <time>2022-05-04T06:45:14Z</time>
      </trkpt>
      <trkpt lat="45.04001" lon="3.87285">
        <ele>733.14</ele>
        <time>2022-05-04T06:45:36Z</time>
      </trkpt>
      <trkpt lat="45.03991" lon="3.87275">
        <ele>735.07</ele>
        <time>2022-05-04T06:45:52Z</time>
      </trkpt>
      <trkpt lat="45.03978" lon="3.87259">
        <ele>736.99</ele>
        <time>2022-05-04T06:46:13Z</time>
      </trkpt>
      <trkpt lat="45.03973" lon="3.87254">
        <ele>737.95</ele>
        <time>2022-05-04T06:46:19Z</time>
      </trkpt>
      <trkpt lat="45.03964" lon="3.87248">
        <ele>738.91</ele>
        <time>2022-05-04T06:46:30Z</time>
      </trkpt>
      <trkpt lat="45.03947" lon="3.87239">
        <ele>741.79</ele>
        <time>2022-05-04T06:46:50Z</time>
      </trkpt>
      <trkpt lat="45.03936" lon="3.87233">
        <ele>743.24</ele>
        <time>2022-05-04T06:47:04Z</time>
      </trkpt>
      <trkpt lat="45.03927" lon="3.87232">
        <ele>744.2</ele>
        <time>2022-05-04T06:47:16Z</time>
      </trkpt>
      <trkpt lat="45.03919" lon="3.87234">
        <ele>745.16</ele>
        <time>2022-05-04T06:47:27Z</time>
      </trkpt>
      <trkpt lat="45.03918" lon="3.87234">
        <ele>745.64</ele>
        <time>2022-05-04T06:47:28Z</time>
      </trkpt>
      <trkpt lat="45.03903" lon="3.87231">
        <ele>747.56</ele>
        <time>2022-05-04T06:47:45Z</time>
      </trkpt>
      <trkpt lat="45.03885" lon="3.87226">
        <ele>750.45</ele>
        <time>2022-05-04T06:48:06Z</time>
      </trkpt>
      <trkpt lat="45.03882" lon="3.87227">
        <ele>750.93</ele>
        <time>2022-05-04T06:48:10Z</time>
      </trkpt>
      <trkpt lat="45.03867" lon="3.87228">
        <ele>752.85</ele>
        <time>2022-05-04T06:48:28Z</time>
      </trkpt>
      <trkpt lat="45.0385" lon="3.87222">
        <ele>754.77</ele>
        <time>2022-05-04T06:48:49Z</time>
      </trkpt>
      <trkpt lat="45.03848" lon="3.87221">
        <ele>755.25</ele>
        <time>2022-05-04T06:48:51Z</time>
      </trkpt>
      <trkpt lat="45.03847" lon="3.8722">
        <ele>755.25</ele>
        <time>2022-05-04T06:48:52Z</time>
      </trkpt>
      <trkpt lat="45.03845" lon="3.87219">
        <ele>755.25</ele>
        <time>2022-05-04T06:48:54Z</time>
      </trkpt>
      <trkpt lat="45.03832" lon="3.87203">
        <ele>757.18</ele>
        <time>2022-05-04T06:49:12Z</time>
      </trkpt>
      <trkpt lat="45.0382" lon="3.87187">
        <ele>759.1</ele>
        <time>2022-05-04T06:49:31Z</time>
      </trkpt>
      <trkpt lat="45.03817" lon="3.87181">
        <ele>759.58</ele>
        <time>2022-05-04T06:49:37Z</time>
      </trkpt>
      <trkpt lat="45.03816" lon="3.8718">
        <ele>759.58</ele>
        <time>2022-05-04T06:49:38Z</time>
      </trkpt>
      <trkpt lat="45.03814" lon="3.87177">
        <ele>759.58</ele>
        <time>2022-05-04T06:49:41Z</time>
      </trkpt>
      <trkpt lat="45.03802" lon="3.87159">
        <ele>761.02</ele>
        <time>2022-05-04T06:49:58Z</time>
      </trkpt>
      <trkpt lat="45.0379" lon="3.87139">
        <ele>761.98</ele>
        <time>2022-05-04T06:50:16Z</time>
      </trkpt>
      <trkpt lat="45.03789" lon="3.87138">
        <ele>761.98</ele>
        <time>2022-05-04T06:50:17Z</time>
      </trkpt>
      <trkpt lat="45.03779" lon="3.87119">
        <ele>763.42</ele>
        <time>2022-05-04T06:50:33Z</time>
      </trkpt>
      <trkpt lat="45.03771" lon="3.87098">
        <ele>763.9</ele>
        <time>2022-05-04T06:50:49Z</time>
      </trkpt>
      <trkpt lat="45.03763" lon="3.87077">
        <ele>764.39</ele>
        <time>2022-05-04T06:51:06Z</time>
      </trkpt>
      <trkpt lat="45.03753" lon="3.87055">
        <ele>765.83</ele>
        <time>2022-05-04T06:51:24Z</time>
      </trkpt>
      <trkpt lat="45.03745" lon="3.87036">
        <ele>766.31</ele>
        <time>2022-05-04T06:51:42Z</time>
      </trkpt>
      <trkpt lat="45.03745" lon="3.87037">
        <ele>766.79</ele>
        <time>2022-05-04T06:52:01Z</time>
      </trkpt>
      <trkpt lat="45.03745" lon="3.87037">
        <ele>766.79</ele>
        <time>2022-05-04T06:52:31Z</time>
      </trkpt>
      <trkpt lat="45.0374" lon="3.87027">
        <ele>766.31</ele>
        <time>2022-05-04T06:52:54Z</time>
      </trkpt>
      <trkpt lat="45.03725" lon="3.87006">
        <ele>766.79</ele>
        <time>2022-05-04T06:53:13Z</time>
      </trkpt>
      <trkpt lat="45.03709" lon="3.86985">
        <ele>768.23</ele>
        <time>2022-05-04T06:53:34Z</time>
      </trkpt>
      <trkpt lat="45.03695" lon="3.86971">
        <ele>768.71</ele>
        <time>2022-05-04T06:53:51Z</time>
      </trkpt>
      <trkpt lat="45.03678" lon="3.86955">
        <ele>768.71</ele>
        <time>2022-05-04T06:54:09Z</time>
      </trkpt>
      <trkpt lat="45.03663" lon="3.86941">
        <ele>768.71</ele>
        <time>2022-05-04T06:54:25Z</time>
      </trkpt>
      <trkpt lat="45.03643" lon="3.86928">
        <ele>768.71</ele>
        <time>2022-05-04T06:54:44Z</time>
      </trkpt>
      <trkpt lat="45.03636" lon="3.86923">
        <ele>768.23</ele>
        <time>2022-05-04T06:54:51Z</time>
      </trkpt>
      <trkpt lat="45.03635" lon="3.86922">
        <ele>768.23</ele>
        <time>2022-05-04T06:54:52Z</time>
      </trkpt>
      <trkpt lat="45.03634" lon="3.86921">
        <ele>768.23</ele>
        <time>2022-05-04T06:54:53Z</time>
      </trkpt>
      <trkpt lat="45.03633" lon="3.8692">
        <ele>768.23</ele>
        <time>2022-05-04T06:54:54Z</time>
      </trkpt>
      <trkpt lat="45.03632" lon="3.86919">
        <ele>768.23</ele>
        <time>2022-05-04T06:54:55Z</time>
      </trkpt>
      <trkpt lat="45.03608" lon="3.869">
        <ele>767.75</ele>
        <time>2022-05-04T06:55:18Z</time>
      </trkpt>
      <trkpt lat="45.03593" lon="3.86887">
        <ele>766.31</ele>
        <time>2022-05-04T06:55:35Z</time>
      </trkpt>
      <trkpt lat="45.03578" lon="3.86875">
        <ele>765.35</ele>
        <time>2022-05-04T06:55:53Z</time>
      </trkpt>
      <trkpt lat="45.03574" lon="3.86872">
        <ele>763.9</ele>
        <time>2022-05-04T06:55:56Z</time>
      </trkpt>
      <trkpt lat="45.03552" lon="3.86852">
        <ele>764.39</ele>
        <time>2022-05-04T06:56:19Z</time>
      </trkpt>
      <trkpt lat="45.03539" lon="3.86842">
        <ele>763.9</ele>
        <time>2022-05-04T06:56:35Z</time>
      </trkpt>
      <trkpt lat="45.03523" lon="3.86828">
        <ele>763.42</ele>
        <time>2022-05-04T06:56:51Z</time>
      </trkpt>
      <trkpt lat="45.03505" lon="3.86812">
        <ele>763.42</ele>
        <time>2022-05-04T06:57:10Z</time>
      </trkpt>
      <trkpt lat="45.03489" lon="3.86798">
        <ele>762.46</ele>
        <time>2022-05-04T06:57:27Z</time>
      </trkpt>
      <trkpt lat="45.0347" lon="3.86779">
        <ele>761.98</ele>
        <time>2022-05-04T06:57:48Z</time>
      </trkpt>
      <trkpt lat="45.0345" lon="3.86768">
        <ele>761.98</ele>
        <time>2022-05-04T06:58:06Z</time>
      </trkpt>
      <trkpt lat="45.03423" lon="3.86752">
        <ele>761.02</ele>
        <time>2022-05-04T06:58:30Z</time>
      </trkpt>
      <trkpt lat="45.03407" lon="3.86742">
        <ele>761.02</ele>
        <time>2022-05-04T06:58:46Z</time>
      </trkpt>
      <trkpt lat="45.03386" lon="3.86729">
        <ele>761.02</ele>
        <time>2022-05-04T06:59:06Z</time>
      </trkpt>
      <trkpt lat="45.03368" lon="3.86718">
        <ele>760.54</ele>
        <time>2022-05-04T06:59:23Z</time>
      </trkpt>
      <trkpt lat="45.03341" lon="3.86704">
        <ele>759.58</ele>
        <time>2022-05-04T06:59:46Z</time>
      </trkpt>
      <trkpt lat="45.03322" lon="3.86694">
        <ele>759.58</ele>
        <time>2022-05-04T07:00:03Z</time>
      </trkpt>
      <trkpt lat="45.033" lon="3.86685">
        <ele>759.1</ele>
        <time>2022-05-04T07:00:23Z</time>
      </trkpt>
      <trkpt lat="45.03278" lon="3.86676">
        <ele>758.62</ele>
        <time>2022-05-04T07:00:42Z</time>
      </trkpt>
      <trkpt lat="45.03259" lon="3.86667">
        <ele>758.62</ele>
        <time>2022-05-04T07:01:00Z</time>
      </trkpt>
      <trkpt lat="45.03238" lon="3.86643">
        <ele>758.62</ele>
        <time>2022-05-04T07:01:23Z</time>
      </trkpt>
      <trkpt lat="45.03223" lon="3.86611">
        <ele>758.14</ele>
        <time>2022-05-04T07:01:46Z</time>
      </trkpt>
      <trkpt lat="45.03204" lon="3.86577">
        <ele>758.62</ele>
        <time>2022-05-04T07:02:12Z</time>
      </trkpt>
      <trkpt lat="45.03189" lon="3.86548">
        <ele>759.1</ele>
        <time>2022-05-04T07:02:35Z</time>
      </trkpt>
      <trkpt lat="45.03188" lon="3.86547">
        <ele>759.1</ele>
        <time>2022-05-04T07:02:36Z</time>
      </trkpt>
      <trkpt lat="45.03188" lon="3.86546">
        <ele>759.1</ele>
        <time>2022-05-04T07:02:37Z</time>
      </trkpt>
      <trkpt lat="45.03186" lon="3.86543">
        <ele>759.1</ele>
        <time>2022-05-04T07:02:39Z</time>
      </trkpt>
      <trkpt lat="45.0317" lon="3.86519">
        <ele>759.58</ele>
        <time>2022-05-04T07:03:00Z</time>
      </trkpt>
      <trkpt lat="45.03153" lon="3.865">
        <ele>760.54</ele>
        <time>2022-05-04T07:03:20Z</time>
      </trkpt>
      <trkpt lat="45.03137" lon="3.86482">
        <ele>761.98</ele>
        <time>2022-05-04T07:03:41Z</time>
      </trkpt>
      <trkpt lat="45.03122" lon="3.8646">
        <ele>764.39</ele>
        <time>2022-05-04T07:04:03Z</time>
      </trkpt>
      <trkpt lat="45.03109" lon="3.86439">
        <ele>765.83</ele>
        <time>2022-05-04T07:04:22Z</time>
      </trkpt>
      <trkpt lat="45.03097" lon="3.86418">
        <ele>766.31</ele>
        <time>2022-05-04T07:04:40Z</time>
      </trkpt>
      <trkpt lat="45.03082" lon="3.86395">
        <ele>766.79</ele>
        <time>2022-05-04T07:05:00Z</time>
      </trkpt>
      <trkpt lat="45.03066" lon="3.86372">
        <ele>767.27</ele>
        <time>2022-05-04T07:05:20Z</time>
      </trkpt>
      <trkpt lat="45.03047" lon="3.8635">
        <ele>767.75</ele>
        <time>2022-05-04T07:05:42Z</time>
      </trkpt>
      <trkpt lat="45.03032" lon="3.86331">
        <ele>768.23</ele>
        <time>2022-05-04T07:06:01Z</time>
      </trkpt>
      <trkpt lat="45.03018" lon="3.86305">
        <ele>768.71</ele>
        <time>2022-05-04T07:06:22Z</time>
      </trkpt>
      <trkpt lat="45.03005" lon="3.86277">
        <ele>769.19</ele>
        <time>2022-05-04T07:06:43Z</time>
      </trkpt>
      <trkpt lat="45.02996" lon="3.86257">
        <ele>769.67</ele>
        <time>2022-05-04T07:06:59Z</time>
      </trkpt>
      <trkpt lat="45.02986" lon="3.86232">
        <ele>770.63</ele>
        <time>2022-05-04T07:07:17Z</time>
      </trkpt>
      <trkpt lat="45.02976" lon="3.86206">
        <ele>771.6</ele>
        <time>2022-05-04T07:07:38Z</time>
      </trkpt>
      <trkpt lat="45.02973" lon="3.86201">
        <ele>771.6</ele>
        <time>2022-05-04T07:07:42Z</time>
      </trkpt>
      <trkpt lat="45.02973" lon="3.86199">
        <ele>771.6</ele>
        <time>2022-05-04T07:07:43Z</time>
      </trkpt>
      <trkpt lat="45.02965" lon="3.86175">
        <ele>773.04</ele>
        <time>2022-05-04T07:08:01Z</time>
      </trkpt>
      <trkpt lat="45.02953" lon="3.86149">
        <ele>774</ele>
        <time>2022-05-04T07:08:22Z</time>
      </trkpt>
      <trkpt lat="45.02945" lon="3.86128">
        <ele>774.48</ele>
        <time>2022-05-04T07:08:38Z</time>
      </trkpt>
      <trkpt lat="45.02934" lon="3.86104">
        <ele>775.44</ele>
        <time>2022-05-04T07:08:57Z</time>
      </trkpt>
      <trkpt lat="45.02925" lon="3.86081">
        <ele>776.4</ele>
        <time>2022-05-04T07:09:15Z</time>
      </trkpt>
      <trkpt lat="45.02916" lon="3.8606">
        <ele>777.36</ele>
        <time>2022-05-04T07:09:32Z</time>
      </trkpt>
      <trkpt lat="45.02914" lon="3.86053">
        <ele>777.36</ele>
        <time>2022-05-04T07:09:38Z</time>
      </trkpt>
      <trkpt lat="45.02913" lon="3.86051">
        <ele>777.36</ele>
        <time>2022-05-04T07:09:39Z</time>
      </trkpt>
      <trkpt lat="45.02913" lon="3.8605">
        <ele>777.36</ele>
        <time>2022-05-04T07:09:40Z</time>
      </trkpt>
      <trkpt lat="45.02911" lon="3.86045">
        <ele>777.84</ele>
        <time>2022-05-04T07:09:44Z</time>
      </trkpt>
      <trkpt lat="45.02904" lon="3.86021">
        <ele>778.81</ele>
        <time>2022-05-04T07:10:02Z</time>
      </trkpt>
      <trkpt lat="45.02896" lon="3.85996">
        <ele>780.25</ele>
        <time>2022-05-04T07:10:21Z</time>
      </trkpt>
      <trkpt lat="45.02888" lon="3.85973">
        <ele>781.69</ele>
        <time>2022-05-04T07:10:40Z</time>
      </trkpt>
      <trkpt lat="45.0288" lon="3.85948">
        <ele>783.13</ele>
        <time>2022-05-04T07:10:59Z</time>
      </trkpt>
      <trkpt lat="45.02871" lon="3.85921">
        <ele>785.05</ele>
        <time>2022-05-04T07:11:21Z</time>
      </trkpt>
      <trkpt lat="45.02864" lon="3.85898">
        <ele>786.98</ele>
        <time>2022-05-04T07:11:43Z</time>
      </trkpt>
      <trkpt lat="45.02871" lon="3.85875">
        <ele>789.38</ele>
        <time>2022-05-04T07:12:06Z</time>
      </trkpt>
      <trkpt lat="45.02878" lon="3.85851">
        <ele>790.82</ele>
        <time>2022-05-04T07:12:25Z</time>
      </trkpt>
      <trkpt lat="45.02871" lon="3.8583">
        <ele>792.74</ele>
        <time>2022-05-04T07:12:42Z</time>
      </trkpt>
      <trkpt lat="45.02863" lon="3.8581">
        <ele>794.19</ele>
        <time>2022-05-04T07:13:02Z</time>
      </trkpt>
      <trkpt lat="45.02856" lon="3.85789">
        <ele>796.11</ele>
        <time>2022-05-04T07:13:22Z</time>
      </trkpt>
      <trkpt lat="45.02844" lon="3.85764">
        <ele>798.51</ele>
        <time>2022-05-04T07:13:50Z</time>
      </trkpt>
      <trkpt lat="45.02839" lon="3.85751">
        <ele>799.47</ele>
        <time>2022-05-04T07:14:06Z</time>
      </trkpt>
      <trkpt lat="45.0283" lon="3.85729">
        <ele>801.4</ele>
        <time>2022-05-04T07:14:27Z</time>
      </trkpt>
      <trkpt lat="45.0282" lon="3.8571">
        <ele>803.32</ele>
        <time>2022-05-04T07:14:47Z</time>
      </trkpt>
      <trkpt lat="45.02806" lon="3.8569">
        <ele>805.72</ele>
        <time>2022-05-04T07:15:10Z</time>
      </trkpt>
      <trkpt lat="45.02792" lon="3.85674">
        <ele>807.64</ele>
        <time>2022-05-04T07:15:28Z</time>
      </trkpt>
      <trkpt lat="45.02786" lon="3.85667">
        <ele>808.61</ele>
        <time>2022-05-04T07:15:36Z</time>
      </trkpt>
      <trkpt lat="45.02774" lon="3.85647">
        <ele>810.05</ele>
        <time>2022-05-04T07:15:54Z</time>
      </trkpt>
      <trkpt lat="45.02764" lon="3.85625">
        <ele>811.97</ele>
        <time>2022-05-04T07:16:13Z</time>
      </trkpt>
      <trkpt lat="45.02755" lon="3.85603">
        <ele>813.41</ele>
        <time>2022-05-04T07:16:33Z</time>
      </trkpt>
      <trkpt lat="45.02754" lon="3.85601">
        <ele>814.37</ele>
        <time>2022-05-04T07:16:53Z</time>
      </trkpt>
      <trkpt lat="45.02752" lon="3.85593">
        <ele>814.37</ele>
        <time>2022-05-04T07:17:16Z</time>
      </trkpt>
      <trkpt lat="45.02744" lon="3.85569">
        <ele>815.82</ele>
        <time>2022-05-04T07:17:35Z</time>
      </trkpt>
      <trkpt lat="45.02735" lon="3.85546">
        <ele>817.26</ele>
        <time>2022-05-04T07:17:53Z</time>
      </trkpt>
      <trkpt lat="45.02723" lon="3.8552">
        <ele>819.18</ele>
        <time>2022-05-04T07:18:15Z</time>
      </trkpt>
      <trkpt lat="45.02712" lon="3.85495">
        <ele>821.1</ele>
        <time>2022-05-04T07:18:36Z</time>
      </trkpt>
      <trkpt lat="45.02703" lon="3.85475">
        <ele>822.55</ele>
        <time>2022-05-04T07:18:53Z</time>
      </trkpt>
      <trkpt lat="45.02695" lon="3.85455">
        <ele>823.51</ele>
        <time>2022-05-04T07:19:10Z</time>
      </trkpt>
      <trkpt lat="45.02684" lon="3.85427">
        <ele>825.43</ele>
        <time>2022-05-04T07:19:32Z</time>
      </trkpt>
      <trkpt lat="45.02676" lon="3.85403">
        <ele>827.35</ele>
        <time>2022-05-04T07:19:50Z</time>
      </trkpt>
      <trkpt lat="45.02667" lon="3.85377">
        <ele>828.79</ele>
        <time>2022-05-04T07:20:12Z</time>
      </trkpt>
      <trkpt lat="45.0266" lon="3.85358">
        <ele>829.76</ele>
        <time>2022-05-04T07:20:30Z</time>
      </trkpt>
      <trkpt lat="45.0266" lon="3.85356">
        <ele>830.24</ele>
        <time>2022-05-04T07:20:31Z</time>
      </trkpt>
      <trkpt lat="45.02659" lon="3.85354">
        <ele>830.24</ele>
        <time>2022-05-04T07:20:33Z</time>
      </trkpt>
      <trkpt lat="45.02658" lon="3.85353">
        <ele>830.24</ele>
        <time>2022-05-04T07:20:34Z</time>
      </trkpt>
      <trkpt lat="45.02654" lon="3.85343">
        <ele>830.72</ele>
        <time>2022-05-04T07:20:43Z</time>
      </trkpt>
      <trkpt lat="45.02653" lon="3.85339">
        <ele>830.72</ele>
        <time>2022-05-04T07:20:46Z</time>
      </trkpt>
      <trkpt lat="45.02646" lon="3.85312">
        <ele>832.16</ele>
        <time>2022-05-04T07:21:05Z</time>
      </trkpt>
      <trkpt lat="45.02636" lon="3.85288">
        <ele>833.12</ele>
        <time>2022-05-04T07:21:24Z</time>
      </trkpt>
      <trkpt lat="45.02632" lon="3.85278">
        <ele>833.6</ele>
        <time>2022-05-04T07:21:32Z</time>
      </trkpt>
      <trkpt lat="45.02625" lon="3.85252">
        <ele>835.04</ele>
        <time>2022-05-04T07:21:51Z</time>
      </trkpt>
      <trkpt lat="45.02615" lon="3.85228">
        <ele>836</ele>
        <time>2022-05-04T07:22:10Z</time>
      </trkpt>
      <trkpt lat="45.02609" lon="3.85205">
        <ele>836.96</ele>
        <time>2022-05-04T07:22:27Z</time>
      </trkpt>
      <trkpt lat="45.026" lon="3.8518">
        <ele>838.41</ele>
        <time>2022-05-04T07:22:46Z</time>
      </trkpt>
      <trkpt lat="45.02593" lon="3.85161">
        <ele>839.37</ele>
        <time>2022-05-04T07:23:02Z</time>
      </trkpt>
      <trkpt lat="45.02589" lon="3.85152">
        <ele>840.33</ele>
        <time>2022-05-04T07:23:10Z</time>
      </trkpt>
      <trkpt lat="45.0258" lon="3.85128">
        <ele>841.29</ele>
        <time>2022-05-04T07:23:29Z</time>
      </trkpt>
      <trkpt lat="45.02573" lon="3.85111">
        <ele>841.77</ele>
        <time>2022-05-04T07:23:41Z</time>
      </trkpt>
      <trkpt lat="45.02565" lon="3.85086">
        <ele>842.25</ele>
        <time>2022-05-04T07:23:59Z</time>
      </trkpt>
      <trkpt lat="45.02554" lon="3.85062">
        <ele>843.21</ele>
        <time>2022-05-04T07:24:18Z</time>
      </trkpt>
      <trkpt lat="45.02544" lon="3.85036">
        <ele>843.69</ele>
        <time>2022-05-04T07:24:38Z</time>
      </trkpt>
      <trkpt lat="45.02544" lon="3.85033">
        <ele>844.18</ele>
        <time>2022-05-04T07:24:55Z</time>
      </trkpt>
      <trkpt lat="45.02543" lon="3.85033">
        <ele>843.69</ele>
        <time>2022-05-04T07:25:11Z</time>
      </trkpt>
      <trkpt lat="45.02543" lon="3.85033">
        <ele>841.77</ele>
        <time>2022-05-04T07:25:33Z</time>
      </trkpt>
      <trkpt lat="45.02543" lon="3.85033">
        <ele>842.25</ele>
        <time>2022-05-04T07:28:49Z</time>
      </trkpt>
      <trkpt lat="45.02543" lon="3.85033">
        <ele>845.62</ele>
        <time>2022-05-04T07:29:47Z</time>
      </trkpt>
      <trkpt lat="45.02542" lon="3.85032">
        <ele>845.62</ele>
        <time>2022-05-04T07:29:48Z</time>
      </trkpt>
      <trkpt lat="45.02543" lon="3.85032">
        <ele>844.18</ele>
        <time>2022-05-04T07:30:07Z</time>
      </trkpt>
      <trkpt lat="45.02543" lon="3.85032">
        <ele>843.69</ele>
        <time>2022-05-04T07:30:31Z</time>
      </trkpt>
      <trkpt lat="45.02543" lon="3.85033">
        <ele>843.21</ele>
        <time>2022-05-04T07:30:53Z</time>
      </trkpt>
      <trkpt lat="45.02544" lon="3.85031">
        <ele>843.21</ele>
        <time>2022-05-04T07:31:19Z</time>
      </trkpt>
      <trkpt lat="45.02539" lon="3.85019">
        <ele>843.21</ele>
        <time>2022-05-04T07:31:34Z</time>
      </trkpt>
      <trkpt lat="45.02538" lon="3.85017">
        <ele>843.69</ele>
        <time>2022-05-04T07:31:36Z</time>
      </trkpt>
      <trkpt lat="45.02537" lon="3.85015">
        <ele>843.69</ele>
        <time>2022-05-04T07:31:38Z</time>
      </trkpt>
      <trkpt lat="45.02528" lon="3.84993">
        <ele>843.69</ele>
        <time>2022-05-04T07:31:55Z</time>
      </trkpt>
      <trkpt lat="45.02519" lon="3.84971">
        <ele>844.18</ele>
        <time>2022-05-04T07:32:11Z</time>
      </trkpt>
      <trkpt lat="45.02509" lon="3.84949">
        <ele>844.66</ele>
        <time>2022-05-04T07:32:27Z</time>
      </trkpt>
      <trkpt lat="45.02499" lon="3.84927">
        <ele>845.14</ele>
        <time>2022-05-04T07:32:43Z</time>
      </trkpt>
      <trkpt lat="45.02491" lon="3.84908">
        <ele>845.14</ele>
        <time>2022-05-04T07:32:57Z</time>
      </trkpt>
      <trkpt lat="45.02482" lon="3.84884">
        <ele>845.62</ele>
        <time>2022-05-04T07:33:15Z</time>
      </trkpt>
      <trkpt lat="45.02473" lon="3.84863">
        <ele>846.1</ele>
        <time>2022-05-04T07:33:30Z</time>
      </trkpt>
      <trkpt lat="45.02463" lon="3.84836">
        <ele>846.1</ele>
        <time>2022-05-04T07:33:48Z</time>
      </trkpt>
      <trkpt lat="45.02452" lon="3.8481">
        <ele>846.58</ele>
        <time>2022-05-04T07:34:05Z</time>
      </trkpt>
      <trkpt lat="45.02444" lon="3.84792">
        <ele>846.58</ele>
        <time>2022-05-04T07:34:19Z</time>
      </trkpt>
      <trkpt lat="45.02435" lon="3.8477">
        <ele>846.58</ele>
        <time>2022-05-04T07:34:34Z</time>
      </trkpt>
      <trkpt lat="45.02425" lon="3.84747">
        <ele>846.58</ele>
        <time>2022-05-04T07:34:52Z</time>
      </trkpt>
      <trkpt lat="45.02413" lon="3.84717">
        <ele>847.54</ele>
        <time>2022-05-04T07:35:12Z</time>
      </trkpt>
      <trkpt lat="45.024" lon="3.84687">
        <ele>847.54</ele>
        <time>2022-05-04T07:35:32Z</time>
      </trkpt>
      <trkpt lat="45.0239" lon="3.84664">
        <ele>847.54</ele>
        <time>2022-05-04T07:35:48Z</time>
      </trkpt>
      <trkpt lat="45.02382" lon="3.84643">
        <ele>847.54</ele>
        <time>2022-05-04T07:36:02Z</time>
      </trkpt>
      <trkpt lat="45.02374" lon="3.84624">
        <ele>848.02</ele>
        <time>2022-05-04T07:36:15Z</time>
      </trkpt>
      <trkpt lat="45.02362" lon="3.84597">
        <ele>848.02</ele>
        <time>2022-05-04T07:36:35Z</time>
      </trkpt>
      <trkpt lat="45.02353" lon="3.84576">
        <ele>848.5</ele>
        <time>2022-05-04T07:36:51Z</time>
      </trkpt>
      <trkpt lat="45.02344" lon="3.8455">
        <ele>848.5</ele>
        <time>2022-05-04T07:37:09Z</time>
      </trkpt>
      <trkpt lat="45.02335" lon="3.84527">
        <ele>848.98</ele>
        <time>2022-05-04T07:37:26Z</time>
      </trkpt>
      <trkpt lat="45.02324" lon="3.84502">
        <ele>849.46</ele>
        <time>2022-05-04T07:37:45Z</time>
      </trkpt>
      <trkpt lat="45.02312" lon="3.84478">
        <ele>850.42</ele>
        <time>2022-05-04T07:38:03Z</time>
      </trkpt>
      <trkpt lat="45.02303" lon="3.84458">
        <ele>851.87</ele>
        <time>2022-05-04T07:38:19Z</time>
      </trkpt>
      <trkpt lat="45.02297" lon="3.84437">
        <ele>853.31</ele>
        <time>2022-05-04T07:38:33Z</time>
      </trkpt>
      <trkpt lat="45.02288" lon="3.84416">
        <ele>853.79</ele>
        <time>2022-05-04T07:38:48Z</time>
      </trkpt>
      <trkpt lat="45.02281" lon="3.84398">
        <ele>854.75</ele>
        <time>2022-05-04T07:39:00Z</time>
      </trkpt>
      <trkpt lat="45.02272" lon="3.84379">
        <ele>855.23</ele>
        <time>2022-05-04T07:39:14Z</time>
      </trkpt>
      <trkpt lat="45.02271" lon="3.84356">
        <ele>855.23</ele>
        <time>2022-05-04T07:39:29Z</time>
      </trkpt>
      <trkpt lat="45.02271" lon="3.84327">
        <ele>855.71</ele>
        <time>2022-05-04T07:39:48Z</time>
      </trkpt>
      <trkpt lat="45.02267" lon="3.84308">
        <ele>856.19</ele>
        <time>2022-05-04T07:40:02Z</time>
      </trkpt>
      <trkpt lat="45.0226" lon="3.84283">
        <ele>856.67</ele>
        <time>2022-05-04T07:40:19Z</time>
      </trkpt>
      <trkpt lat="45.02254" lon="3.84258">
        <ele>856.67</ele>
        <time>2022-05-04T07:40:35Z</time>
      </trkpt>
      <trkpt lat="45.02248" lon="3.84236">
        <ele>857.15</ele>
        <time>2022-05-04T07:40:51Z</time>
      </trkpt>
      <trkpt lat="45.02243" lon="3.84216">
        <ele>857.63</ele>
        <time>2022-05-04T07:41:04Z</time>
      </trkpt>
      <trkpt lat="45.02236" lon="3.84192">
        <ele>857.63</ele>
        <time>2022-05-04T07:41:20Z</time>
      </trkpt>
      <trkpt lat="45.02229" lon="3.84166">
        <ele>857.63</ele>
        <time>2022-05-04T07:41:37Z</time>
      </trkpt>
      <trkpt lat="45.02223" lon="3.84138">
        <ele>858.11</ele>
        <time>2022-05-04T07:41:56Z</time>
      </trkpt>
      <trkpt lat="45.02215" lon="3.84111">
        <ele>858.59</ele>
        <time>2022-05-04T07:42:15Z</time>
      </trkpt>
      <trkpt lat="45.02208" lon="3.84084">
        <ele>859.08</ele>
        <time>2022-05-04T07:42:33Z</time>
      </trkpt>
      <trkpt lat="45.022" lon="3.8406">
        <ele>860.04</ele>
        <time>2022-05-04T07:42:51Z</time>
      </trkpt>
      <trkpt lat="45.02198" lon="3.84056">
        <ele>860.04</ele>
        <time>2022-05-04T07:42:54Z</time>
      </trkpt>
      <trkpt lat="45.02198" lon="3.84055">
        <ele>860.04</ele>
        <time>2022-05-04T07:42:55Z</time>
      </trkpt>
      <trkpt lat="45.0219" lon="3.84036">
        <ele>860.04</ele>
        <time>2022-05-04T07:43:10Z</time>
      </trkpt>
      <trkpt lat="45.02186" lon="3.84023">
        <ele>860.04</ele>
        <time>2022-05-04T07:43:22Z</time>
      </trkpt>
      <trkpt lat="45.02185" lon="3.8402">
        <ele>860.04</ele>
        <time>2022-05-04T07:43:24Z</time>
      </trkpt>
      <trkpt lat="45.02179" lon="3.84001">
        <ele>860.04</ele>
        <time>2022-05-04T07:43:39Z</time>
      </trkpt>
      <trkpt lat="45.02171" lon="3.83973">
        <ele>860.52</ele>
        <time>2022-05-04T07:43:59Z</time>
      </trkpt>
      <trkpt lat="45.02166" lon="3.83944">
        <ele>861</ele>
        <time>2022-05-04T07:44:18Z</time>
      </trkpt>
      <trkpt lat="45.02163" lon="3.83919">
        <ele>861.48</ele>
        <time>2022-05-04T07:44:35Z</time>
      </trkpt>
      <trkpt lat="45.02158" lon="3.83892">
        <ele>861.48</ele>
        <time>2022-05-04T07:44:53Z</time>
      </trkpt>
      <trkpt lat="45.02153" lon="3.8386">
        <ele>862.44</ele>
        <time>2022-05-04T07:45:13Z</time>
      </trkpt>
      <trkpt lat="45.02149" lon="3.83831">
        <ele>862.44</ele>
        <time>2022-05-04T07:45:31Z</time>
      </trkpt>
      <trkpt lat="45.02145" lon="3.83803">
        <ele>862.92</ele>
        <time>2022-05-04T07:45:49Z</time>
      </trkpt>
      <trkpt lat="45.0214" lon="3.83777">
        <ele>862.92</ele>
        <time>2022-05-04T07:46:06Z</time>
      </trkpt>
      <trkpt lat="45.02136" lon="3.83751">
        <ele>863.4</ele>
        <time>2022-05-04T07:46:23Z</time>
      </trkpt>
      <trkpt lat="45.02127" lon="3.83722">
        <ele>863.4</ele>
        <time>2022-05-04T07:46:44Z</time>
      </trkpt>
      <trkpt lat="45.02122" lon="3.83702">
        <ele>863.4</ele>
        <time>2022-05-04T07:47:01Z</time>
      </trkpt>
      <trkpt lat="45.0212" lon="3.83698">
        <ele>863.88</ele>
        <time>2022-05-04T07:47:04Z</time>
      </trkpt>
      <trkpt lat="45.02119" lon="3.83695">
        <ele>863.88</ele>
        <time>2022-05-04T07:47:06Z</time>
      </trkpt>
      <trkpt lat="45.02112" lon="3.83664">
        <ele>863.88</ele>
        <time>2022-05-04T07:47:24Z</time>
      </trkpt>
      <trkpt lat="45.02104" lon="3.83642">
        <ele>864.84</ele>
        <time>2022-05-04T07:47:39Z</time>
      </trkpt>
      <trkpt lat="45.02103" lon="3.8364">
        <ele>864.84</ele>
        <time>2022-05-04T07:47:40Z</time>
      </trkpt>
      <trkpt lat="45.02087" lon="3.8362">
        <ele>864.84</ele>
        <time>2022-05-04T07:47:58Z</time>
      </trkpt>
      <trkpt lat="45.02074" lon="3.83603">
        <ele>865.32</ele>
        <time>2022-05-04T07:48:15Z</time>
      </trkpt>
      <trkpt lat="45.02062" lon="3.83585">
        <ele>865.32</ele>
        <time>2022-05-04T07:48:31Z</time>
      </trkpt>
      <trkpt lat="45.02048" lon="3.83563">
        <ele>865.8</ele>
        <time>2022-05-04T07:48:48Z</time>
      </trkpt>
      <trkpt lat="45.02036" lon="3.83542">
        <ele>866.29</ele>
        <time>2022-05-04T07:49:04Z</time>
      </trkpt>
      <trkpt lat="45.02029" lon="3.83523">
        <ele>866.29</ele>
        <time>2022-05-04T07:49:17Z</time>
      </trkpt>
      <trkpt lat="45.02023" lon="3.83499">
        <ele>866.77</ele>
        <time>2022-05-04T07:49:32Z</time>
      </trkpt>
      <trkpt lat="45.02018" lon="3.83472">
        <ele>866.77</ele>
        <time>2022-05-04T07:49:49Z</time>
      </trkpt>
      <trkpt lat="45.0201" lon="3.83443">
        <ele>866.77</ele>
        <time>2022-05-04T07:50:07Z</time>
      </trkpt>
      <trkpt lat="45.0201" lon="3.83442">
        <ele>866.77</ele>
        <time>2022-05-04T07:50:08Z</time>
      </trkpt>
      <trkpt lat="45.02009" lon="3.83441">
        <ele>866.77</ele>
        <time>2022-05-04T07:50:09Z</time>
      </trkpt>
      <trkpt lat="45.02003" lon="3.8342">
        <ele>867.25</ele>
        <time>2022-05-04T07:50:24Z</time>
      </trkpt>
      <trkpt lat="45.01995" lon="3.83402">
        <ele>867.25</ele>
        <time>2022-05-04T07:50:40Z</time>
      </trkpt>
      <trkpt lat="45.01994" lon="3.83399">
        <ele>867.25</ele>
        <time>2022-05-04T07:50:54Z</time>
      </trkpt>
      <trkpt lat="45.01994" lon="3.83398">
        <ele>867.25</ele>
        <time>2022-05-04T07:51:24Z</time>
      </trkpt>
      <trkpt lat="45.01994" lon="3.83398">
        <ele>866.77</ele>
        <time>2022-05-04T07:52:05Z</time>
      </trkpt>
      <trkpt lat="45.01995" lon="3.83398">
        <ele>866.77</ele>
        <time>2022-05-04T07:52:59Z</time>
      </trkpt>
      <trkpt lat="45.01995" lon="3.83398">
        <ele>866.77</ele>
        <time>2022-05-04T07:53:59Z</time>
      </trkpt>
      <trkpt lat="45.01994" lon="3.83398">
        <ele>866.77</ele>
        <time>2022-05-04T07:54:51Z</time>
      </trkpt>
      <trkpt lat="45.01995" lon="3.83398">
        <ele>866.77</ele>
        <time>2022-05-04T07:55:54Z</time>
      </trkpt>
      <trkpt lat="45.01995" lon="3.83399">
        <ele>866.77</ele>
        <time>2022-05-04T07:56:33Z</time>
      </trkpt>
      <trkpt lat="45.01995" lon="3.83399">
        <ele>866.77</ele>
        <time>2022-05-04T07:57:08Z</time>
      </trkpt>
      <trkpt lat="45.01995" lon="3.83398">
        <ele>866.77</ele>
        <time>2022-05-04T07:57:40Z</time>
      </trkpt>
      <trkpt lat="45.01995" lon="3.83398">
        <ele>866.77</ele>
        <time>2022-05-04T07:58:08Z</time>
      </trkpt>
      <trkpt lat="45.01996" lon="3.83398">
        <ele>866.77</ele>
        <time>2022-05-04T07:58:42Z</time>
      </trkpt>
      <trkpt lat="45.01999" lon="3.83395">
        <ele>866.77</ele>
        <time>2022-05-04T07:59:02Z</time>
      </trkpt>
      <trkpt lat="45.02" lon="3.83394">
        <ele>866.77</ele>
        <time>2022-05-04T07:59:33Z</time>
      </trkpt>
      <trkpt lat="45.02003" lon="3.83393">
        <ele>866.77</ele>
        <time>2022-05-04T07:59:53Z</time>
      </trkpt>
      <trkpt lat="45.02008" lon="3.83387">
        <ele>866.77</ele>
        <time>2022-05-04T08:00:00Z</time>
      </trkpt>
      <trkpt lat="45.02012" lon="3.83383">
        <ele>866.29</ele>
        <time>2022-05-04T08:00:14Z</time>
      </trkpt>
      <trkpt lat="45.02027" lon="3.83368">
        <ele>866.29</ele>
        <time>2022-05-04T08:00:32Z</time>
      </trkpt>
      <trkpt lat="45.02039" lon="3.83352">
        <ele>865.8</ele>
        <time>2022-05-04T08:00:49Z</time>
      </trkpt>
      <trkpt lat="45.02056" lon="3.83337">
        <ele>865.8</ele>
        <time>2022-05-04T08:01:08Z</time>
      </trkpt>
      <trkpt lat="45.02074" lon="3.83319">
        <ele>865.8</ele>
        <time>2022-05-04T08:01:28Z</time>
      </trkpt>
      <trkpt lat="45.02091" lon="3.83302">
        <ele>865.8</ele>
        <time>2022-05-04T08:01:47Z</time>
      </trkpt>
      <trkpt lat="45.02101" lon="3.83284">
        <ele>865.8</ele>
        <time>2022-05-04T08:02:05Z</time>
      </trkpt>
      <trkpt lat="45.02105" lon="3.83257">
        <ele>865.8</ele>
        <time>2022-05-04T08:02:25Z</time>
      </trkpt>
      <trkpt lat="45.02114" lon="3.83237">
        <ele>865.8</ele>
        <time>2022-05-04T08:02:43Z</time>
      </trkpt>
      <trkpt lat="45.02114" lon="3.83236">
        <ele>865.8</ele>
        <time>2022-05-04T08:03:06Z</time>
      </trkpt>
      <trkpt lat="45.02116" lon="3.83233">
        <ele>865.8</ele>
        <time>2022-05-04T08:03:17Z</time>
      </trkpt>
      <trkpt lat="45.02117" lon="3.83231">
        <ele>865.8</ele>
        <time>2022-05-04T08:03:19Z</time>
      </trkpt>
      <trkpt lat="45.02118" lon="3.8323">
        <ele>865.8</ele>
        <time>2022-05-04T08:03:20Z</time>
      </trkpt>
      <trkpt lat="45.02131" lon="3.83205">
        <ele>866.29</ele>
        <time>2022-05-04T08:03:41Z</time>
      </trkpt>
      <trkpt lat="45.02142" lon="3.83183">
        <ele>866.77</ele>
        <time>2022-05-04T08:03:59Z</time>
      </trkpt>
      <trkpt lat="45.0216" lon="3.83164">
        <ele>866.77</ele>
        <time>2022-05-04T08:04:18Z</time>
      </trkpt>
      <trkpt lat="45.02182" lon="3.83149">
        <ele>866.77</ele>
        <time>2022-05-04T08:04:40Z</time>
      </trkpt>
      <trkpt lat="45.02202" lon="3.83134">
        <ele>866.77</ele>
        <time>2022-05-04T08:04:59Z</time>
      </trkpt>
      <trkpt lat="45.02212" lon="3.83128">
        <ele>867.25</ele>
        <time>2022-05-04T08:05:16Z</time>
      </trkpt>
      <trkpt lat="45.02218" lon="3.83123">
        <ele>866.77</ele>
        <time>2022-05-04T08:05:23Z</time>
      </trkpt>
      <trkpt lat="45.02223" lon="3.8312">
        <ele>866.77</ele>
        <time>2022-05-04T08:05:27Z</time>
      </trkpt>
      <trkpt lat="45.02243" lon="3.83106">
        <ele>866.77</ele>
        <time>2022-05-04T08:05:45Z</time>
      </trkpt>
      <trkpt lat="45.02263" lon="3.8309">
        <ele>866.29</ele>
        <time>2022-05-04T08:06:05Z</time>
      </trkpt>
      <trkpt lat="45.0229" lon="3.83072">
        <ele>866.29</ele>
        <time>2022-05-04T08:06:31Z</time>
      </trkpt>
      <trkpt lat="45.02299" lon="3.83066">
        <ele>865.8</ele>
        <time>2022-05-04T08:06:44Z</time>
      </trkpt>
      <trkpt lat="45.02302" lon="3.83065">
        <ele>865.8</ele>
        <time>2022-05-04T08:06:47Z</time>
      </trkpt>
      <trkpt lat="45.02303" lon="3.83064">
        <ele>865.8</ele>
        <time>2022-05-04T08:06:48Z</time>
      </trkpt>
      <trkpt lat="45.02334" lon="3.83048">
        <ele>864.84</ele>
        <time>2022-05-04T08:07:15Z</time>
      </trkpt>
      <trkpt lat="45.02354" lon="3.83033">
        <ele>864.84</ele>
        <time>2022-05-04T08:07:36Z</time>
      </trkpt>
      <trkpt lat="45.02354" lon="3.83031">
        <ele>864.84</ele>
        <time>2022-05-04T08:07:37Z</time>
      </trkpt>
      <trkpt lat="45.02353" lon="3.83024">
        <ele>864.36</ele>
        <time>2022-05-04T08:07:43Z</time>
      </trkpt>
      <trkpt lat="45.02339" lon="3.82999">
        <ele>864.84</ele>
        <time>2022-05-04T08:08:03Z</time>
      </trkpt>
      <trkpt lat="45.02324" lon="3.82979">
        <ele>865.32</ele>
        <time>2022-05-04T08:08:21Z</time>
      </trkpt>
      <trkpt lat="45.02309" lon="3.82958">
        <ele>865.8</ele>
        <time>2022-05-04T08:08:40Z</time>
      </trkpt>
      <trkpt lat="45.02299" lon="3.82934">
        <ele>866.29</ele>
        <time>2022-05-04T08:08:58Z</time>
      </trkpt>
      <trkpt lat="45.02294" lon="3.82905">
        <ele>866.77</ele>
        <time>2022-05-04T08:09:18Z</time>
      </trkpt>
      <trkpt lat="45.02294" lon="3.82873">
        <ele>866.77</ele>
        <time>2022-05-04T08:09:38Z</time>
      </trkpt>
      <trkpt lat="45.02291" lon="3.82845">
        <ele>867.25</ele>
        <time>2022-05-04T08:09:56Z</time>
      </trkpt>
      <trkpt lat="45.02289" lon="3.8283">
        <ele>867.25</ele>
        <time>2022-05-04T08:10:06Z</time>
      </trkpt>
      <trkpt lat="45.02288" lon="3.82828">
        <ele>867.73</ele>
        <time>2022-05-04T08:10:07Z</time>
      </trkpt>
      <trkpt lat="45.02287" lon="3.82814">
        <ele>867.73</ele>
        <time>2022-05-04T08:10:20Z</time>
      </trkpt>
      <trkpt lat="45.02279" lon="3.82788">
        <ele>868.21</ele>
        <time>2022-05-04T08:10:40Z</time>
      </trkpt>
      <trkpt lat="45.0226" lon="3.82771">
        <ele>868.21</ele>
        <time>2022-05-04T08:11:02Z</time>
      </trkpt>
      <trkpt lat="45.02241" lon="3.82758">
        <ele>869.17</ele>
        <time>2022-05-04T08:11:21Z</time>
      </trkpt>
      <trkpt lat="45.02223" lon="3.82742">
        <ele>869.17</ele>
        <time>2022-05-04T08:11:45Z</time>
      </trkpt>
      <trkpt lat="45.02221" lon="3.82739">
        <ele>869.17</ele>
        <time>2022-05-04T08:12:07Z</time>
      </trkpt>
      <trkpt lat="45.02219" lon="3.82731">
        <ele>869.17</ele>
        <time>2022-05-04T08:12:14Z</time>
      </trkpt>
      <trkpt lat="45.02219" lon="3.8273">
        <ele>869.17</ele>
        <time>2022-05-04T08:12:15Z</time>
      </trkpt>
      <trkpt lat="45.02218" lon="3.82728">
        <ele>869.17</ele>
        <time>2022-05-04T08:12:16Z</time>
      </trkpt>
      <trkpt lat="45.02218" lon="3.82727">
        <ele>869.17</ele>
        <time>2022-05-04T08:12:17Z</time>
      </trkpt>
      <trkpt lat="45.02209" lon="3.82703">
        <ele>869.65</ele>
        <time>2022-05-04T08:12:37Z</time>
      </trkpt>
      <trkpt lat="45.022" lon="3.82675">
        <ele>870.13</ele>
        <time>2022-05-04T08:12:58Z</time>
      </trkpt>
      <trkpt lat="45.02194" lon="3.82648">
        <ele>870.61</ele>
        <time>2022-05-04T08:13:18Z</time>
      </trkpt>
      <trkpt lat="45.02193" lon="3.82643">
        <ele>870.61</ele>
        <time>2022-05-04T08:13:35Z</time>
      </trkpt>
      <trkpt lat="45.02189" lon="3.82616">
        <ele>870.61</ele>
        <time>2022-05-04T08:13:53Z</time>
      </trkpt>
      <trkpt lat="45.02186" lon="3.82582">
        <ele>871.57</ele>
        <time>2022-05-04T08:14:14Z</time>
      </trkpt>
      <trkpt lat="45.02183" lon="3.82551">
        <ele>871.09</ele>
        <time>2022-05-04T08:14:33Z</time>
      </trkpt>
      <trkpt lat="45.02181" lon="3.82529">
        <ele>871.09</ele>
        <time>2022-05-04T08:14:46Z</time>
      </trkpt>
      <trkpt lat="45.0218" lon="3.82524">
        <ele>871.09</ele>
        <time>2022-05-04T08:14:59Z</time>
      </trkpt>
      <trkpt lat="45.0218" lon="3.82523">
        <ele>871.09</ele>
        <time>2022-05-04T08:15:21Z</time>
      </trkpt>
      <trkpt lat="45.0218" lon="3.82522">
        <ele>871.09</ele>
        <time>2022-05-04T08:15:44Z</time>
      </trkpt>
      <trkpt lat="45.0218" lon="3.82522">
        <ele>871.09</ele>
        <time>2022-05-04T08:16:12Z</time>
      </trkpt>
      <trkpt lat="45.02179" lon="3.82517">
        <ele>871.09</ele>
        <time>2022-05-04T08:16:20Z</time>
      </trkpt>
      <trkpt lat="45.02179" lon="3.82516">
        <ele>871.09</ele>
        <time>2022-05-04T08:16:21Z</time>
      </trkpt>
      <trkpt lat="45.02178" lon="3.82514">
        <ele>871.09</ele>
        <time>2022-05-04T08:16:22Z</time>
      </trkpt>
      <trkpt lat="45.02178" lon="3.82512">
        <ele>871.09</ele>
        <time>2022-05-04T08:16:23Z</time>
      </trkpt>
      <trkpt lat="45.02175" lon="3.82491">
        <ele>870.61</ele>
        <time>2022-05-04T08:16:37Z</time>
      </trkpt>
      <trkpt lat="45.02168" lon="3.8246">
        <ele>871.57</ele>
        <time>2022-05-04T08:16:56Z</time>
      </trkpt>
      <trkpt lat="45.02161" lon="3.82431">
        <ele>871.57</ele>
        <time>2022-05-04T08:17:14Z</time>
      </trkpt>
      <trkpt lat="45.02156" lon="3.8241">
        <ele>871.57</ele>
        <time>2022-05-04T08:17:30Z</time>
      </trkpt>
      <trkpt lat="45.02152" lon="3.82381">
        <ele>872.05</ele>
        <time>2022-05-04T08:17:49Z</time>
      </trkpt>
      <trkpt lat="45.02148" lon="3.82351">
        <ele>871.57</ele>
        <time>2022-05-04T08:18:08Z</time>
      </trkpt>
      <trkpt lat="45.02143" lon="3.82327">
        <ele>870.61</ele>
        <time>2022-05-04T08:18:24Z</time>
      </trkpt>
      <trkpt lat="45.02141" lon="3.82312">
        <ele>870.61</ele>
        <time>2022-05-04T08:18:37Z</time>
      </trkpt>
      <trkpt lat="45.0214" lon="3.8231">
        <ele>870.61</ele>
        <time>2022-05-04T08:18:38Z</time>
      </trkpt>
      <trkpt lat="45.0214" lon="3.82309">
        <ele>870.13</ele>
        <time>2022-05-04T08:18:39Z</time>
      </trkpt>
      <trkpt lat="45.02132" lon="3.8228">
        <ele>869.17</ele>
        <time>2022-05-04T08:18:58Z</time>
      </trkpt>
      <trkpt lat="45.02126" lon="3.8226">
        <ele>868.21</ele>
        <time>2022-05-04T08:19:12Z</time>
      </trkpt>
      <trkpt lat="45.02119" lon="3.82229">
        <ele>867.25</ele>
        <time>2022-05-04T08:19:31Z</time>
      </trkpt>
      <trkpt lat="45.02119" lon="3.82208">
        <ele>865.8</ele>
        <time>2022-05-04T08:19:47Z</time>
      </trkpt>
      <trkpt lat="45.02122" lon="3.82193">
        <ele>863.88</ele>
        <time>2022-05-04T08:20:09Z</time>
      </trkpt>
      <trkpt lat="45.02126" lon="3.8218">
        <ele>862.92</ele>
        <time>2022-05-04T08:20:25Z</time>
      </trkpt>
      <trkpt lat="45.0213" lon="3.82164">
        <ele>863.88</ele>
        <time>2022-05-04T08:20:37Z</time>
      </trkpt>
      <trkpt lat="45.0213" lon="3.82156">
        <ele>862.44</ele>
        <time>2022-05-04T08:20:43Z</time>
      </trkpt>
      <trkpt lat="45.0213" lon="3.82155">
        <ele>862.44</ele>
        <time>2022-05-04T08:20:44Z</time>
      </trkpt>
      <trkpt lat="45.02128" lon="3.82146">
        <ele>860.52</ele>
        <time>2022-05-04T08:20:58Z</time>
      </trkpt>
      <trkpt lat="45.02127" lon="3.82142">
        <ele>860.04</ele>
        <time>2022-05-04T08:21:01Z</time>
      </trkpt>
      <trkpt lat="45.0212" lon="3.82112">
        <ele>858.59</ele>
        <time>2022-05-04T08:21:21Z</time>
      </trkpt>
      <trkpt lat="45.02111" lon="3.8209">
        <ele>857.63</ele>
        <time>2022-05-04T08:21:40Z</time>
      </trkpt>
      <trkpt lat="45.0211" lon="3.82089">
        <ele>857.63</ele>
        <time>2022-05-04T08:21:41Z</time>
      </trkpt>
      <trkpt lat="45.02106" lon="3.8208">
        <ele>857.15</ele>
        <time>2022-05-04T08:21:55Z</time>
      </trkpt>
      <trkpt lat="45.02098" lon="3.82065">
        <ele>856.67</ele>
        <time>2022-05-04T08:22:12Z</time>
      </trkpt>
      <trkpt lat="45.02096" lon="3.8206">
        <ele>856.67</ele>
        <time>2022-05-04T08:22:16Z</time>
      </trkpt>
      <trkpt lat="45.02095" lon="3.82057">
        <ele>856.67</ele>
        <time>2022-05-04T08:22:18Z</time>
      </trkpt>
      <trkpt lat="45.02094" lon="3.82055">
        <ele>856.67</ele>
        <time>2022-05-04T08:22:19Z</time>
      </trkpt>
      <trkpt lat="45.02094" lon="3.82054">
        <ele>856.67</ele>
        <time>2022-05-04T08:22:20Z</time>
      </trkpt>
      <trkpt lat="45.02086" lon="3.82023">
        <ele>856.19</ele>
        <time>2022-05-04T08:22:41Z</time>
      </trkpt>
      <trkpt lat="45.02087" lon="3.8199">
        <ele>855.71</ele>
        <time>2022-05-04T08:23:02Z</time>
      </trkpt>
      <trkpt lat="45.02087" lon="3.81967">
        <ele>856.19</ele>
        <time>2022-05-04T08:23:18Z</time>
      </trkpt>
      <trkpt lat="45.02084" lon="3.81942">
        <ele>857.15</ele>
        <time>2022-05-04T08:23:34Z</time>
      </trkpt>
      <trkpt lat="45.02079" lon="3.81919">
        <ele>858.11</ele>
        <time>2022-05-04T08:23:50Z</time>
      </trkpt>
      <trkpt lat="45.02076" lon="3.81894">
        <ele>860.04</ele>
        <time>2022-05-04T08:24:09Z</time>
      </trkpt>
      <trkpt lat="45.02076" lon="3.81891">
        <ele>860.52</ele>
        <time>2022-05-04T08:24:11Z</time>
      </trkpt>
      <trkpt lat="45.02076" lon="3.8189">
        <ele>860.52</ele>
        <time>2022-05-04T08:24:12Z</time>
      </trkpt>
      <trkpt lat="45.02077" lon="3.81887">
        <ele>861</ele>
        <time>2022-05-04T08:24:14Z</time>
      </trkpt>
      <trkpt lat="45.02077" lon="3.81886">
        <ele>861</ele>
        <time>2022-05-04T08:24:15Z</time>
      </trkpt>
      <trkpt lat="45.02078" lon="3.81885">
        <ele>861</ele>
        <time>2022-05-04T08:24:16Z</time>
      </trkpt>
      <trkpt lat="45.02078" lon="3.81883">
        <ele>861</ele>
        <time>2022-05-04T08:24:17Z</time>
      </trkpt>
      <trkpt lat="45.02079" lon="3.81882">
        <ele>861</ele>
        <time>2022-05-04T08:24:18Z</time>
      </trkpt>
      <trkpt lat="45.02085" lon="3.81854">
        <ele>861.96</ele>
        <time>2022-05-04T08:24:39Z</time>
      </trkpt>
      <trkpt lat="45.02084" lon="3.8185">
        <ele>862.44</ele>
        <time>2022-05-04T08:24:56Z</time>
      </trkpt>
      <trkpt lat="45.02085" lon="3.81847">
        <ele>862.44</ele>
        <time>2022-05-04T08:25:18Z</time>
      </trkpt>
      <trkpt lat="45.02086" lon="3.81837">
        <ele>862.44</ele>
        <time>2022-05-04T08:25:27Z</time>
      </trkpt>
      <trkpt lat="45.02087" lon="3.81834">
        <ele>862.44</ele>
        <time>2022-05-04T08:25:29Z</time>
      </trkpt>
      <trkpt lat="45.02087" lon="3.81833">
        <ele>862.44</ele>
        <time>2022-05-04T08:25:30Z</time>
      </trkpt>
      <trkpt lat="45.02094" lon="3.81805">
        <ele>862.92</ele>
        <time>2022-05-04T08:25:50Z</time>
      </trkpt>
      <trkpt lat="45.02106" lon="3.81778">
        <ele>863.4</ele>
        <time>2022-05-04T08:26:11Z</time>
      </trkpt>
      <trkpt lat="45.02117" lon="3.8175">
        <ele>864.36</ele>
        <time>2022-05-04T08:26:32Z</time>
      </trkpt>
      <trkpt lat="45.02114" lon="3.81726">
        <ele>864.36</ele>
        <time>2022-05-04T08:26:53Z</time>
      </trkpt>
      <trkpt lat="45.02113" lon="3.81721">
        <ele>864.36</ele>
        <time>2022-05-04T08:27:04Z</time>
      </trkpt>
      <trkpt lat="45.02112" lon="3.81719">
        <ele>864.36</ele>
        <time>2022-05-04T08:27:05Z</time>
      </trkpt>
      <trkpt lat="45.02112" lon="3.81718">
        <ele>864.36</ele>
        <time>2022-05-04T08:27:06Z</time>
      </trkpt>
      <trkpt lat="45.02106" lon="3.81692">
        <ele>864.36</ele>
        <time>2022-05-04T08:27:25Z</time>
      </trkpt>
      <trkpt lat="45.02106" lon="3.81691">
        <ele>864.36</ele>
        <time>2022-05-04T08:27:26Z</time>
      </trkpt>
      <trkpt lat="45.02106" lon="3.81689">
        <ele>864.36</ele>
        <time>2022-05-04T08:27:27Z</time>
      </trkpt>
      <trkpt lat="45.02105" lon="3.81688">
        <ele>864.36</ele>
        <time>2022-05-04T08:27:28Z</time>
      </trkpt>
      <trkpt lat="45.02105" lon="3.81686">
        <ele>864.84</ele>
        <time>2022-05-04T08:27:29Z</time>
      </trkpt>
      <trkpt lat="45.02104" lon="3.81685">
        <ele>864.84</ele>
        <time>2022-05-04T08:27:30Z</time>
      </trkpt>
      <trkpt lat="45.02097" lon="3.81656">
        <ele>864.36</ele>
        <time>2022-05-04T08:27:50Z</time>
      </trkpt>
      <trkpt lat="45.02097" lon="3.81649">
        <ele>864.84</ele>
        <time>2022-05-04T08:27:57Z</time>
      </trkpt>
      <trkpt lat="45.02097" lon="3.81647">
        <ele>864.84</ele>
        <time>2022-05-04T08:27:58Z</time>
      </trkpt>
      <trkpt lat="45.02097" lon="3.81646">
        <ele>864.84</ele>
        <time>2022-05-04T08:27:59Z</time>
      </trkpt>
      <trkpt lat="45.02097" lon="3.81644">
        <ele>864.84</ele>
        <time>2022-05-04T08:28:00Z</time>
      </trkpt>
      <trkpt lat="45.02097" lon="3.81643">
        <ele>864.84</ele>
        <time>2022-05-04T08:28:01Z</time>
      </trkpt>
      <trkpt lat="45.02096" lon="3.81615">
        <ele>865.32</ele>
        <time>2022-05-04T08:28:22Z</time>
      </trkpt>
      <trkpt lat="45.02095" lon="3.81612">
        <ele>865.32</ele>
        <time>2022-05-04T08:28:38Z</time>
      </trkpt>
      <trkpt lat="45.02092" lon="3.81609">
        <ele>865.32</ele>
        <time>2022-05-04T08:28:58Z</time>
      </trkpt>
      <trkpt lat="45.02093" lon="3.81611">
        <ele>864.84</ele>
        <time>2022-05-04T08:29:20Z</time>
      </trkpt>
      <trkpt lat="45.02093" lon="3.81609">
        <ele>865.32</ele>
        <time>2022-05-04T08:29:57Z</time>
      </trkpt>
      <trkpt lat="45.02089" lon="3.81612">
        <ele>865.32</ele>
        <time>2022-05-04T08:30:11Z</time>
      </trkpt>
      <trkpt lat="45.02088" lon="3.81613">
        <ele>861.48</ele>
        <time>2022-05-04T08:30:27Z</time>
      </trkpt>
      <trkpt lat="45.02088" lon="3.81613">
        <ele>866.29</ele>
        <time>2022-05-04T08:30:29Z</time>
      </trkpt>
      <trkpt lat="45.02087" lon="3.81613">
        <ele>866.29</ele>
        <time>2022-05-04T08:30:39Z</time>
      </trkpt>
      <trkpt lat="45.02086" lon="3.81615">
        <ele>864.84</ele>
        <time>2022-05-04T08:31:05Z</time>
      </trkpt>
      <trkpt lat="45.02083" lon="3.81617">
        <ele>866.29</ele>
        <time>2022-05-04T08:31:08Z</time>
      </trkpt>
      <trkpt lat="45.02067" lon="3.81629">
        <ele>867.25</ele>
        <time>2022-05-04T08:31:25Z</time>
      </trkpt>
      <trkpt lat="45.02055" lon="3.81643">
        <ele>869.65</ele>
        <time>2022-05-04T08:31:44Z</time>
      </trkpt>
      <trkpt lat="45.02054" lon="3.81646">
        <ele>870.61</ele>
        <time>2022-05-04T08:32:02Z</time>
      </trkpt>
      <trkpt lat="45.02054" lon="3.81646">
        <ele>870.13</ele>
        <time>2022-05-04T08:32:21Z</time>
      </trkpt>
      <trkpt lat="45.02048" lon="3.8165">
        <ele>870.61</ele>
        <time>2022-05-04T08:32:39Z</time>
      </trkpt>
      <trkpt lat="45.02042" lon="3.81656">
        <ele>870.61</ele>
        <time>2022-05-04T08:32:49Z</time>
      </trkpt>
      <trkpt lat="45.0204" lon="3.81657">
        <ele>870.61</ele>
        <time>2022-05-04T08:32:51Z</time>
      </trkpt>
      <trkpt lat="45.02023" lon="3.81675">
        <ele>871.57</ele>
        <time>2022-05-04T08:33:14Z</time>
      </trkpt>
      <trkpt lat="45.02012" lon="3.8168">
        <ele>871.09</ele>
        <time>2022-05-04T08:33:27Z</time>
      </trkpt>
      <trkpt lat="45.02003" lon="3.81674">
        <ele>871.09</ele>
        <time>2022-05-04T08:33:37Z</time>
      </trkpt>
      <trkpt lat="45.01985" lon="3.81654">
        <ele>872.05</ele>
        <time>2022-05-04T08:34:00Z</time>
      </trkpt>
      <trkpt lat="45.01975" lon="3.8164">
        <ele>873.01</ele>
        <time>2022-05-04T08:34:18Z</time>
      </trkpt>
      <trkpt lat="45.01975" lon="3.81639">
        <ele>873.01</ele>
        <time>2022-05-04T08:34:19Z</time>
      </trkpt>
      <trkpt lat="45.01974" lon="3.81638">
        <ele>873.01</ele>
        <time>2022-05-04T08:34:20Z</time>
      </trkpt>
      <trkpt lat="45.01951" lon="3.81616">
        <ele>873.01</ele>
        <time>2022-05-04T08:34:45Z</time>
      </trkpt>
      <trkpt lat="45.01949" lon="3.8161">
        <ele>873.5</ele>
        <time>2022-05-04T08:34:53Z</time>
      </trkpt>
      <trkpt lat="45.01948" lon="3.81608">
        <ele>873.5</ele>
        <time>2022-05-04T08:34:54Z</time>
      </trkpt>
      <trkpt lat="45.01947" lon="3.81603">
        <ele>873.01</ele>
        <time>2022-05-04T08:35:00Z</time>
      </trkpt>
      <trkpt lat="45.01946" lon="3.816">
        <ele>873.01</ele>
        <time>2022-05-04T08:35:02Z</time>
      </trkpt>
      <trkpt lat="45.01946" lon="3.81597">
        <ele>873.01</ele>
        <time>2022-05-04T08:35:04Z</time>
      </trkpt>
      <trkpt lat="45.01946" lon="3.81595">
        <ele>873.01</ele>
        <time>2022-05-04T08:35:05Z</time>
      </trkpt>
      <trkpt lat="45.01946" lon="3.81594">
        <ele>873.01</ele>
        <time>2022-05-04T08:35:06Z</time>
      </trkpt>
      <trkpt lat="45.01947" lon="3.81577">
        <ele>873.01</ele>
        <time>2022-05-04T08:35:19Z</time>
      </trkpt>
      <trkpt lat="45.01961" lon="3.81549">
        <ele>873.5</ele>
        <time>2022-05-04T08:35:42Z</time>
      </trkpt>
      <trkpt lat="45.01978" lon="3.81528">
        <ele>873.98</ele>
        <time>2022-05-04T08:36:02Z</time>
      </trkpt>
      <trkpt lat="45.01975" lon="3.81498">
        <ele>873.98</ele>
        <time>2022-05-04T08:36:21Z</time>
      </trkpt>
      <trkpt lat="45.01969" lon="3.81461">
        <ele>874.46</ele>
        <time>2022-05-04T08:36:44Z</time>
      </trkpt>
      <trkpt lat="45.01967" lon="3.81421">
        <ele>875.42</ele>
        <time>2022-05-04T08:37:09Z</time>
      </trkpt>
      <trkpt lat="45.01962" lon="3.81389">
        <ele>875.42</ele>
        <time>2022-05-04T08:37:31Z</time>
      </trkpt>
      <trkpt lat="45.01958" lon="3.81362">
        <ele>875.42</ele>
        <time>2022-05-04T08:37:49Z</time>
      </trkpt>
      <trkpt lat="45.01956" lon="3.81347">
        <ele>875.9</ele>
        <time>2022-05-04T08:38:05Z</time>
      </trkpt>
      <trkpt lat="45.01956" lon="3.81348">
        <ele>874.94</ele>
        <time>2022-05-04T08:38:39Z</time>
      </trkpt>
      <trkpt lat="45.01956" lon="3.81347">
        <ele>874.94</ele>
        <time>2022-05-04T08:39:02Z</time>
      </trkpt>
      <trkpt lat="45.01959" lon="3.81343">
        <ele>874.94</ele>
        <time>2022-05-04T08:39:18Z</time>
      </trkpt>
      <trkpt lat="45.01956" lon="3.81344">
        <ele>874.94</ele>
        <time>2022-05-04T08:39:34Z</time>
      </trkpt>
      <trkpt lat="45.01956" lon="3.81344">
        <ele>874.46</ele>
        <time>2022-05-04T08:40:10Z</time>
      </trkpt>
      <trkpt lat="45.01955" lon="3.81336">
        <ele>874.46</ele>
        <time>2022-05-04T08:40:53Z</time>
      </trkpt>
      <trkpt lat="45.01954" lon="3.8133">
        <ele>874.46</ele>
        <time>2022-05-04T08:40:58Z</time>
      </trkpt>
      <trkpt lat="45.01954" lon="3.81328">
        <ele>874.46</ele>
        <time>2022-05-04T08:40:59Z</time>
      </trkpt>
      <trkpt lat="45.01949" lon="3.81298">
        <ele>875.42</ele>
        <time>2022-05-04T08:41:20Z</time>
      </trkpt>
      <trkpt lat="45.01947" lon="3.81284">
        <ele>876.38</ele>
        <time>2022-05-04T08:41:31Z</time>
      </trkpt>
      <trkpt lat="45.01947" lon="3.81282">
        <ele>876.38</ele>
        <time>2022-05-04T08:41:32Z</time>
      </trkpt>
      <trkpt lat="45.01946" lon="3.8128">
        <ele>876.38</ele>
        <time>2022-05-04T08:41:33Z</time>
      </trkpt>
      <trkpt lat="45.01946" lon="3.81279">
        <ele>876.38</ele>
        <time>2022-05-04T08:41:34Z</time>
      </trkpt>
      <trkpt lat="45.01946" lon="3.81277">
        <ele>876.38</ele>
        <time>2022-05-04T08:41:35Z</time>
      </trkpt>
      <trkpt lat="45.01945" lon="3.81275">
        <ele>876.38</ele>
        <time>2022-05-04T08:41:36Z</time>
      </trkpt>
      <trkpt lat="45.01938" lon="3.81245">
        <ele>876.86</ele>
        <time>2022-05-04T08:41:57Z</time>
      </trkpt>
      <trkpt lat="45.01929" lon="3.81216">
        <ele>877.82</ele>
        <time>2022-05-04T08:42:17Z</time>
      </trkpt>
      <trkpt lat="45.01923" lon="3.81177">
        <ele>877.82</ele>
        <time>2022-05-04T08:42:41Z</time>
      </trkpt>
      <trkpt lat="45.0192" lon="3.81142">
        <ele>877.82</ele>
        <time>2022-05-04T08:43:03Z</time>
      </trkpt>
      <trkpt lat="45.01918" lon="3.81129">
        <ele>878.3</ele>
        <time>2022-05-04T08:43:15Z</time>
      </trkpt>
      <trkpt lat="45.01918" lon="3.81127">
        <ele>878.3</ele>
        <time>2022-05-04T08:43:16Z</time>
      </trkpt>
      <trkpt lat="45.01918" lon="3.81126">
        <ele>878.3</ele>
        <time>2022-05-04T08:43:17Z</time>
      </trkpt>
      <trkpt lat="45.01918" lon="3.81124">
        <ele>878.3</ele>
        <time>2022-05-04T08:43:18Z</time>
      </trkpt>
      <trkpt lat="45.0191" lon="3.81096">
        <ele>878.3</ele>
        <time>2022-05-04T08:43:38Z</time>
      </trkpt>
      <trkpt lat="45.01904" lon="3.81069">
        <ele>878.78</ele>
        <time>2022-05-04T08:43:56Z</time>
      </trkpt>
      <trkpt lat="45.01903" lon="3.81052">
        <ele>878.78</ele>
        <time>2022-05-04T08:44:09Z</time>
      </trkpt>
      <trkpt lat="45.01903" lon="3.8105">
        <ele>878.78</ele>
        <time>2022-05-04T08:44:10Z</time>
      </trkpt>
      <trkpt lat="45.01903" lon="3.81049">
        <ele>878.78</ele>
        <time>2022-05-04T08:44:11Z</time>
      </trkpt>
      <trkpt lat="45.01903" lon="3.81047">
        <ele>878.78</ele>
        <time>2022-05-04T08:44:12Z</time>
      </trkpt>
      <trkpt lat="45.01902" lon="3.81016">
        <ele>878.78</ele>
        <time>2022-05-04T08:44:32Z</time>
      </trkpt>
      <trkpt lat="45.01903" lon="3.80983">
        <ele>879.26</ele>
        <time>2022-05-04T08:44:53Z</time>
      </trkpt>
      <trkpt lat="45.01909" lon="3.8095">
        <ele>879.26</ele>
        <time>2022-05-04T08:45:15Z</time>
      </trkpt>
      <trkpt lat="45.01912" lon="3.80924">
        <ele>878.78</ele>
        <time>2022-05-04T08:45:33Z</time>
      </trkpt>
      <trkpt lat="45.01918" lon="3.80893">
        <ele>878.78</ele>
        <time>2022-05-04T08:45:55Z</time>
      </trkpt>
      <trkpt lat="45.01931" lon="3.80866">
        <ele>878.78</ele>
        <time>2022-05-04T08:46:17Z</time>
      </trkpt>
      <trkpt lat="45.01938" lon="3.80855">
        <ele>878.78</ele>
        <time>2022-05-04T08:46:27Z</time>
      </trkpt>
      <trkpt lat="45.01939" lon="3.80855">
        <ele>878.78</ele>
        <time>2022-05-04T08:46:28Z</time>
      </trkpt>
      <trkpt lat="45.01956" lon="3.80846">
        <ele>878.78</ele>
        <time>2022-05-04T08:46:46Z</time>
      </trkpt>
      <trkpt lat="45.01958" lon="3.80843">
        <ele>878.78</ele>
        <time>2022-05-04T08:46:49Z</time>
      </trkpt>
      <trkpt lat="45.01964" lon="3.80816">
        <ele>877.82</ele>
        <time>2022-05-04T08:47:08Z</time>
      </trkpt>
      <trkpt lat="45.01968" lon="3.80784">
        <ele>877.34</ele>
        <time>2022-05-04T08:47:29Z</time>
      </trkpt>
      <trkpt lat="45.01968" lon="3.80783">
        <ele>877.34</ele>
        <time>2022-05-04T08:47:30Z</time>
      </trkpt>
      <trkpt lat="45.0197" lon="3.80775">
        <ele>877.82</ele>
        <time>2022-05-04T08:47:36Z</time>
      </trkpt>
      <trkpt lat="45.0197" lon="3.80771">
        <ele>877.82</ele>
        <time>2022-05-04T08:47:52Z</time>
      </trkpt>
      <trkpt lat="45.01971" lon="3.80769">
        <ele>877.82</ele>
        <time>2022-05-04T08:47:59Z</time>
      </trkpt>
      <trkpt lat="45.01971" lon="3.80767">
        <ele>877.82</ele>
        <time>2022-05-04T08:48:00Z</time>
      </trkpt>
      <trkpt lat="45.01971" lon="3.80766">
        <ele>877.82</ele>
        <time>2022-05-04T08:48:01Z</time>
      </trkpt>
      <trkpt lat="45.01975" lon="3.80742">
        <ele>876.86</ele>
        <time>2022-05-04T08:48:18Z</time>
      </trkpt>
      <trkpt lat="45.01975" lon="3.80729">
        <ele>876.38</ele>
        <time>2022-05-04T08:48:28Z</time>
      </trkpt>
      <trkpt lat="45.01968" lon="3.80717">
        <ele>874.94</ele>
        <time>2022-05-04T08:48:46Z</time>
      </trkpt>
      <trkpt lat="45.01965" lon="3.80719">
        <ele>874.46</ele>
        <time>2022-05-04T08:49:00Z</time>
      </trkpt>
      <trkpt lat="45.01968" lon="3.80717">
        <ele>873.98</ele>
        <time>2022-05-04T08:49:41Z</time>
      </trkpt>
      <trkpt lat="45.01969" lon="3.80715">
        <ele>873.98</ele>
        <time>2022-05-04T08:49:43Z</time>
      </trkpt>
      <trkpt lat="45.01969" lon="3.80714">
        <ele>873.5</ele>
        <time>2022-05-04T08:49:44Z</time>
      </trkpt>
      <trkpt lat="45.01969" lon="3.80712">
        <ele>873.5</ele>
        <time>2022-05-04T08:49:45Z</time>
      </trkpt>
      <trkpt lat="45.0197" lon="3.80711">
        <ele>873.5</ele>
        <time>2022-05-04T08:49:46Z</time>
      </trkpt>
      <trkpt lat="45.0197" lon="3.80709">
        <ele>873.5</ele>
        <time>2022-05-04T08:49:47Z</time>
      </trkpt>
      <trkpt lat="45.01967" lon="3.80679">
        <ele>873.01</ele>
        <time>2022-05-04T08:50:05Z</time>
      </trkpt>
      <trkpt lat="45.01965" lon="3.8066">
        <ele>873.01</ele>
        <time>2022-05-04T08:50:20Z</time>
      </trkpt>
      <trkpt lat="45.01965" lon="3.80627">
        <ele>873.98</ele>
        <time>2022-05-04T08:50:40Z</time>
      </trkpt>
      <trkpt lat="45.01951" lon="3.80603">
        <ele>875.42</ele>
        <time>2022-05-04T08:51:00Z</time>
      </trkpt>
      <trkpt lat="45.0193" lon="3.80586">
        <ele>876.86</ele>
        <time>2022-05-04T08:51:21Z</time>
      </trkpt>
      <trkpt lat="45.01917" lon="3.80573">
        <ele>877.82</ele>
        <time>2022-05-04T08:51:36Z</time>
      </trkpt>
      <trkpt lat="45.019" lon="3.80558">
        <ele>879.26</ele>
        <time>2022-05-04T08:51:56Z</time>
      </trkpt>
      <trkpt lat="45.01898" lon="3.80557">
        <ele>879.26</ele>
        <time>2022-05-04T08:51:58Z</time>
      </trkpt>
      <trkpt lat="45.01897" lon="3.80556">
        <ele>879.26</ele>
        <time>2022-05-04T08:51:59Z</time>
      </trkpt>
      <trkpt lat="45.01891" lon="3.8055">
        <ele>879.74</ele>
        <time>2022-05-04T08:52:11Z</time>
      </trkpt>
      <trkpt lat="45.01889" lon="3.80549">
        <ele>880.22</ele>
        <time>2022-05-04T08:52:13Z</time>
      </trkpt>
      <trkpt lat="45.0188" lon="3.80543">
        <ele>880.22</ele>
        <time>2022-05-04T08:52:25Z</time>
      </trkpt>
      <trkpt lat="45.01879" lon="3.80542">
        <ele>880.22</ele>
        <time>2022-05-04T08:52:27Z</time>
      </trkpt>
      <trkpt lat="45.01878" lon="3.80541">
        <ele>880.22</ele>
        <time>2022-05-04T08:52:28Z</time>
      </trkpt>
      <trkpt lat="45.01862" lon="3.80528">
        <ele>880.71</ele>
        <time>2022-05-04T08:52:46Z</time>
      </trkpt>
      <trkpt lat="45.01842" lon="3.80513">
        <ele>882.15</ele>
        <time>2022-05-04T08:53:08Z</time>
      </trkpt>
      <trkpt lat="45.01834" lon="3.80506">
        <ele>882.63</ele>
        <time>2022-05-04T08:53:27Z</time>
      </trkpt>
      <trkpt lat="45.01832" lon="3.80505">
        <ele>882.63</ele>
        <time>2022-05-04T08:53:44Z</time>
      </trkpt>
      <trkpt lat="45.01832" lon="3.80505">
        <ele>882.63</ele>
        <time>2022-05-04T08:54:24Z</time>
      </trkpt>
      <trkpt lat="45.01831" lon="3.80505">
        <ele>883.11</ele>
        <time>2022-05-04T08:54:55Z</time>
      </trkpt>
      <trkpt lat="45.01832" lon="3.80505">
        <ele>882.63</ele>
        <time>2022-05-04T08:55:23Z</time>
      </trkpt>
      <trkpt lat="45.01832" lon="3.80505">
        <ele>882.63</ele>
        <time>2022-05-04T08:55:56Z</time>
      </trkpt>
      <trkpt lat="45.01828" lon="3.80502">
        <ele>882.63</ele>
        <time>2022-05-04T08:56:16Z</time>
      </trkpt>
      <trkpt lat="45.01812" lon="3.80489">
        <ele>883.59</ele>
        <time>2022-05-04T08:56:38Z</time>
      </trkpt>
      <trkpt lat="45.01794" lon="3.80474">
        <ele>884.55</ele>
        <time>2022-05-04T08:57:01Z</time>
      </trkpt>
      <trkpt lat="45.01777" lon="3.80454">
        <ele>885.99</ele>
        <time>2022-05-04T08:57:24Z</time>
      </trkpt>
      <trkpt lat="45.01763" lon="3.80433">
        <ele>886.47</ele>
        <time>2022-05-04T08:57:46Z</time>
      </trkpt>
      <trkpt lat="45.01749" lon="3.8041">
        <ele>887.43</ele>
        <time>2022-05-04T08:58:07Z</time>
      </trkpt>
      <trkpt lat="45.01733" lon="3.8038">
        <ele>887.91</ele>
        <time>2022-05-04T08:58:33Z</time>
      </trkpt>
      <trkpt lat="45.01719" lon="3.80351">
        <ele>888.88</ele>
        <time>2022-05-04T08:58:56Z</time>
      </trkpt>
      <trkpt lat="45.01703" lon="3.80323">
        <ele>889.84</ele>
        <time>2022-05-04T08:59:21Z</time>
      </trkpt>
      <trkpt lat="45.01689" lon="3.80293">
        <ele>890.32</ele>
        <time>2022-05-04T08:59:45Z</time>
      </trkpt>
      <trkpt lat="45.01672" lon="3.80265">
        <ele>890.8</ele>
        <time>2022-05-04T09:00:10Z</time>
      </trkpt>
      <trkpt lat="45.0165" lon="3.80244">
        <ele>891.28</ele>
        <time>2022-05-04T09:00:35Z</time>
      </trkpt>
      <trkpt lat="45.01632" lon="3.80219">
        <ele>891.28</ele>
        <time>2022-05-04T09:00:58Z</time>
      </trkpt>
      <trkpt lat="45.01613" lon="3.80193">
        <ele>891.28</ele>
        <time>2022-05-04T09:01:23Z</time>
      </trkpt>
      <trkpt lat="45.01597" lon="3.80168">
        <ele>891.28</ele>
        <time>2022-05-04T09:01:46Z</time>
      </trkpt>
      <trkpt lat="45.01581" lon="3.80144">
        <ele>891.76</ele>
        <time>2022-05-04T09:02:08Z</time>
      </trkpt>
      <trkpt lat="45.01562" lon="3.8012">
        <ele>892.24</ele>
        <time>2022-05-04T09:02:31Z</time>
      </trkpt>
      <trkpt lat="45.01542" lon="3.80094">
        <ele>892.24</ele>
        <time>2022-05-04T09:02:56Z</time>
      </trkpt>
      <trkpt lat="45.01519" lon="3.80064">
        <ele>892.72</ele>
        <time>2022-05-04T09:03:24Z</time>
      </trkpt>
      <trkpt lat="45.01503" lon="3.80037">
        <ele>893.2</ele>
        <time>2022-05-04T09:03:47Z</time>
      </trkpt>
      <trkpt lat="45.01487" lon="3.80003">
        <ele>894.16</ele>
        <time>2022-05-04T09:04:13Z</time>
      </trkpt>
      <trkpt lat="45.01473" lon="3.79979">
        <ele>895.12</ele>
        <time>2022-05-04T09:04:34Z</time>
      </trkpt>
      <trkpt lat="45.01449" lon="3.79946">
        <ele>896.09</ele>
        <time>2022-05-04T09:05:05Z</time>
      </trkpt>
      <trkpt lat="45.01429" lon="3.79929">
        <ele>897.05</ele>
        <time>2022-05-04T09:05:31Z</time>
      </trkpt>
      <trkpt lat="45.01427" lon="3.79927">
        <ele>897.05</ele>
        <time>2022-05-04T09:05:35Z</time>
      </trkpt>
      <trkpt lat="45.01426" lon="3.79926">
        <ele>897.05</ele>
        <time>2022-05-04T09:05:36Z</time>
      </trkpt>
      <trkpt lat="45.01425" lon="3.79926">
        <ele>897.05</ele>
        <time>2022-05-04T09:05:37Z</time>
      </trkpt>
      <trkpt lat="45.01424" lon="3.79926">
        <ele>897.05</ele>
        <time>2022-05-04T09:05:38Z</time>
      </trkpt>
      <trkpt lat="45.01406" lon="3.79927">
        <ele>897.05</ele>
        <time>2022-05-04T09:05:59Z</time>
      </trkpt>
      <trkpt lat="45.01405" lon="3.79927">
        <ele>897.05</ele>
        <time>2022-05-04T09:06:22Z</time>
      </trkpt>
      <trkpt lat="45.01405" lon="3.79927">
        <ele>897.05</ele>
        <time>2022-05-04T09:06:59Z</time>
      </trkpt>
      <trkpt lat="45.01408" lon="3.79927">
        <ele>897.05</ele>
        <time>2022-05-04T09:07:28Z</time>
      </trkpt>
      <trkpt lat="45.01413" lon="3.79925">
        <ele>897.05</ele>
        <time>2022-05-04T09:07:34Z</time>
      </trkpt>
      <trkpt lat="45.01427" lon="3.79913">
        <ele>897.05</ele>
        <time>2022-05-04T09:07:55Z</time>
      </trkpt>
      <trkpt lat="45.01427" lon="3.7991">
        <ele>897.05</ele>
        <time>2022-05-04T09:08:12Z</time>
      </trkpt>
      <trkpt lat="45.01427" lon="3.7991">
        <ele>898.01</ele>
        <time>2022-05-04T09:08:44Z</time>
      </trkpt>
      <trkpt lat="45.01427" lon="3.7991">
        <ele>898.01</ele>
        <time>2022-05-04T09:09:14Z</time>
      </trkpt>
      <trkpt lat="45.01428" lon="3.79908">
        <ele>898.01</ele>
        <time>2022-05-04T09:09:25Z</time>
      </trkpt>
      <trkpt lat="45.01429" lon="3.79905">
        <ele>898.01</ele>
        <time>2022-05-04T09:09:27Z</time>
      </trkpt>
      <trkpt lat="45.01429" lon="3.79903">
        <ele>898.01</ele>
        <time>2022-05-04T09:09:28Z</time>
      </trkpt>
      <trkpt lat="45.01429" lon="3.79902">
        <ele>898.01</ele>
        <time>2022-05-04T09:09:29Z</time>
      </trkpt>
      <trkpt lat="45.01429" lon="3.799">
        <ele>898.01</ele>
        <time>2022-05-04T09:09:30Z</time>
      </trkpt>
      <trkpt lat="45.01427" lon="3.79874">
        <ele>898.97</ele>
        <time>2022-05-04T09:09:48Z</time>
      </trkpt>
      <trkpt lat="45.01425" lon="3.7985">
        <ele>900.41</ele>
        <time>2022-05-04T09:10:08Z</time>
      </trkpt>
      <trkpt lat="45.01424" lon="3.79847">
        <ele>900.89</ele>
        <time>2022-05-04T09:10:11Z</time>
      </trkpt>
      <trkpt lat="45.01424" lon="3.79845">
        <ele>900.89</ele>
        <time>2022-05-04T09:10:12Z</time>
      </trkpt>
      <trkpt lat="45.01424" lon="3.79844">
        <ele>900.89</ele>
        <time>2022-05-04T09:10:13Z</time>
      </trkpt>
      <trkpt lat="45.01424" lon="3.79842">
        <ele>900.89</ele>
        <time>2022-05-04T09:10:14Z</time>
      </trkpt>
      <trkpt lat="45.01424" lon="3.7984">
        <ele>900.89</ele>
        <time>2022-05-04T09:10:15Z</time>
      </trkpt>
      <trkpt lat="45.01423" lon="3.79824">
        <ele>901.37</ele>
        <time>2022-05-04T09:10:27Z</time>
      </trkpt>
      <trkpt lat="45.01424" lon="3.79822">
        <ele>901.37</ele>
        <time>2022-05-04T09:10:28Z</time>
      </trkpt>
      <trkpt lat="45.01424" lon="3.79821">
        <ele>901.37</ele>
        <time>2022-05-04T09:10:29Z</time>
      </trkpt>
      <trkpt lat="45.01423" lon="3.79786">
        <ele>902.33</ele>
        <time>2022-05-04T09:10:53Z</time>
      </trkpt>
      <trkpt lat="45.0142" lon="3.79751">
        <ele>903.3</ele>
        <time>2022-05-04T09:11:16Z</time>
      </trkpt>
      <trkpt lat="45.01414" lon="3.79725">
        <ele>904.26</ele>
        <time>2022-05-04T09:11:35Z</time>
      </trkpt>
      <trkpt lat="45.01404" lon="3.79695">
        <ele>905.7</ele>
        <time>2022-05-04T09:11:57Z</time>
      </trkpt>
      <trkpt lat="45.01399" lon="3.79663">
        <ele>906.66</ele>
        <time>2022-05-04T09:12:19Z</time>
      </trkpt>
      <trkpt lat="45.01404" lon="3.79625">
        <ele>907.62</ele>
        <time>2022-05-04T09:12:44Z</time>
      </trkpt>
      <trkpt lat="45.01406" lon="3.79608">
        <ele>908.58</ele>
        <time>2022-05-04T09:12:56Z</time>
      </trkpt>
      <trkpt lat="45.01407" lon="3.79593">
        <ele>908.58</ele>
        <time>2022-05-04T09:13:08Z</time>
      </trkpt>
      <trkpt lat="45.01407" lon="3.79591">
        <ele>909.06</ele>
        <time>2022-05-04T09:13:09Z</time>
      </trkpt>
      <trkpt lat="45.01408" lon="3.7959">
        <ele>909.06</ele>
        <time>2022-05-04T09:13:10Z</time>
      </trkpt>
      <trkpt lat="45.01408" lon="3.79588">
        <ele>909.06</ele>
        <time>2022-05-04T09:13:11Z</time>
      </trkpt>
      <trkpt lat="45.01408" lon="3.79587">
        <ele>909.06</ele>
        <time>2022-05-04T09:13:12Z</time>
      </trkpt>
      <trkpt lat="45.01407" lon="3.79553">
        <ele>910.03</ele>
        <time>2022-05-04T09:13:34Z</time>
      </trkpt>
      <trkpt lat="45.01403" lon="3.79527">
        <ele>910.99</ele>
        <time>2022-05-04T09:13:53Z</time>
      </trkpt>
      <trkpt lat="45.01399" lon="3.79493">
        <ele>912.43</ele>
        <time>2022-05-04T09:14:17Z</time>
      </trkpt>
      <trkpt lat="45.0139" lon="3.79463">
        <ele>913.39</ele>
        <time>2022-05-04T09:14:39Z</time>
      </trkpt>
      <trkpt lat="45.01374" lon="3.79435">
        <ele>914.35</ele>
        <time>2022-05-04T09:15:02Z</time>
      </trkpt>
      <trkpt lat="45.01356" lon="3.79404">
        <ele>915.31</ele>
        <time>2022-05-04T09:15:28Z</time>
      </trkpt>
      <trkpt lat="45.0134" lon="3.79379">
        <ele>916.27</ele>
        <time>2022-05-04T09:15:51Z</time>
      </trkpt>
      <trkpt lat="45.01335" lon="3.79372">
        <ele>916.75</ele>
        <time>2022-05-04T09:16:05Z</time>
      </trkpt>
      <trkpt lat="45.01335" lon="3.79371">
        <ele>916.75</ele>
        <time>2022-05-04T09:16:20Z</time>
      </trkpt>
      <trkpt lat="45.01336" lon="3.7937">
        <ele>916.75</ele>
        <time>2022-05-04T09:16:37Z</time>
      </trkpt>
      <trkpt lat="45.01335" lon="3.7937">
        <ele>916.75</ele>
        <time>2022-05-04T09:16:53Z</time>
      </trkpt>
      <trkpt lat="45.01335" lon="3.79369">
        <ele>916.27</ele>
        <time>2022-05-04T09:17:28Z</time>
      </trkpt>
      <trkpt lat="45.01325" lon="3.7936">
        <ele>916.27</ele>
        <time>2022-05-04T09:17:44Z</time>
      </trkpt>
      <trkpt lat="45.0132" lon="3.79356">
        <ele>917.24</ele>
        <time>2022-05-04T09:17:59Z</time>
      </trkpt>
      <trkpt lat="45.01316" lon="3.79352">
        <ele>917.72</ele>
        <time>2022-05-04T09:18:18Z</time>
      </trkpt>
      <trkpt lat="45.01306" lon="3.79341">
        <ele>918.2</ele>
        <time>2022-05-04T09:18:37Z</time>
      </trkpt>
      <trkpt lat="45.01288" lon="3.79318">
        <ele>920.12</ele>
        <time>2022-05-04T09:19:01Z</time>
      </trkpt>
      <trkpt lat="45.01275" lon="3.79296">
        <ele>921.56</ele>
        <time>2022-05-04T09:19:22Z</time>
      </trkpt>
      <trkpt lat="45.01262" lon="3.79273">
        <ele>923.96</ele>
        <time>2022-05-04T09:19:44Z</time>
      </trkpt>
      <trkpt lat="45.01248" lon="3.79252">
        <ele>925.89</ele>
        <time>2022-05-04T09:20:06Z</time>
      </trkpt>
      <trkpt lat="45.01235" lon="3.79228">
        <ele>927.81</ele>
        <time>2022-05-04T09:20:29Z</time>
      </trkpt>
      <trkpt lat="45.01233" lon="3.79224">
        <ele>928.77</ele>
        <time>2022-05-04T09:20:37Z</time>
      </trkpt>
      <trkpt lat="45.01232" lon="3.79223">
        <ele>928.77</ele>
        <time>2022-05-04T09:20:38Z</time>
      </trkpt>
      <trkpt lat="45.01232" lon="3.79221">
        <ele>928.77</ele>
        <time>2022-05-04T09:20:39Z</time>
      </trkpt>
      <trkpt lat="45.01219" lon="3.79186">
        <ele>930.21</ele>
        <time>2022-05-04T09:21:06Z</time>
      </trkpt>
      <trkpt lat="45.0121" lon="3.79161">
        <ele>931.17</ele>
        <time>2022-05-04T09:21:27Z</time>
      </trkpt>
      <trkpt lat="45.01204" lon="3.79143">
        <ele>931.65</ele>
        <time>2022-05-04T09:21:45Z</time>
      </trkpt>
      <trkpt lat="45.01204" lon="3.7914">
        <ele>931.65</ele>
        <time>2022-05-04T09:21:55Z</time>
      </trkpt>
      <trkpt lat="45.01202" lon="3.79136">
        <ele>932.14</ele>
        <time>2022-05-04T09:21:58Z</time>
      </trkpt>
      <trkpt lat="45.01202" lon="3.79135">
        <ele>932.14</ele>
        <time>2022-05-04T09:21:59Z</time>
      </trkpt>
      <trkpt lat="45.01201" lon="3.79134">
        <ele>932.14</ele>
        <time>2022-05-04T09:22:00Z</time>
      </trkpt>
      <trkpt lat="45.01188" lon="3.791">
        <ele>933.58</ele>
        <time>2022-05-04T09:22:25Z</time>
      </trkpt>
      <trkpt lat="45.01175" lon="3.79076">
        <ele>934.06</ele>
        <time>2022-05-04T09:22:44Z</time>
      </trkpt>
      <trkpt lat="45.01162" lon="3.79049">
        <ele>935.02</ele>
        <time>2022-05-04T09:23:05Z</time>
      </trkpt>
      <trkpt lat="45.01155" lon="3.79013">
        <ele>935.02</ele>
        <time>2022-05-04T09:23:29Z</time>
      </trkpt>
      <trkpt lat="45.01153" lon="3.78989">
        <ele>935.5</ele>
        <time>2022-05-04T09:23:46Z</time>
      </trkpt>
      <trkpt lat="45.01152" lon="3.78958">
        <ele>935.98</ele>
        <time>2022-05-04T09:24:06Z</time>
      </trkpt>
      <trkpt lat="45.01151" lon="3.78925">
        <ele>936.46</ele>
        <time>2022-05-04T09:24:28Z</time>
      </trkpt>
      <trkpt lat="45.0115" lon="3.78902">
        <ele>937.42</ele>
        <time>2022-05-04T09:24:49Z</time>
      </trkpt>
      <trkpt lat="45.0115" lon="3.789">
        <ele>937.42</ele>
        <time>2022-05-04T09:24:50Z</time>
      </trkpt>
      <trkpt lat="45.0115" lon="3.78899">
        <ele>937.42</ele>
        <time>2022-05-04T09:24:51Z</time>
      </trkpt>
      <trkpt lat="45.0115" lon="3.78866">
        <ele>937.9</ele>
        <time>2022-05-04T09:25:12Z</time>
      </trkpt>
      <trkpt lat="45.01149" lon="3.78835">
        <ele>938.38</ele>
        <time>2022-05-04T09:25:33Z</time>
      </trkpt>
      <trkpt lat="45.01147" lon="3.78807">
        <ele>938.86</ele>
        <time>2022-05-04T09:25:53Z</time>
      </trkpt>
      <trkpt lat="45.01148" lon="3.78785">
        <ele>939.35</ele>
        <time>2022-05-04T09:26:12Z</time>
      </trkpt>
      <trkpt lat="45.0115" lon="3.7878">
        <ele>939.35</ele>
        <time>2022-05-04T09:26:30Z</time>
      </trkpt>
      <trkpt lat="45.01151" lon="3.78775">
        <ele>939.35</ele>
        <time>2022-05-04T09:26:35Z</time>
      </trkpt>
      <trkpt lat="45.01151" lon="3.78773">
        <ele>939.35</ele>
        <time>2022-05-04T09:26:36Z</time>
      </trkpt>
      <trkpt lat="45.01151" lon="3.78772">
        <ele>939.35</ele>
        <time>2022-05-04T09:26:37Z</time>
      </trkpt>
      <trkpt lat="45.01151" lon="3.7877">
        <ele>939.35</ele>
        <time>2022-05-04T09:26:38Z</time>
      </trkpt>
      <trkpt lat="45.01151" lon="3.78768">
        <ele>939.35</ele>
        <time>2022-05-04T09:26:39Z</time>
      </trkpt>
      <trkpt lat="45.01148" lon="3.78746">
        <ele>939.83</ele>
        <time>2022-05-04T09:26:56Z</time>
      </trkpt>
      <trkpt lat="45.01144" lon="3.78711">
        <ele>939.83</ele>
        <time>2022-05-04T09:27:19Z</time>
      </trkpt>
      <trkpt lat="45.01138" lon="3.7868">
        <ele>940.79</ele>
        <time>2022-05-04T09:27:40Z</time>
      </trkpt>
      <trkpt lat="45.01129" lon="3.78652">
        <ele>941.75</ele>
        <time>2022-05-04T09:28:00Z</time>
      </trkpt>
      <trkpt lat="45.01117" lon="3.78624">
        <ele>943.19</ele>
        <time>2022-05-04T09:28:22Z</time>
      </trkpt>
      <trkpt lat="45.01115" lon="3.78614">
        <ele>943.19</ele>
        <time>2022-05-04T09:28:29Z</time>
      </trkpt>
      <trkpt lat="45.01115" lon="3.78613">
        <ele>943.19</ele>
        <time>2022-05-04T09:28:30Z</time>
      </trkpt>
      <trkpt lat="45.01114" lon="3.78611">
        <ele>943.19</ele>
        <time>2022-05-04T09:28:31Z</time>
      </trkpt>
      <trkpt lat="45.01114" lon="3.7861">
        <ele>943.19</ele>
        <time>2022-05-04T09:28:32Z</time>
      </trkpt>
      <trkpt lat="45.01114" lon="3.78608">
        <ele>943.19</ele>
        <time>2022-05-04T09:28:33Z</time>
      </trkpt>
      <trkpt lat="45.01096" lon="3.78584">
        <ele>944.15</ele>
        <time>2022-05-04T09:28:54Z</time>
      </trkpt>
      <trkpt lat="45.01077" lon="3.78556">
        <ele>945.11</ele>
        <time>2022-05-04T09:29:19Z</time>
      </trkpt>
      <trkpt lat="45.01064" lon="3.78538">
        <ele>946.07</ele>
        <time>2022-05-04T09:29:38Z</time>
      </trkpt>
      <trkpt lat="45.01053" lon="3.78513">
        <ele>947.52</ele>
        <time>2022-05-04T09:29:58Z</time>
      </trkpt>
      <trkpt lat="45.01051" lon="3.78477">
        <ele>948.96</ele>
        <time>2022-05-04T09:30:21Z</time>
      </trkpt>
      <trkpt lat="45.01048" lon="3.78442">
        <ele>949.92</ele>
        <time>2022-05-04T09:30:44Z</time>
      </trkpt>
      <trkpt lat="45.01044" lon="3.78403">
        <ele>950.88</ele>
        <time>2022-05-04T09:31:10Z</time>
      </trkpt>
      <trkpt lat="45.01042" lon="3.78367">
        <ele>952.32</ele>
        <time>2022-05-04T09:31:35Z</time>
      </trkpt>
      <trkpt lat="45.01038" lon="3.7833">
        <ele>953.77</ele>
        <time>2022-05-04T09:32:00Z</time>
      </trkpt>
      <trkpt lat="45.01035" lon="3.78293">
        <ele>954.73</ele>
        <time>2022-05-04T09:32:25Z</time>
      </trkpt>
      <trkpt lat="45.01032" lon="3.78256">
        <ele>955.69</ele>
        <time>2022-05-04T09:32:49Z</time>
      </trkpt>
      <trkpt lat="45.0103" lon="3.7823">
        <ele>956.17</ele>
        <time>2022-05-04T09:33:08Z</time>
      </trkpt>
      <trkpt lat="45.01027" lon="3.78192">
        <ele>956.65</ele>
        <time>2022-05-04T09:33:32Z</time>
      </trkpt>
      <trkpt lat="45.01025" lon="3.78155">
        <ele>958.09</ele>
        <time>2022-05-04T09:33:56Z</time>
      </trkpt>
      <trkpt lat="45.01022" lon="3.78121">
        <ele>958.57</ele>
        <time>2022-05-04T09:34:19Z</time>
      </trkpt>
      <trkpt lat="45.01019" lon="3.78087">
        <ele>959.05</ele>
        <time>2022-05-04T09:34:42Z</time>
      </trkpt>
      <trkpt lat="45.01013" lon="3.78051">
        <ele>960.01</ele>
        <time>2022-05-04T09:35:06Z</time>
      </trkpt>
      <trkpt lat="45.01006" lon="3.78017">
        <ele>960.49</ele>
        <time>2022-05-04T09:35:28Z</time>
      </trkpt>
      <trkpt lat="45.00999" lon="3.77984">
        <ele>961.46</ele>
        <time>2022-05-04T09:35:50Z</time>
      </trkpt>
      <trkpt lat="45.00993" lon="3.7795">
        <ele>961.94</ele>
        <time>2022-05-04T09:36:13Z</time>
      </trkpt>
      <trkpt lat="45.00987" lon="3.77919">
        <ele>962.42</ele>
        <time>2022-05-04T09:36:34Z</time>
      </trkpt>
      <trkpt lat="45.00983" lon="3.77915">
        <ele>962.9</ele>
        <time>2022-05-04T09:36:44Z</time>
      </trkpt>
      <trkpt lat="45.00982" lon="3.77915">
        <ele>962.9</ele>
        <time>2022-05-04T09:36:45Z</time>
      </trkpt>
      <trkpt lat="45.00981" lon="3.77914">
        <ele>962.9</ele>
        <time>2022-05-04T09:36:46Z</time>
      </trkpt>
      <trkpt lat="45.00973" lon="3.77891">
        <ele>962.9</ele>
        <time>2022-05-04T09:37:04Z</time>
      </trkpt>
      <trkpt lat="45.0097" lon="3.77871">
        <ele>964.34</ele>
        <time>2022-05-04T09:37:23Z</time>
      </trkpt>
      <trkpt lat="45.00972" lon="3.77869">
        <ele>963.86</ele>
        <time>2022-05-04T09:37:25Z</time>
      </trkpt>
      <trkpt lat="45.00973" lon="3.77868">
        <ele>963.86</ele>
        <time>2022-05-04T09:37:26Z</time>
      </trkpt>
      <trkpt lat="45.00974" lon="3.77866">
        <ele>963.86</ele>
        <time>2022-05-04T09:37:27Z</time>
      </trkpt>
      <trkpt lat="45.00975" lon="3.77865">
        <ele>963.86</ele>
        <time>2022-05-04T09:37:28Z</time>
      </trkpt>
      <trkpt lat="45.00976" lon="3.77863">
        <ele>963.86</ele>
        <time>2022-05-04T09:37:29Z</time>
      </trkpt>
      <trkpt lat="45.00977" lon="3.77861">
        <ele>963.86</ele>
        <time>2022-05-04T09:37:30Z</time>
      </trkpt>
      <trkpt lat="45.00978" lon="3.77859">
        <ele>963.86</ele>
        <time>2022-05-04T09:37:31Z</time>
      </trkpt>
      <trkpt lat="45.00979" lon="3.77858">
        <ele>963.86</ele>
        <time>2022-05-04T09:37:32Z</time>
      </trkpt>
      <trkpt lat="45.00979" lon="3.77857">
        <ele>963.86</ele>
        <time>2022-05-04T09:37:33Z</time>
      </trkpt>
      <trkpt lat="45.00984" lon="3.77848">
        <ele>963.38</ele>
        <time>2022-05-04T09:37:39Z</time>
      </trkpt>
      <trkpt lat="45.00987" lon="3.77842">
        <ele>964.82</ele>
        <time>2022-05-04T09:37:55Z</time>
      </trkpt>
      <trkpt lat="45.00986" lon="3.77845">
        <ele>964.82</ele>
        <time>2022-05-04T09:38:34Z</time>
      </trkpt>
      <trkpt lat="45.00991" lon="3.77838">
        <ele>964.82</ele>
        <time>2022-05-04T09:38:53Z</time>
      </trkpt>
      <trkpt lat="45.00991" lon="3.77833">
        <ele>964.82</ele>
        <time>2022-05-04T09:39:04Z</time>
      </trkpt>
      <trkpt lat="45.00986" lon="3.77841">
        <ele>964.82</ele>
        <time>2022-05-04T09:39:16Z</time>
      </trkpt>
      <trkpt lat="45.00986" lon="3.77843">
        <ele>964.82</ele>
        <time>2022-05-04T09:39:18Z</time>
      </trkpt>
      <trkpt lat="45.00984" lon="3.77846">
        <ele>964.34</ele>
        <time>2022-05-04T09:39:20Z</time>
      </trkpt>
      <trkpt lat="45.00983" lon="3.77848">
        <ele>964.34</ele>
        <time>2022-05-04T09:39:21Z</time>
      </trkpt>
      <trkpt lat="45.00981" lon="3.77849">
        <ele>963.86</ele>
        <time>2022-05-04T09:39:22Z</time>
      </trkpt>
      <trkpt lat="45.0098" lon="3.77851">
        <ele>963.86</ele>
        <time>2022-05-04T09:39:23Z</time>
      </trkpt>
      <trkpt lat="45.00976" lon="3.77853">
        <ele>963.86</ele>
        <time>2022-05-04T09:39:29Z</time>
      </trkpt>
      <trkpt lat="45.00974" lon="3.77853">
        <ele>964.34</ele>
        <time>2022-05-04T09:39:30Z</time>
      </trkpt>
      <trkpt lat="45.00973" lon="3.77853">
        <ele>964.34</ele>
        <time>2022-05-04T09:39:31Z</time>
      </trkpt>
      <trkpt lat="45.00972" lon="3.77853">
        <ele>964.34</ele>
        <time>2022-05-04T09:39:32Z</time>
      </trkpt>
      <trkpt lat="45.00969" lon="3.77855">
        <ele>963.86</ele>
        <time>2022-05-04T09:39:49Z</time>
      </trkpt>
      <trkpt lat="45.00968" lon="3.7785">
        <ele>963.86</ele>
        <time>2022-05-04T09:40:00Z</time>
      </trkpt>
      <trkpt lat="45.00967" lon="3.77848">
        <ele>963.86</ele>
        <time>2022-05-04T09:40:14Z</time>
      </trkpt>
      <trkpt lat="45.00968" lon="3.77848">
        <ele>963.86</ele>
        <time>2022-05-04T09:40:36Z</time>
      </trkpt>
      <trkpt lat="45.00968" lon="3.77848">
        <ele>961.94</ele>
        <time>2022-05-04T09:40:48Z</time>
      </trkpt>
      <trkpt lat="45.00968" lon="3.77848">
        <ele>964.82</ele>
        <time>2022-05-04T09:40:55Z</time>
      </trkpt>
      <trkpt lat="45.00968" lon="3.77848">
        <ele>965.78</ele>
        <time>2022-05-04T09:40:57Z</time>
      </trkpt>
      <trkpt lat="45.00968" lon="3.77848">
        <ele>964.34</ele>
        <time>2022-05-04T09:41:00Z</time>
      </trkpt>
      <trkpt lat="45.00967" lon="3.77846">
        <ele>964.34</ele>
        <time>2022-05-04T09:41:23Z</time>
      </trkpt>
      <trkpt lat="45.00968" lon="3.77846">
        <ele>964.34</ele>
        <time>2022-05-04T09:41:42Z</time>
      </trkpt>
      <trkpt lat="45.00968" lon="3.77846">
        <ele>964.34</ele>
        <time>2022-05-04T09:41:57Z</time>
      </trkpt>
      <trkpt lat="45.00967" lon="3.77839">
        <ele>963.38</ele>
        <time>2022-05-04T09:42:07Z</time>
      </trkpt>
      <trkpt lat="45.00966" lon="3.77837">
        <ele>963.38</ele>
        <time>2022-05-04T09:42:08Z</time>
      </trkpt>
      <trkpt lat="45.00966" lon="3.77836">
        <ele>963.38</ele>
        <time>2022-05-04T09:42:09Z</time>
      </trkpt>
      <trkpt lat="45.00966" lon="3.77834">
        <ele>963.38</ele>
        <time>2022-05-04T09:42:10Z</time>
      </trkpt>
      <trkpt lat="45.00962" lon="3.778">
        <ele>964.82</ele>
        <time>2022-05-04T09:42:33Z</time>
      </trkpt>
      <trkpt lat="45.00954" lon="3.77765">
        <ele>966.26</ele>
        <time>2022-05-04T09:42:58Z</time>
      </trkpt>
      <trkpt lat="45.00947" lon="3.7773">
        <ele>967.7</ele>
        <time>2022-05-04T09:43:23Z</time>
      </trkpt>
      <trkpt lat="45.0094" lon="3.77702">
        <ele>968.67</ele>
        <time>2022-05-04T09:43:46Z</time>
      </trkpt>
      <trkpt lat="45.0094" lon="3.77702">
        <ele>969.15</ele>
        <time>2022-05-04T09:43:57Z</time>
      </trkpt>
      <trkpt lat="45.00942" lon="3.777">
        <ele>969.15</ele>
        <time>2022-05-04T09:43:59Z</time>
      </trkpt>
      <trkpt lat="45.00943" lon="3.77699">
        <ele>969.15</ele>
        <time>2022-05-04T09:44:00Z</time>
      </trkpt>
      <trkpt lat="45.00944" lon="3.77698">
        <ele>969.15</ele>
        <time>2022-05-04T09:44:01Z</time>
      </trkpt>
      <trkpt lat="45.00945" lon="3.77697">
        <ele>969.15</ele>
        <time>2022-05-04T09:44:02Z</time>
      </trkpt>
      <trkpt lat="45.00945" lon="3.77696">
        <ele>969.15</ele>
        <time>2022-05-04T09:44:03Z</time>
      </trkpt>
      <trkpt lat="45.00945" lon="3.77692">
        <ele>969.15</ele>
        <time>2022-05-04T09:44:06Z</time>
      </trkpt>
      <trkpt lat="45.00942" lon="3.77662">
        <ele>969.63</ele>
        <time>2022-05-04T09:44:29Z</time>
      </trkpt>
      <trkpt lat="45.00947" lon="3.77648">
        <ele>970.59</ele>
        <time>2022-05-04T09:44:41Z</time>
      </trkpt>
      <trkpt lat="45.00958" lon="3.77627">
        <ele>971.07</ele>
        <time>2022-05-04T09:45:01Z</time>
      </trkpt>
      <trkpt lat="45.00959" lon="3.77625">
        <ele>971.07</ele>
        <time>2022-05-04T09:45:16Z</time>
      </trkpt>
      <trkpt lat="45.00962" lon="3.77614">
        <ele>971.07</ele>
        <time>2022-05-04T09:45:41Z</time>
      </trkpt>
      <trkpt lat="45.0097" lon="3.77594">
        <ele>972.03</ele>
        <time>2022-05-04T09:46:00Z</time>
      </trkpt>
      <trkpt lat="45.00975" lon="3.77578">
        <ele>972.51</ele>
        <time>2022-05-04T09:46:12Z</time>
      </trkpt>
      <trkpt lat="45.00976" lon="3.77577">
        <ele>972.51</ele>
        <time>2022-05-04T09:46:13Z</time>
      </trkpt>
      <trkpt lat="45.00988" lon="3.77549">
        <ele>972.99</ele>
        <time>2022-05-04T09:46:34Z</time>
      </trkpt>
      <trkpt lat="45.00986" lon="3.77525">
        <ele>974.43</ele>
        <time>2022-05-04T09:46:53Z</time>
      </trkpt>
      <trkpt lat="45.00984" lon="3.77522">
        <ele>974.43</ele>
        <time>2022-05-04T09:46:56Z</time>
      </trkpt>
      <trkpt lat="45.00982" lon="3.77508">
        <ele>975.39</ele>
        <time>2022-05-04T09:47:12Z</time>
      </trkpt>
      <trkpt lat="45.00982" lon="3.77492">
        <ele>975.39</ele>
        <time>2022-05-04T09:47:27Z</time>
      </trkpt>
      <trkpt lat="45.00989" lon="3.77486">
        <ele>975.39</ele>
        <time>2022-05-04T09:47:42Z</time>
      </trkpt>
      <trkpt lat="45.00984" lon="3.77477">
        <ele>975.39</ele>
        <time>2022-05-04T09:47:57Z</time>
      </trkpt>
      <trkpt lat="45.00983" lon="3.77475">
        <ele>975.39</ele>
        <time>2022-05-04T09:48:26Z</time>
      </trkpt>
      <trkpt lat="45.00987" lon="3.77476">
        <ele>975.39</ele>
        <time>2022-05-04T09:48:50Z</time>
      </trkpt>
      <trkpt lat="45.00995" lon="3.7748">
        <ele>974.91</ele>
        <time>2022-05-04T09:49:10Z</time>
      </trkpt>
      <trkpt lat="45.00995" lon="3.7748">
        <ele>974.91</ele>
        <time>2022-05-04T09:49:33Z</time>
      </trkpt>
      <trkpt lat="45.00994" lon="3.77479">
        <ele>975.39</ele>
        <time>2022-05-04T09:50:08Z</time>
      </trkpt>
      <trkpt lat="45.00994" lon="3.77476">
        <ele>975.39</ele>
        <time>2022-05-04T09:50:46Z</time>
      </trkpt>
      <trkpt lat="45.00994" lon="3.77478">
        <ele>975.39</ele>
        <time>2022-05-04T09:51:22Z</time>
      </trkpt>
      <trkpt lat="45.00994" lon="3.77478">
        <ele>975.39</ele>
        <time>2022-05-04T09:52:04Z</time>
      </trkpt>
      <trkpt lat="45.00997" lon="3.77472">
        <ele>975.39</ele>
        <time>2022-05-04T09:52:26Z</time>
      </trkpt>
      <trkpt lat="45.00996" lon="3.77472">
        <ele>970.59</ele>
        <time>2022-05-04T09:52:39Z</time>
      </trkpt>
      <trkpt lat="45.00996" lon="3.77472">
        <ele>967.7</ele>
        <time>2022-05-04T09:52:44Z</time>
      </trkpt>
      <trkpt lat="45.00996" lon="3.77472">
        <ele>971.55</ele>
        <time>2022-05-04T09:52:48Z</time>
      </trkpt>
      <trkpt lat="45.00996" lon="3.77472">
        <ele>975.88</ele>
        <time>2022-05-04T09:52:50Z</time>
      </trkpt>
      <trkpt lat="45.00996" lon="3.77472">
        <ele>976.84</ele>
        <time>2022-05-04T09:52:52Z</time>
      </trkpt>
      <trkpt lat="45.00996" lon="3.77473">
        <ele>974.91</ele>
        <time>2022-05-04T09:54:07Z</time>
      </trkpt>
      <trkpt lat="45.00996" lon="3.77474">
        <ele>974.91</ele>
        <time>2022-05-04T09:56:49Z</time>
      </trkpt>
      <trkpt lat="45.00996" lon="3.77475">
        <ele>974.91</ele>
        <time>2022-05-04T10:00:05Z</time>
      </trkpt>
      <trkpt lat="45.00996" lon="3.77476">
        <ele>974.91</ele>
        <time>2022-05-04T10:02:42Z</time>
      </trkpt>
      <trkpt lat="45.00995" lon="3.77476">
        <ele>974.91</ele>
        <time>2022-05-04T10:05:09Z</time>
      </trkpt>
      <trkpt lat="45.00995" lon="3.77476">
        <ele>974.91</ele>
        <time>2022-05-04T10:06:08Z</time>
      </trkpt>
      <trkpt lat="45.00995" lon="3.77476">
        <ele>974.91</ele>
        <time>2022-05-04T10:07:20Z</time>
      </trkpt>
      <trkpt lat="45.00997" lon="3.77479">
        <ele>974.91</ele>
        <time>2022-05-04T10:08:04Z</time>
      </trkpt>
      <trkpt lat="45.00998" lon="3.77495">
        <ele>975.88</ele>
        <time>2022-05-04T10:08:18Z</time>
      </trkpt>
      <trkpt lat="45.00999" lon="3.77497">
        <ele>975.88</ele>
        <time>2022-05-04T10:08:20Z</time>
      </trkpt>
      <trkpt lat="45.01" lon="3.77499">
        <ele>975.88</ele>
        <time>2022-05-04T10:08:21Z</time>
      </trkpt>
      <trkpt lat="45.01" lon="3.775">
        <ele>975.88</ele>
        <time>2022-05-04T10:08:22Z</time>
      </trkpt>
      <trkpt lat="45.01002" lon="3.77506">
        <ele>975.39</ele>
        <time>2022-05-04T10:08:26Z</time>
      </trkpt>
      <trkpt lat="45.01003" lon="3.77511">
        <ele>974.43</ele>
        <time>2022-05-04T10:08:42Z</time>
      </trkpt>
      <trkpt lat="45.01003" lon="3.77511">
        <ele>974.91</ele>
        <time>2022-05-04T10:09:02Z</time>
      </trkpt>
      <trkpt lat="45.01004" lon="3.77512">
        <ele>975.39</ele>
        <time>2022-05-04T10:09:16Z</time>
      </trkpt>
      <trkpt lat="45.01003" lon="3.77511">
        <ele>972.03</ele>
        <time>2022-05-04T10:09:24Z</time>
      </trkpt>
      <trkpt lat="45.01003" lon="3.77512">
        <ele>974.43</ele>
        <time>2022-05-04T10:09:41Z</time>
      </trkpt>
      <trkpt lat="45.01003" lon="3.77512">
        <ele>972.51</ele>
        <time>2022-05-04T10:10:31Z</time>
      </trkpt>
      <trkpt lat="45.01003" lon="3.77511">
        <ele>972.99</ele>
        <time>2022-05-04T10:11:28Z</time>
      </trkpt>
      <trkpt lat="45.01002" lon="3.77511">
        <ele>972.99</ele>
        <time>2022-05-04T10:12:48Z</time>
      </trkpt>
      <trkpt lat="45.01002" lon="3.77511">
        <ele>972.99</ele>
        <time>2022-05-04T10:13:54Z</time>
      </trkpt>
      <trkpt lat="45.01002" lon="3.77511">
        <ele>972.99</ele>
        <time>2022-05-04T10:14:55Z</time>
      </trkpt>
      <trkpt lat="45.01002" lon="3.77511">
        <ele>972.99</ele>
        <time>2022-05-04T10:16:33Z</time>
      </trkpt>
      <trkpt lat="45.01001" lon="3.77511">
        <ele>972.99</ele>
        <time>2022-05-04T10:17:46Z</time>
      </trkpt>
      <trkpt lat="45.01001" lon="3.77511">
        <ele>972.99</ele>
        <time>2022-05-04T10:19:21Z</time>
      </trkpt>
      <trkpt lat="45.01001" lon="3.77511">
        <ele>972.99</ele>
        <time>2022-05-04T10:20:44Z</time>
      </trkpt>
      <trkpt lat="45.01001" lon="3.77511">
        <ele>972.99</ele>
        <time>2022-05-04T10:21:36Z</time>
      </trkpt>
      <trkpt lat="45.01" lon="3.7751">
        <ele>972.99</ele>
        <time>2022-05-04T10:22:32Z</time>
      </trkpt>
      <trkpt lat="45.01" lon="3.77511">
        <ele>972.99</ele>
        <time>2022-05-04T10:23:20Z</time>
      </trkpt>
      <trkpt lat="45.01001" lon="3.7751">
        <ele>972.99</ele>
        <time>2022-05-04T10:26:27Z</time>
      </trkpt>
      <trkpt lat="45.01" lon="3.7751">
        <ele>972.99</ele>
        <time>2022-05-04T10:28:15Z</time>
      </trkpt>
      <trkpt lat="45.01" lon="3.7751">
        <ele>972.99</ele>
        <time>2022-05-04T10:28:57Z</time>
      </trkpt>
      <trkpt lat="45.01" lon="3.7751">
        <ele>972.99</ele>
        <time>2022-05-04T10:30:46Z</time>
      </trkpt>
      <trkpt lat="45.01" lon="3.7751">
        <ele>972.99</ele>
        <time>2022-05-04T10:31:36Z</time>
      </trkpt>
      <trkpt lat="45.01" lon="3.7751">
        <ele>972.99</ele>
        <time>2022-05-04T10:33:06Z</time>
      </trkpt>
      <trkpt lat="45.01" lon="3.7751">
        <ele>972.99</ele>
        <time>2022-05-04T10:34:00Z</time>
      </trkpt>
      <trkpt lat="45.01" lon="3.7751">
        <ele>972.99</ele>
        <time>2022-05-04T10:34:53Z</time>
      </trkpt>
      <trkpt lat="45.01" lon="3.7751">
        <ele>975.88</ele>
        <time>2022-05-04T10:35:02Z</time>
      </trkpt>
      <trkpt lat="45.00999" lon="3.7751">
        <ele>978.76</ele>
        <time>2022-05-04T10:35:16Z</time>
      </trkpt>
      <trkpt lat="45.01" lon="3.77511">
        <ele>977.32</ele>
        <time>2022-05-04T10:35:37Z</time>
      </trkpt>
      <trkpt lat="45.01" lon="3.77511">
        <ele>976.84</ele>
        <time>2022-05-04T10:36:29Z</time>
      </trkpt>
      <trkpt lat="45.00999" lon="3.77512">
        <ele>976.84</ele>
        <time>2022-05-04T10:36:52Z</time>
      </trkpt>
      <trkpt lat="45.01001" lon="3.77512">
        <ele>976.36</ele>
        <time>2022-05-04T10:37:39Z</time>
      </trkpt>
      <trkpt lat="45.01001" lon="3.77512">
        <ele>976.36</ele>
        <time>2022-05-04T10:38:05Z</time>
      </trkpt>
      <trkpt lat="45.01" lon="3.77513">
        <ele>976.36</ele>
        <time>2022-05-04T10:38:42Z</time>
      </trkpt>
      <trkpt lat="45.00997" lon="3.775">
        <ele>976.36</ele>
        <time>2022-05-04T10:39:02Z</time>
      </trkpt>
      <trkpt lat="45.00998" lon="3.77491">
        <ele>976.36</ele>
        <time>2022-05-04T10:39:17Z</time>
      </trkpt>
      <trkpt lat="45.01001" lon="3.77484">
        <ele>976.36</ele>
        <time>2022-05-04T10:39:34Z</time>
      </trkpt>
      <trkpt lat="45.01007" lon="3.77486">
        <ele>976.36</ele>
        <time>2022-05-04T10:39:57Z</time>
      </trkpt>
      <trkpt lat="45.01012" lon="3.77482">
        <ele>976.36</ele>
        <time>2022-05-04T10:40:13Z</time>
      </trkpt>
      <trkpt lat="45.01015" lon="3.77461">
        <ele>977.8</ele>
        <time>2022-05-04T10:40:35Z</time>
      </trkpt>
      <trkpt lat="45.01015" lon="3.77444">
        <ele>978.76</ele>
        <time>2022-05-04T10:40:56Z</time>
      </trkpt>
      <trkpt lat="45.01016" lon="3.77432">
        <ele>979.24</ele>
        <time>2022-05-04T10:41:06Z</time>
      </trkpt>
      <trkpt lat="45.01015" lon="3.7743">
        <ele>979.24</ele>
        <time>2022-05-04T10:41:07Z</time>
      </trkpt>
      <trkpt lat="45.01015" lon="3.77414">
        <ele>979.72</ele>
        <time>2022-05-04T10:41:21Z</time>
      </trkpt>
      <trkpt lat="45.01017" lon="3.77387">
        <ele>980.68</ele>
        <time>2022-05-04T10:41:38Z</time>
      </trkpt>
      <trkpt lat="45.01015" lon="3.77375">
        <ele>981.16</ele>
        <time>2022-05-04T10:41:47Z</time>
      </trkpt>
      <trkpt lat="45.01015" lon="3.77372">
        <ele>981.16</ele>
        <time>2022-05-04T10:41:49Z</time>
      </trkpt>
      <trkpt lat="45.01011" lon="3.77347">
        <ele>982.12</ele>
        <time>2022-05-04T10:42:08Z</time>
      </trkpt>
      <trkpt lat="45.01004" lon="3.77313">
        <ele>983.57</ele>
        <time>2022-05-04T10:42:30Z</time>
      </trkpt>
      <trkpt lat="45.01001" lon="3.77282">
        <ele>984.53</ele>
        <time>2022-05-04T10:42:52Z</time>
      </trkpt>
      <trkpt lat="45.01004" lon="3.77247">
        <ele>985.49</ele>
        <time>2022-05-04T10:43:15Z</time>
      </trkpt>
      <trkpt lat="45.01011" lon="3.77213">
        <ele>985.97</ele>
        <time>2022-05-04T10:43:39Z</time>
      </trkpt>
      <trkpt lat="45.01019" lon="3.77176">
        <ele>986.93</ele>
        <time>2022-05-04T10:44:05Z</time>
      </trkpt>
      <trkpt lat="45.01023" lon="3.77145">
        <ele>987.89</ele>
        <time>2022-05-04T10:44:27Z</time>
      </trkpt>
      <trkpt lat="45.01026" lon="3.77106">
        <ele>988.37</ele>
        <time>2022-05-04T10:44:54Z</time>
      </trkpt>
      <trkpt lat="45.01029" lon="3.77073">
        <ele>989.33</ele>
        <time>2022-05-04T10:45:17Z</time>
      </trkpt>
      <trkpt lat="45.01032" lon="3.77035">
        <ele>989.33</ele>
        <time>2022-05-04T10:45:42Z</time>
      </trkpt>
      <trkpt lat="45.01035" lon="3.77002">
        <ele>989.81</ele>
        <time>2022-05-04T10:46:05Z</time>
      </trkpt>
      <trkpt lat="45.01034" lon="3.76977">
        <ele>989.81</ele>
        <time>2022-05-04T10:46:24Z</time>
      </trkpt>
      <trkpt lat="45.01032" lon="3.7694">
        <ele>989.81</ele>
        <time>2022-05-04T10:46:48Z</time>
      </trkpt>
      <trkpt lat="45.01028" lon="3.76904">
        <ele>989.33</ele>
        <time>2022-05-04T10:47:10Z</time>
      </trkpt>
      <trkpt lat="45.01023" lon="3.76871">
        <ele>987.41</ele>
        <time>2022-05-04T10:47:30Z</time>
      </trkpt>
      <trkpt lat="45.01016" lon="3.76838">
        <ele>986.45</ele>
        <time>2022-05-04T10:47:50Z</time>
      </trkpt>
      <trkpt lat="45.01006" lon="3.76801">
        <ele>985.49</ele>
        <time>2022-05-04T10:48:14Z</time>
      </trkpt>
      <trkpt lat="45.00998" lon="3.76766">
        <ele>985.49</ele>
        <time>2022-05-04T10:48:37Z</time>
      </trkpt>
      <trkpt lat="45.0099" lon="3.76737">
        <ele>985.49</ele>
        <time>2022-05-04T10:48:58Z</time>
      </trkpt>
      <trkpt lat="45.00988" lon="3.7673">
        <ele>985.97</ele>
        <time>2022-05-04T10:49:03Z</time>
      </trkpt>
      <trkpt lat="45.00988" lon="3.76729">
        <ele>985.49</ele>
        <time>2022-05-04T10:49:04Z</time>
      </trkpt>
      <trkpt lat="45.00987" lon="3.76728">
        <ele>985.49</ele>
        <time>2022-05-04T10:49:05Z</time>
      </trkpt>
      <trkpt lat="45.00987" lon="3.76726">
        <ele>985.49</ele>
        <time>2022-05-04T10:49:06Z</time>
      </trkpt>
      <trkpt lat="45.00987" lon="3.76724">
        <ele>985.49</ele>
        <time>2022-05-04T10:49:07Z</time>
      </trkpt>
      <trkpt lat="45.00977" lon="3.76694">
        <ele>985.97</ele>
        <time>2022-05-04T10:49:28Z</time>
      </trkpt>
      <trkpt lat="45.0097" lon="3.76668">
        <ele>985.97</ele>
        <time>2022-05-04T10:49:46Z</time>
      </trkpt>
      <trkpt lat="45.00963" lon="3.76637">
        <ele>986.93</ele>
        <time>2022-05-04T10:50:07Z</time>
      </trkpt>
      <trkpt lat="45.00957" lon="3.76606">
        <ele>987.41</ele>
        <time>2022-05-04T10:50:28Z</time>
      </trkpt>
      <trkpt lat="45.00952" lon="3.76578">
        <ele>988.37</ele>
        <time>2022-05-04T10:50:49Z</time>
      </trkpt>
      <trkpt lat="45.00936" lon="3.76551">
        <ele>990.3</ele>
        <time>2022-05-04T10:51:11Z</time>
      </trkpt>
      <trkpt lat="45.0092" lon="3.76535">
        <ele>992.22</ele>
        <time>2022-05-04T10:51:33Z</time>
      </trkpt>
      <trkpt lat="45.00902" lon="3.76517">
        <ele>994.62</ele>
        <time>2022-05-04T10:51:57Z</time>
      </trkpt>
      <trkpt lat="45.00885" lon="3.76501">
        <ele>997.02</ele>
        <time>2022-05-04T10:52:20Z</time>
      </trkpt>
      <trkpt lat="45.00871" lon="3.76486">
        <ele>999.43</ele>
        <time>2022-05-04T10:52:41Z</time>
      </trkpt>
      <trkpt lat="45.00862" lon="3.76468">
        <ele>1001.35</ele>
        <time>2022-05-04T10:53:00Z</time>
      </trkpt>
      <trkpt lat="45.00864" lon="3.76441">
        <ele>1003.27</ele>
        <time>2022-05-04T10:53:22Z</time>
      </trkpt>
      <trkpt lat="45.00866" lon="3.76435">
        <ele>1003.75</ele>
        <time>2022-05-04T10:53:27Z</time>
      </trkpt>
      <trkpt lat="45.00871" lon="3.76408">
        <ele>1005.2</ele>
        <time>2022-05-04T10:53:49Z</time>
      </trkpt>
      <trkpt lat="45.00875" lon="3.76378">
        <ele>1006.16</ele>
        <time>2022-05-04T10:54:14Z</time>
      </trkpt>
      <trkpt lat="45.0088" lon="3.76347">
        <ele>1006.16</ele>
        <time>2022-05-04T10:54:37Z</time>
      </trkpt>
      <trkpt lat="45.00881" lon="3.76313">
        <ele>1006.64</ele>
        <time>2022-05-04T10:54:58Z</time>
      </trkpt>
      <trkpt lat="45.00883" lon="3.76314">
        <ele>1007.12</ele>
        <time>2022-05-04T10:55:17Z</time>
      </trkpt>
      <trkpt lat="45.00884" lon="3.76316">
        <ele>1006.64</ele>
        <time>2022-05-04T10:55:38Z</time>
      </trkpt>
      <trkpt lat="45.00884" lon="3.76315">
        <ele>1006.64</ele>
        <time>2022-05-04T10:56:17Z</time>
      </trkpt>
      <trkpt lat="45.00884" lon="3.76315">
        <ele>1006.64</ele>
        <time>2022-05-04T10:56:46Z</time>
      </trkpt>
      <trkpt lat="45.00884" lon="3.76307">
        <ele>1006.64</ele>
        <time>2022-05-04T10:57:12Z</time>
      </trkpt>
      <trkpt lat="45.00883" lon="3.76289">
        <ele>1006.64</ele>
        <time>2022-05-04T10:57:31Z</time>
      </trkpt>
      <trkpt lat="45.00882" lon="3.76262">
        <ele>1006.64</ele>
        <time>2022-05-04T10:57:56Z</time>
      </trkpt>
      <trkpt lat="45.00882" lon="3.76259">
        <ele>1007.12</ele>
        <time>2022-05-04T10:58:17Z</time>
      </trkpt>
      <trkpt lat="45.00882" lon="3.76255">
        <ele>1007.12</ele>
        <time>2022-05-04T10:58:40Z</time>
      </trkpt>
      <trkpt lat="45.00881" lon="3.76254">
        <ele>1007.12</ele>
        <time>2022-05-04T10:59:07Z</time>
      </trkpt>
      <trkpt lat="45.00879" lon="3.76247">
        <ele>1007.12</ele>
        <time>2022-05-04T10:59:27Z</time>
      </trkpt>
      <trkpt lat="45.00872" lon="3.76231">
        <ele>1007.12</ele>
        <time>2022-05-04T10:59:46Z</time>
      </trkpt>
      <trkpt lat="45.00872" lon="3.76227">
        <ele>1010</ele>
        <time>2022-05-04T11:00:07Z</time>
      </trkpt>
      <trkpt lat="45.00869" lon="3.7622">
        <ele>1010</ele>
        <time>2022-05-04T11:00:25Z</time>
      </trkpt>
      <trkpt lat="45.0086" lon="3.76192">
        <ele>1012.41</ele>
        <time>2022-05-04T11:00:51Z</time>
      </trkpt>
      <trkpt lat="45.00849" lon="3.76167">
        <ele>1015.77</ele>
        <time>2022-05-04T11:01:12Z</time>
      </trkpt>
      <trkpt lat="45.00844" lon="3.76161">
        <ele>1016.73</ele>
        <time>2022-05-04T11:01:19Z</time>
      </trkpt>
      <trkpt lat="45.00836" lon="3.76147">
        <ele>1017.69</ele>
        <time>2022-05-04T11:01:33Z</time>
      </trkpt>
      <trkpt lat="45.00839" lon="3.76135">
        <ele>1018.17</ele>
        <time>2022-05-04T11:01:42Z</time>
      </trkpt>
      <trkpt lat="45.00861" lon="3.76125">
        <ele>1019.62</ele>
        <time>2022-05-04T11:02:02Z</time>
      </trkpt>
      <trkpt lat="45.00882" lon="3.76115">
        <ele>1021.54</ele>
        <time>2022-05-04T11:02:24Z</time>
      </trkpt>
      <trkpt lat="45.00895" lon="3.76106">
        <ele>1022.02</ele>
        <time>2022-05-04T11:02:42Z</time>
      </trkpt>
      <trkpt lat="45.00912" lon="3.76086">
        <ele>1022.98</ele>
        <time>2022-05-04T11:03:05Z</time>
      </trkpt>
      <trkpt lat="45.00914" lon="3.76081">
        <ele>1022.98</ele>
        <time>2022-05-04T11:03:10Z</time>
      </trkpt>
      <trkpt lat="45.00915" lon="3.7608">
        <ele>1022.98</ele>
        <time>2022-05-04T11:03:11Z</time>
      </trkpt>
      <trkpt lat="45.00916" lon="3.76078">
        <ele>1023.46</ele>
        <time>2022-05-04T11:03:12Z</time>
      </trkpt>
      <trkpt lat="45.00917" lon="3.76077">
        <ele>1023.46</ele>
        <time>2022-05-04T11:03:13Z</time>
      </trkpt>
      <trkpt lat="45.00917" lon="3.76075">
        <ele>1023.46</ele>
        <time>2022-05-04T11:03:14Z</time>
      </trkpt>
      <trkpt lat="45.00917" lon="3.76074">
        <ele>1023.46</ele>
        <time>2022-05-04T11:03:15Z</time>
      </trkpt>
      <trkpt lat="45.00918" lon="3.76073">
        <ele>1023.46</ele>
        <time>2022-05-04T11:03:16Z</time>
      </trkpt>
      <trkpt lat="45.00922" lon="3.76058">
        <ele>1023.46</ele>
        <time>2022-05-04T11:03:31Z</time>
      </trkpt>
      <trkpt lat="45.00924" lon="3.7605">
        <ele>1023.46</ele>
        <time>2022-05-04T11:03:39Z</time>
      </trkpt>
      <trkpt lat="45.00924" lon="3.76048">
        <ele>1023.94</ele>
        <time>2022-05-04T11:03:41Z</time>
      </trkpt>
      <trkpt lat="45.00929" lon="3.76013">
        <ele>1024.42</ele>
        <time>2022-05-04T11:04:04Z</time>
      </trkpt>
      <trkpt lat="45.0093" lon="3.75988">
        <ele>1023.94</ele>
        <time>2022-05-04T11:04:21Z</time>
      </trkpt>
      <trkpt lat="45.0093" lon="3.75986">
        <ele>1023.94</ele>
        <time>2022-05-04T11:04:22Z</time>
      </trkpt>
      <trkpt lat="45.00932" lon="3.75955">
        <ele>1023.94</ele>
        <time>2022-05-04T11:04:45Z</time>
      </trkpt>
      <trkpt lat="45.00936" lon="3.75928">
        <ele>1024.42</ele>
        <time>2022-05-04T11:05:05Z</time>
      </trkpt>
      <trkpt lat="45.00937" lon="3.759">
        <ele>1024.42</ele>
        <time>2022-05-04T11:05:23Z</time>
      </trkpt>
      <trkpt lat="45.00936" lon="3.75869">
        <ele>1025.38</ele>
        <time>2022-05-04T11:05:44Z</time>
      </trkpt>
      <trkpt lat="45.00935" lon="3.75841">
        <ele>1026.34</ele>
        <time>2022-05-04T11:06:03Z</time>
      </trkpt>
      <trkpt lat="45.00933" lon="3.75811">
        <ele>1026.83</ele>
        <time>2022-05-04T11:06:23Z</time>
      </trkpt>
      <trkpt lat="45.0093" lon="3.75783">
        <ele>1027.79</ele>
        <time>2022-05-04T11:06:43Z</time>
      </trkpt>
      <trkpt lat="45.00926" lon="3.75757">
        <ele>1028.75</ele>
        <time>2022-05-04T11:07:02Z</time>
      </trkpt>
      <trkpt lat="45.00923" lon="3.75731">
        <ele>1029.71</ele>
        <time>2022-05-04T11:07:21Z</time>
      </trkpt>
      <trkpt lat="45.00921" lon="3.75702">
        <ele>1031.15</ele>
        <time>2022-05-04T11:07:41Z</time>
      </trkpt>
      <trkpt lat="45.00923" lon="3.75676">
        <ele>1032.11</ele>
        <time>2022-05-04T11:07:59Z</time>
      </trkpt>
      <trkpt lat="45.00926" lon="3.75666">
        <ele>1032.11</ele>
        <time>2022-05-04T11:08:16Z</time>
      </trkpt>
      <trkpt lat="45.00931" lon="3.75636">
        <ele>1033.07</ele>
        <time>2022-05-04T11:08:38Z</time>
      </trkpt>
      <trkpt lat="45.0094" lon="3.75605">
        <ele>1033.55</ele>
        <time>2022-05-04T11:08:59Z</time>
      </trkpt>
      <trkpt lat="45.00945" lon="3.75574">
        <ele>1033.55</ele>
        <time>2022-05-04T11:09:19Z</time>
      </trkpt>
      <trkpt lat="45.00951" lon="3.75542">
        <ele>1034.04</ele>
        <time>2022-05-04T11:09:43Z</time>
      </trkpt>
      <trkpt lat="45.00954" lon="3.75531">
        <ele>1034.04</ele>
        <time>2022-05-04T11:10:05Z</time>
      </trkpt>
      <trkpt lat="45.0096" lon="3.75527">
        <ele>1034.04</ele>
        <time>2022-05-04T11:10:25Z</time>
      </trkpt>
      <trkpt lat="45.00979" lon="3.75532">
        <ele>1031.63</ele>
        <time>2022-05-04T11:10:48Z</time>
      </trkpt>
      <trkpt lat="45.00982" lon="3.75533">
        <ele>1031.63</ele>
        <time>2022-05-04T11:10:52Z</time>
      </trkpt>
      <trkpt lat="45.00988" lon="3.75534">
        <ele>1035</ele>
        <time>2022-05-04T11:10:57Z</time>
      </trkpt>
      <trkpt lat="45.01007" lon="3.75541">
        <ele>1031.63</ele>
        <time>2022-05-04T11:11:17Z</time>
      </trkpt>
      <trkpt lat="45.01026" lon="3.75546">
        <ele>1031.63</ele>
        <time>2022-05-04T11:11:38Z</time>
      </trkpt>
      <trkpt lat="45.01044" lon="3.75551">
        <ele>1030.67</ele>
        <time>2022-05-04T11:12:02Z</time>
      </trkpt>
      <trkpt lat="45.01045" lon="3.75552">
        <ele>1030.67</ele>
        <time>2022-05-04T11:12:17Z</time>
      </trkpt>
      <trkpt lat="45.01046" lon="3.75552">
        <ele>1030.67</ele>
        <time>2022-05-04T11:12:18Z</time>
      </trkpt>
      <trkpt lat="45.01048" lon="3.75553">
        <ele>1030.67</ele>
        <time>2022-05-04T11:12:20Z</time>
      </trkpt>
      <trkpt lat="45.01049" lon="3.75553">
        <ele>1030.19</ele>
        <time>2022-05-04T11:12:21Z</time>
      </trkpt>
      <trkpt lat="45.0105" lon="3.75553">
        <ele>1030.19</ele>
        <time>2022-05-04T11:12:22Z</time>
      </trkpt>
      <trkpt lat="45.01051" lon="3.75554">
        <ele>1030.19</ele>
        <time>2022-05-04T11:12:23Z</time>
      </trkpt>
      <trkpt lat="45.01052" lon="3.75554">
        <ele>1030.19</ele>
        <time>2022-05-04T11:12:24Z</time>
      </trkpt>
      <trkpt lat="45.01077" lon="3.75561">
        <ele>1029.71</ele>
        <time>2022-05-04T11:12:46Z</time>
      </trkpt>
      <trkpt lat="45.01099" lon="3.75566">
        <ele>1029.23</ele>
        <time>2022-05-04T11:13:04Z</time>
      </trkpt>
      <trkpt lat="45.01134" lon="3.75577">
        <ele>1027.79</ele>
        <time>2022-05-04T11:13:31Z</time>
      </trkpt>
      <trkpt lat="45.01163" lon="3.75587">
        <ele>1026.83</ele>
        <time>2022-05-04T11:13:55Z</time>
      </trkpt>
      <trkpt lat="45.01174" lon="3.75576">
        <ele>1025.38</ele>
        <time>2022-05-04T11:14:12Z</time>
      </trkpt>
      <trkpt lat="45.01171" lon="3.7557">
        <ele>1025.38</ele>
        <time>2022-05-04T11:14:20Z</time>
      </trkpt>
      <trkpt lat="45.0117" lon="3.75569">
        <ele>1025.38</ele>
        <time>2022-05-04T11:14:21Z</time>
      </trkpt>
      <trkpt lat="45.01164" lon="3.75559">
        <ele>1025.86</ele>
        <time>2022-05-04T11:14:32Z</time>
      </trkpt>
      <trkpt lat="45.0116" lon="3.75554">
        <ele>1025.86</ele>
        <time>2022-05-04T11:14:37Z</time>
      </trkpt>
      <trkpt lat="45.01147" lon="3.75533">
        <ele>1026.34</ele>
        <time>2022-05-04T11:14:56Z</time>
      </trkpt>
      <trkpt lat="45.01133" lon="3.75511">
        <ele>1027.31</ele>
        <time>2022-05-04T11:15:16Z</time>
      </trkpt>
      <trkpt lat="45.01126" lon="3.75502">
        <ele>1028.75</ele>
        <time>2022-05-04T11:15:34Z</time>
      </trkpt>
      <trkpt lat="45.01125" lon="3.755">
        <ele>1028.75</ele>
        <time>2022-05-04T11:15:37Z</time>
      </trkpt>
      <trkpt lat="45.01124" lon="3.75498">
        <ele>1028.75</ele>
        <time>2022-05-04T11:15:39Z</time>
      </trkpt>
      <trkpt lat="45.01123" lon="3.75497">
        <ele>1028.75</ele>
        <time>2022-05-04T11:15:40Z</time>
      </trkpt>
      <trkpt lat="45.01107" lon="3.75472">
        <ele>1029.23</ele>
        <time>2022-05-04T11:16:02Z</time>
      </trkpt>
      <trkpt lat="45.01093" lon="3.75449">
        <ele>1030.67</ele>
        <time>2022-05-04T11:16:22Z</time>
      </trkpt>
      <trkpt lat="45.01082" lon="3.75431">
        <ele>1031.63</ele>
        <time>2022-05-04T11:16:40Z</time>
      </trkpt>
      <trkpt lat="45.01069" lon="3.7541">
        <ele>1033.07</ele>
        <time>2022-05-04T11:16:57Z</time>
      </trkpt>
      <trkpt lat="45.01056" lon="3.75384">
        <ele>1034.04</ele>
        <time>2022-05-04T11:17:17Z</time>
      </trkpt>
      <trkpt lat="45.0104" lon="3.75359">
        <ele>1035.48</ele>
        <time>2022-05-04T11:17:38Z</time>
      </trkpt>
      <trkpt lat="45.01025" lon="3.75334">
        <ele>1036.92</ele>
        <time>2022-05-04T11:18:01Z</time>
      </trkpt>
      <trkpt lat="45.01009" lon="3.75311">
        <ele>1037.88</ele>
        <time>2022-05-04T11:18:23Z</time>
      </trkpt>
      <trkpt lat="45.00994" lon="3.75289">
        <ele>1039.32</ele>
        <time>2022-05-04T11:18:43Z</time>
      </trkpt>
      <trkpt lat="45.00978" lon="3.75264">
        <ele>1040.76</ele>
        <time>2022-05-04T11:19:06Z</time>
      </trkpt>
      <trkpt lat="45.00966" lon="3.75241">
        <ele>1042.21</ele>
        <time>2022-05-04T11:19:26Z</time>
      </trkpt>
      <trkpt lat="45.00953" lon="3.75221">
        <ele>1043.65</ele>
        <time>2022-05-04T11:19:45Z</time>
      </trkpt>
      <trkpt lat="45.0094" lon="3.75202">
        <ele>1045.09</ele>
        <time>2022-05-04T11:20:03Z</time>
      </trkpt>
      <trkpt lat="45.00929" lon="3.75184">
        <ele>1046.05</ele>
        <time>2022-05-04T11:20:21Z</time>
      </trkpt>
      <trkpt lat="45.00922" lon="3.75174">
        <ele>1046.53</ele>
        <time>2022-05-04T11:20:32Z</time>
      </trkpt>
      <trkpt lat="45.0092" lon="3.7517">
        <ele>1047.01</ele>
        <time>2022-05-04T11:20:36Z</time>
      </trkpt>
      <trkpt lat="45.00907" lon="3.75148">
        <ele>1047.97</ele>
        <time>2022-05-04T11:20:55Z</time>
      </trkpt>
      <trkpt lat="45.00896" lon="3.75127">
        <ele>1049.42</ele>
        <time>2022-05-04T11:21:15Z</time>
      </trkpt>
      <trkpt lat="45.00887" lon="3.75108">
        <ele>1050.38</ele>
        <time>2022-05-04T11:21:34Z</time>
      </trkpt>
      <trkpt lat="45.00884" lon="3.75102">
        <ele>1050.38</ele>
        <time>2022-05-04T11:21:39Z</time>
      </trkpt>
      <trkpt lat="45.00875" lon="3.75083">
        <ele>1051.34</ele>
        <time>2022-05-04T11:21:55Z</time>
      </trkpt>
      <trkpt lat="45.00866" lon="3.75062">
        <ele>1052.78</ele>
        <time>2022-05-04T11:22:12Z</time>
      </trkpt>
      <trkpt lat="45.0086" lon="3.75042">
        <ele>1053.26</ele>
        <time>2022-05-04T11:22:27Z</time>
      </trkpt>
      <trkpt lat="45.00858" lon="3.75019">
        <ele>1054.22</ele>
        <time>2022-05-04T11:22:44Z</time>
      </trkpt>
      <trkpt lat="45.00858" lon="3.75018">
        <ele>1054.22</ele>
        <time>2022-05-04T11:22:45Z</time>
      </trkpt>
      <trkpt lat="45.0086" lon="3.74994">
        <ele>1055.18</ele>
        <time>2022-05-04T11:23:01Z</time>
      </trkpt>
      <trkpt lat="45.00865" lon="3.74964">
        <ele>1056.15</ele>
        <time>2022-05-04T11:23:21Z</time>
      </trkpt>
      <trkpt lat="45.0087" lon="3.74936">
        <ele>1056.63</ele>
        <time>2022-05-04T11:23:40Z</time>
      </trkpt>
      <trkpt lat="45.00874" lon="3.74908">
        <ele>1057.11</ele>
        <time>2022-05-04T11:23:59Z</time>
      </trkpt>
      <trkpt lat="45.00873" lon="3.74889">
        <ele>1057.59</ele>
        <time>2022-05-04T11:24:13Z</time>
      </trkpt>
      <trkpt lat="45.0087" lon="3.74867">
        <ele>1058.07</ele>
        <time>2022-05-04T11:24:30Z</time>
      </trkpt>
      <trkpt lat="45.00872" lon="3.74839">
        <ele>1058.55</ele>
        <time>2022-05-04T11:24:49Z</time>
      </trkpt>
      <trkpt lat="45.00872" lon="3.7483">
        <ele>1059.03</ele>
        <time>2022-05-04T11:24:55Z</time>
      </trkpt>
      <trkpt lat="45.00873" lon="3.74821">
        <ele>1059.03</ele>
        <time>2022-05-04T11:25:01Z</time>
      </trkpt>
      <trkpt lat="45.00873" lon="3.74798">
        <ele>1059.51</ele>
        <time>2022-05-04T11:25:17Z</time>
      </trkpt>
      <trkpt lat="45.00872" lon="3.74774">
        <ele>1059.99</ele>
        <time>2022-05-04T11:25:34Z</time>
      </trkpt>
      <trkpt lat="45.00868" lon="3.74747">
        <ele>1061.43</ele>
        <time>2022-05-04T11:25:52Z</time>
      </trkpt>
      <trkpt lat="45.00864" lon="3.74732">
        <ele>1061.91</ele>
        <time>2022-05-04T11:26:03Z</time>
      </trkpt>
      <trkpt lat="45.00863" lon="3.74731">
        <ele>1061.91</ele>
        <time>2022-05-04T11:26:04Z</time>
      </trkpt>
      <trkpt lat="45.00855" lon="3.74719">
        <ele>1062.87</ele>
        <time>2022-05-04T11:26:16Z</time>
      </trkpt>
      <trkpt lat="45.0085" lon="3.74708">
        <ele>1063.36</ele>
        <time>2022-05-04T11:26:29Z</time>
      </trkpt>
      <trkpt lat="45.00837" lon="3.74679">
        <ele>1063.84</ele>
        <time>2022-05-04T11:26:50Z</time>
      </trkpt>
      <trkpt lat="45.00831" lon="3.74655">
        <ele>1064.8</ele>
        <time>2022-05-04T11:27:08Z</time>
      </trkpt>
      <trkpt lat="45.00825" lon="3.74641">
        <ele>1065.28</ele>
        <time>2022-05-04T11:27:20Z</time>
      </trkpt>
      <trkpt lat="45.00816" lon="3.74628">
        <ele>1066.72</ele>
        <time>2022-05-04T11:27:38Z</time>
      </trkpt>
      <trkpt lat="45.00814" lon="3.74624">
        <ele>1066.72</ele>
        <time>2022-05-04T11:27:56Z</time>
      </trkpt>
      <trkpt lat="45.00811" lon="3.74622">
        <ele>1066.72</ele>
        <time>2022-05-04T11:28:13Z</time>
      </trkpt>
      <trkpt lat="45.00803" lon="3.74613">
        <ele>1066.72</ele>
        <time>2022-05-04T11:28:32Z</time>
      </trkpt>
      <trkpt lat="45.00795" lon="3.74608">
        <ele>1068.64</ele>
        <time>2022-05-04T11:28:44Z</time>
      </trkpt>
      <trkpt lat="45.00793" lon="3.74608">
        <ele>1068.64</ele>
        <time>2022-05-04T11:28:45Z</time>
      </trkpt>
      <trkpt lat="45.00792" lon="3.74608">
        <ele>1068.64</ele>
        <time>2022-05-04T11:28:46Z</time>
      </trkpt>
      <trkpt lat="45.00791" lon="3.74608">
        <ele>1068.64</ele>
        <time>2022-05-04T11:28:47Z</time>
      </trkpt>
      <trkpt lat="45.0079" lon="3.74608">
        <ele>1068.64</ele>
        <time>2022-05-04T11:28:48Z</time>
      </trkpt>
      <trkpt lat="45.00789" lon="3.74608">
        <ele>1068.16</ele>
        <time>2022-05-04T11:28:49Z</time>
      </trkpt>
      <trkpt lat="45.00787" lon="3.74608">
        <ele>1068.16</ele>
        <time>2022-05-04T11:28:50Z</time>
      </trkpt>
      <trkpt lat="45.00767" lon="3.74606">
        <ele>1068.64</ele>
        <time>2022-05-04T11:29:09Z</time>
      </trkpt>
      <trkpt lat="45.0076" lon="3.74596">
        <ele>1069.12</ele>
        <time>2022-05-04T11:29:19Z</time>
      </trkpt>
      <trkpt lat="45.00759" lon="3.74595">
        <ele>1069.12</ele>
        <time>2022-05-04T11:29:20Z</time>
      </trkpt>
      <trkpt lat="45.00752" lon="3.74575">
        <ele>1069.6</ele>
        <time>2022-05-04T11:29:37Z</time>
      </trkpt>
      <trkpt lat="45.00743" lon="3.74544">
        <ele>1071.05</ele>
        <time>2022-05-04T11:29:59Z</time>
      </trkpt>
      <trkpt lat="45.00736" lon="3.74523">
        <ele>1072.01</ele>
        <time>2022-05-04T11:30:16Z</time>
      </trkpt>
      <trkpt lat="45.00734" lon="3.74514">
        <ele>1072.97</ele>
        <time>2022-05-04T11:30:23Z</time>
      </trkpt>
      <trkpt lat="45.00733" lon="3.74513">
        <ele>1072.97</ele>
        <time>2022-05-04T11:30:24Z</time>
      </trkpt>
      <trkpt lat="45.00731" lon="3.74505">
        <ele>1072.97</ele>
        <time>2022-05-04T11:30:30Z</time>
      </trkpt>
      <trkpt lat="45.00728" lon="3.74485">
        <ele>1074.41</ele>
        <time>2022-05-04T11:30:45Z</time>
      </trkpt>
      <trkpt lat="45.00728" lon="3.74482">
        <ele>1074.89</ele>
        <time>2022-05-04T11:30:47Z</time>
      </trkpt>
      <trkpt lat="45.00728" lon="3.7448">
        <ele>1074.89</ele>
        <time>2022-05-04T11:30:48Z</time>
      </trkpt>
      <trkpt lat="45.00726" lon="3.74453">
        <ele>1076.33</ele>
        <time>2022-05-04T11:31:08Z</time>
      </trkpt>
      <trkpt lat="45.00727" lon="3.74429">
        <ele>1077.29</ele>
        <time>2022-05-04T11:31:25Z</time>
      </trkpt>
      <trkpt lat="45.00725" lon="3.74411">
        <ele>1078.74</ele>
        <time>2022-05-04T11:31:38Z</time>
      </trkpt>
      <trkpt lat="45.00715" lon="3.74393">
        <ele>1079.7</ele>
        <time>2022-05-04T11:31:54Z</time>
      </trkpt>
      <trkpt lat="45.00706" lon="3.7437">
        <ele>1080.66</ele>
        <time>2022-05-04T11:32:13Z</time>
      </trkpt>
      <trkpt lat="45.00701" lon="3.74355">
        <ele>1080.66</ele>
        <time>2022-05-04T11:32:30Z</time>
      </trkpt>
      <trkpt lat="45.00693" lon="3.74336">
        <ele>1081.62</ele>
        <time>2022-05-04T11:32:48Z</time>
      </trkpt>
      <trkpt lat="45.00691" lon="3.74333">
        <ele>1082.58</ele>
        <time>2022-05-04T11:33:15Z</time>
      </trkpt>
      <trkpt lat="45.00691" lon="3.74332">
        <ele>1083.06</ele>
        <time>2022-05-04T11:33:45Z</time>
      </trkpt>
      <trkpt lat="45.0069" lon="3.74332">
        <ele>1083.54</ele>
        <time>2022-05-04T11:34:17Z</time>
      </trkpt>
      <trkpt lat="45.00689" lon="3.74331">
        <ele>1084.02</ele>
        <time>2022-05-04T11:34:53Z</time>
      </trkpt>
      <trkpt lat="45.00689" lon="3.74331">
        <ele>1083.54</ele>
        <time>2022-05-04T11:35:23Z</time>
      </trkpt>
      <trkpt lat="45.00689" lon="3.74328">
        <ele>1083.54</ele>
        <time>2022-05-04T11:36:05Z</time>
      </trkpt>
      <trkpt lat="45.00689" lon="3.74321">
        <ele>1083.54</ele>
        <time>2022-05-04T11:36:23Z</time>
      </trkpt>
      <trkpt lat="45.00688" lon="3.74312">
        <ele>1084.02</ele>
        <time>2022-05-04T11:36:29Z</time>
      </trkpt>
      <trkpt lat="45.00688" lon="3.74311">
        <ele>1084.02</ele>
        <time>2022-05-04T11:36:30Z</time>
      </trkpt>
      <trkpt lat="45.00685" lon="3.74274">
        <ele>1084.02</ele>
        <time>2022-05-04T11:36:51Z</time>
      </trkpt>
      <trkpt lat="45.00691" lon="3.7425">
        <ele>1084.02</ele>
        <time>2022-05-04T11:37:10Z</time>
      </trkpt>
      <trkpt lat="45.00694" lon="3.74247">
        <ele>1084.02</ele>
        <time>2022-05-04T11:37:13Z</time>
      </trkpt>
      <trkpt lat="45.00715" lon="3.74237">
        <ele>1084.5</ele>
        <time>2022-05-04T11:37:33Z</time>
      </trkpt>
      <trkpt lat="45.00733" lon="3.7423">
        <ele>1084.99</ele>
        <time>2022-05-04T11:37:51Z</time>
      </trkpt>
      <trkpt lat="45.00749" lon="3.74229">
        <ele>1085.47</ele>
        <time>2022-05-04T11:38:08Z</time>
      </trkpt>
      <trkpt lat="45.0076" lon="3.74219">
        <ele>1085.95</ele>
        <time>2022-05-04T11:38:24Z</time>
      </trkpt>
      <trkpt lat="45.0076" lon="3.74217">
        <ele>1085.95</ele>
        <time>2022-05-04T11:38:25Z</time>
      </trkpt>
      <trkpt lat="45.0076" lon="3.74213">
        <ele>1085.95</ele>
        <time>2022-05-04T11:38:28Z</time>
      </trkpt>
      <trkpt lat="45.00761" lon="3.7419">
        <ele>1085.95</ele>
        <time>2022-05-04T11:38:46Z</time>
      </trkpt>
      <trkpt lat="45.00763" lon="3.74166">
        <ele>1085.47</ele>
        <time>2022-05-04T11:39:04Z</time>
      </trkpt>
      <trkpt lat="45.00761" lon="3.74153">
        <ele>1084.99</ele>
        <time>2022-05-04T11:39:19Z</time>
      </trkpt>
      <trkpt lat="45.0076" lon="3.7415">
        <ele>1084.99</ele>
        <time>2022-05-04T11:39:37Z</time>
      </trkpt>
      <trkpt lat="45.0076" lon="3.7415">
        <ele>1084.99</ele>
        <time>2022-05-04T11:40:14Z</time>
      </trkpt>
      <trkpt lat="45.0075" lon="3.74146">
        <ele>1084.5</ele>
        <time>2022-05-04T11:40:33Z</time>
      </trkpt>
      <trkpt lat="45.00742" lon="3.74143">
        <ele>1084.02</ele>
        <time>2022-05-04T11:40:41Z</time>
      </trkpt>
      <trkpt lat="45.00721" lon="3.74143">
        <ele>1083.54</ele>
        <time>2022-05-04T11:41:04Z</time>
      </trkpt>
      <trkpt lat="45.00707" lon="3.74139">
        <ele>1083.54</ele>
        <time>2022-05-04T11:41:19Z</time>
      </trkpt>
      <trkpt lat="45.00704" lon="3.74136">
        <ele>1083.54</ele>
        <time>2022-05-04T11:41:22Z</time>
      </trkpt>
      <trkpt lat="45.00703" lon="3.74135">
        <ele>1083.06</ele>
        <time>2022-05-04T11:41:23Z</time>
      </trkpt>
      <trkpt lat="45.00702" lon="3.74134">
        <ele>1083.06</ele>
        <time>2022-05-04T11:41:24Z</time>
      </trkpt>
      <trkpt lat="45.0068" lon="3.74112">
        <ele>1082.58</ele>
        <time>2022-05-04T11:41:45Z</time>
      </trkpt>
      <trkpt lat="45.00654" lon="3.74096">
        <ele>1082.58</ele>
        <time>2022-05-04T11:42:08Z</time>
      </trkpt>
      <trkpt lat="45.00632" lon="3.74083">
        <ele>1082.1</ele>
        <time>2022-05-04T11:42:29Z</time>
      </trkpt>
      <trkpt lat="45.00615" lon="3.74062">
        <ele>1082.58</ele>
        <time>2022-05-04T11:42:51Z</time>
      </trkpt>
      <trkpt lat="45.00614" lon="3.7406">
        <ele>1082.58</ele>
        <time>2022-05-04T11:42:52Z</time>
      </trkpt>
      <trkpt lat="45.00605" lon="3.74036">
        <ele>1082.1</ele>
        <time>2022-05-04T11:43:10Z</time>
      </trkpt>
      <trkpt lat="45.00593" lon="3.74008">
        <ele>1083.06</ele>
        <time>2022-05-04T11:43:31Z</time>
      </trkpt>
      <trkpt lat="45.00585" lon="3.73983">
        <ele>1084.02</ele>
        <time>2022-05-04T11:43:50Z</time>
      </trkpt>
      <trkpt lat="45.00578" lon="3.7395">
        <ele>1084.99</ele>
        <time>2022-05-04T11:44:11Z</time>
      </trkpt>
      <trkpt lat="45.00571" lon="3.73915">
        <ele>1085.95</ele>
        <time>2022-05-04T11:44:34Z</time>
      </trkpt>
      <trkpt lat="45.00564" lon="3.73886">
        <ele>1086.43</ele>
        <time>2022-05-04T11:44:53Z</time>
      </trkpt>
      <trkpt lat="45.00556" lon="3.73853">
        <ele>1087.39</ele>
        <time>2022-05-04T11:45:13Z</time>
      </trkpt>
      <trkpt lat="45.00546" lon="3.73819">
        <ele>1087.39</ele>
        <time>2022-05-04T11:45:37Z</time>
      </trkpt>
      <trkpt lat="45.0054" lon="3.73798">
        <ele>1087.87</ele>
        <time>2022-05-04T11:45:54Z</time>
      </trkpt>
      <trkpt lat="45.00534" lon="3.73778">
        <ele>1088.35</ele>
        <time>2022-05-04T11:46:09Z</time>
      </trkpt>
      <trkpt lat="45.00524" lon="3.7374">
        <ele>1084.99</ele>
        <time>2022-05-04T11:46:32Z</time>
      </trkpt>
      <trkpt lat="45.00522" lon="3.73733">
        <ele>1088.83</ele>
        <time>2022-05-04T11:46:36Z</time>
      </trkpt>
      <trkpt lat="45.00519" lon="3.73723">
        <ele>1086.91</ele>
        <time>2022-05-04T11:46:43Z</time>
      </trkpt>
      <trkpt lat="45.00516" lon="3.73715">
        <ele>1089.79</ele>
        <time>2022-05-04T11:46:48Z</time>
      </trkpt>
      <trkpt lat="45.00515" lon="3.73713">
        <ele>1091.23</ele>
        <time>2022-05-04T11:46:50Z</time>
      </trkpt>
      <trkpt lat="45.00505" lon="3.73688">
        <ele>1090.27</ele>
        <time>2022-05-04T11:47:09Z</time>
      </trkpt>
      <trkpt lat="45.00492" lon="3.73661">
        <ele>1090.75</ele>
        <time>2022-05-04T11:47:30Z</time>
      </trkpt>
      <trkpt lat="45.00477" lon="3.73633">
        <ele>1091.71</ele>
        <time>2022-05-04T11:47:52Z</time>
      </trkpt>
      <trkpt lat="45.00464" lon="3.73597">
        <ele>1093.64</ele>
        <time>2022-05-04T11:48:18Z</time>
      </trkpt>
      <trkpt lat="45.00455" lon="3.73573">
        <ele>1095.08</ele>
        <time>2022-05-04T11:48:38Z</time>
      </trkpt>
      <trkpt lat="45.00443" lon="3.73556">
        <ele>1096.52</ele>
        <time>2022-05-04T11:48:56Z</time>
      </trkpt>
      <trkpt lat="45.00427" lon="3.73533">
        <ele>1098.92</ele>
        <time>2022-05-04T11:49:19Z</time>
      </trkpt>
      <trkpt lat="45.00413" lon="3.73509">
        <ele>1101.33</ele>
        <time>2022-05-04T11:49:42Z</time>
      </trkpt>
      <trkpt lat="45.00406" lon="3.73479">
        <ele>1103.25</ele>
        <time>2022-05-04T11:50:05Z</time>
      </trkpt>
      <trkpt lat="45.00401" lon="3.73455">
        <ele>1104.69</ele>
        <time>2022-05-04T11:50:23Z</time>
      </trkpt>
      <trkpt lat="45.00396" lon="3.73429">
        <ele>1105.65</ele>
        <time>2022-05-04T11:50:42Z</time>
      </trkpt>
      <trkpt lat="45.0039" lon="3.734">
        <ele>1107.1</ele>
        <time>2022-05-04T11:51:01Z</time>
      </trkpt>
      <trkpt lat="45.00388" lon="3.73377">
        <ele>1109.02</ele>
        <time>2022-05-04T11:51:19Z</time>
      </trkpt>
      <trkpt lat="45.00385" lon="3.73345">
        <ele>1110.94</ele>
        <time>2022-05-04T11:51:39Z</time>
      </trkpt>
      <trkpt lat="45.00383" lon="3.7332">
        <ele>1111.9</ele>
        <time>2022-05-04T11:51:58Z</time>
      </trkpt>
      <trkpt lat="45.00382" lon="3.73286">
        <ele>1113.34</ele>
        <time>2022-05-04T11:52:23Z</time>
      </trkpt>
      <trkpt lat="45.0038" lon="3.73256">
        <ele>1114.79</ele>
        <time>2022-05-04T11:52:43Z</time>
      </trkpt>
      <trkpt lat="45.00377" lon="3.73227">
        <ele>1116.71</ele>
        <time>2022-05-04T11:53:04Z</time>
      </trkpt>
      <trkpt lat="45.00375" lon="3.73205">
        <ele>1117.19</ele>
        <time>2022-05-04T11:53:19Z</time>
      </trkpt>
      <trkpt lat="45.00374" lon="3.73178">
        <ele>1118.63</ele>
        <time>2022-05-04T11:53:38Z</time>
      </trkpt>
      <trkpt lat="45.00371" lon="3.73158">
        <ele>1121.52</ele>
        <time>2022-05-04T11:53:55Z</time>
      </trkpt>
      <trkpt lat="45.0037" lon="3.73155">
        <ele>1123.44</ele>
        <time>2022-05-04T11:53:58Z</time>
      </trkpt>
      <trkpt lat="45.00372" lon="3.73148">
        <ele>1122</ele>
        <time>2022-05-04T11:54:17Z</time>
      </trkpt>
      <trkpt lat="45.00371" lon="3.73144">
        <ele>1122</ele>
        <time>2022-05-04T11:54:39Z</time>
      </trkpt>
      <trkpt lat="45.0037" lon="3.73142">
        <ele>1122.48</ele>
        <time>2022-05-04T11:55:02Z</time>
      </trkpt>
      <trkpt lat="45.00368" lon="3.73141">
        <ele>1123.44</ele>
        <time>2022-05-04T11:55:32Z</time>
      </trkpt>
      <trkpt lat="45.00369" lon="3.73141">
        <ele>1123.44</ele>
        <time>2022-05-04T11:55:55Z</time>
      </trkpt>
      <trkpt lat="45.00368" lon="3.73141">
        <ele>1123.44</ele>
        <time>2022-05-04T11:56:27Z</time>
      </trkpt>
      <trkpt lat="45.00368" lon="3.73141">
        <ele>1123.44</ele>
        <time>2022-05-04T11:56:59Z</time>
      </trkpt>
      <trkpt lat="45.00368" lon="3.73141">
        <ele>1123.44</ele>
        <time>2022-05-04T11:57:37Z</time>
      </trkpt>
      <trkpt lat="45.00367" lon="3.73141">
        <ele>1123.44</ele>
        <time>2022-05-04T11:58:05Z</time>
      </trkpt>
      <trkpt lat="45.00367" lon="3.73141">
        <ele>1123.44</ele>
        <time>2022-05-04T11:58:56Z</time>
      </trkpt>
      <trkpt lat="45.00367" lon="3.73141">
        <ele>1123.44</ele>
        <time>2022-05-04T11:59:28Z</time>
      </trkpt>
      <trkpt lat="45.00365" lon="3.73139">
        <ele>1123.44</ele>
        <time>2022-05-04T11:59:59Z</time>
      </trkpt>
      <trkpt lat="45.00367" lon="3.73139">
        <ele>1123.44</ele>
        <time>2022-05-04T12:00:33Z</time>
      </trkpt>
      <trkpt lat="45.00367" lon="3.73139">
        <ele>1123.44</ele>
        <time>2022-05-04T12:01:09Z</time>
      </trkpt>
      <trkpt lat="45.00368" lon="3.73139">
        <ele>1123.44</ele>
        <time>2022-05-04T12:01:44Z</time>
      </trkpt>
      <trkpt lat="45.00367" lon="3.73138">
        <ele>1123.44</ele>
        <time>2022-05-04T12:02:16Z</time>
      </trkpt>
      <trkpt lat="45.00368" lon="3.73138">
        <ele>1123.44</ele>
        <time>2022-05-04T12:02:53Z</time>
      </trkpt>
      <trkpt lat="45.00369" lon="3.73138">
        <ele>1123.44</ele>
        <time>2022-05-04T12:03:24Z</time>
      </trkpt>
      <trkpt lat="45.00369" lon="3.73137">
        <ele>1123.44</ele>
        <time>2022-05-04T12:03:54Z</time>
      </trkpt>
      <trkpt lat="45.00362" lon="3.73136">
        <ele>1123.44</ele>
        <time>2022-05-04T12:04:17Z</time>
      </trkpt>
      <trkpt lat="45.0035" lon="3.7312">
        <ele>1123.44</ele>
        <time>2022-05-04T12:04:39Z</time>
      </trkpt>
      <trkpt lat="45.00346" lon="3.7312">
        <ele>1123.44</ele>
        <time>2022-05-04T12:05:04Z</time>
      </trkpt>
      <trkpt lat="45.00344" lon="3.7312">
        <ele>1127.28</ele>
        <time>2022-05-04T12:05:19Z</time>
      </trkpt>
      <trkpt lat="45.00344" lon="3.73119">
        <ele>1127.28</ele>
        <time>2022-05-04T12:05:20Z</time>
      </trkpt>
      <trkpt lat="45.00324" lon="3.73123">
        <ele>1128.24</ele>
        <time>2022-05-04T12:05:44Z</time>
      </trkpt>
      <trkpt lat="45.00299" lon="3.73134">
        <ele>1130.17</ele>
        <time>2022-05-04T12:06:11Z</time>
      </trkpt>
      <trkpt lat="45.00279" lon="3.73145">
        <ele>1131.61</ele>
        <time>2022-05-04T12:06:33Z</time>
      </trkpt>
      <trkpt lat="45.00252" lon="3.73153">
        <ele>1134.01</ele>
        <time>2022-05-04T12:07:04Z</time>
      </trkpt>
      <trkpt lat="45.00229" lon="3.73155">
        <ele>1136.42</ele>
        <time>2022-05-04T12:07:32Z</time>
      </trkpt>
      <trkpt lat="45.002" lon="3.73165">
        <ele>1139.3</ele>
        <time>2022-05-04T12:08:02Z</time>
      </trkpt>
      <trkpt lat="45.00174" lon="3.73173">
        <ele>1141.22</ele>
        <time>2022-05-04T12:08:29Z</time>
      </trkpt>
      <trkpt lat="45.00148" lon="3.73174">
        <ele>1143.63</ele>
        <time>2022-05-04T12:08:58Z</time>
      </trkpt>
      <trkpt lat="45.00124" lon="3.73164">
        <ele>1146.03</ele>
        <time>2022-05-04T12:09:26Z</time>
      </trkpt>
      <trkpt lat="45.00101" lon="3.73173">
        <ele>1148.43</ele>
        <time>2022-05-04T12:09:55Z</time>
      </trkpt>
      <trkpt lat="45.00092" lon="3.7317">
        <ele>1148.91</ele>
        <time>2022-05-04T12:10:06Z</time>
      </trkpt>
      <trkpt lat="45.00091" lon="3.73169">
        <ele>1148.91</ele>
        <time>2022-05-04T12:10:32Z</time>
      </trkpt>
      <trkpt lat="45.00066" lon="3.73163">
        <ele>1149.87</ele>
        <time>2022-05-04T12:11:00Z</time>
      </trkpt>
      <trkpt lat="45.00043" lon="3.73159">
        <ele>1152.28</ele>
        <time>2022-05-04T12:11:28Z</time>
      </trkpt>
      <trkpt lat="45.00014" lon="3.73155">
        <ele>1153.72</ele>
        <time>2022-05-04T12:11:58Z</time>
      </trkpt>
      <trkpt lat="45.00003" lon="3.73154">
        <ele>1153.72</ele>
        <time>2022-05-04T12:12:15Z</time>
      </trkpt>
      <trkpt lat="44.99968" lon="3.73154">
        <ele>1154.68</ele>
        <time>2022-05-04T12:12:48Z</time>
      </trkpt>
      <trkpt lat="44.99925" lon="3.73164">
        <ele>1156.6</ele>
        <time>2022-05-04T12:13:21Z</time>
      </trkpt>
      <trkpt lat="44.99894" lon="3.73172">
        <ele>1159.01</ele>
        <time>2022-05-04T12:13:53Z</time>
      </trkpt>
      <trkpt lat="44.99878" lon="3.73169">
        <ele>1159.97</ele>
        <time>2022-05-04T12:14:22Z</time>
      </trkpt>
      <trkpt lat="44.99863" lon="3.73171">
        <ele>1160.45</ele>
        <time>2022-05-04T12:14:42Z</time>
      </trkpt>
      <trkpt lat="44.99835" lon="3.7317">
        <ele>1160.93</ele>
        <time>2022-05-04T12:15:07Z</time>
      </trkpt>
      <trkpt lat="44.998" lon="3.73165">
        <ele>1159.97</ele>
        <time>2022-05-04T12:15:37Z</time>
      </trkpt>
      <trkpt lat="44.99781" lon="3.73161">
        <ele>1159.97</ele>
        <time>2022-05-04T12:15:53Z</time>
      </trkpt>
      <trkpt lat="44.99779" lon="3.7316">
        <ele>1159.49</ele>
        <time>2022-05-04T12:15:54Z</time>
      </trkpt>
      <trkpt lat="44.99761" lon="3.73136">
        <ele>1160.45</ele>
        <time>2022-05-04T12:16:17Z</time>
      </trkpt>
      <trkpt lat="44.99764" lon="3.73109">
        <ele>1162.37</ele>
        <time>2022-05-04T12:16:42Z</time>
      </trkpt>
      <trkpt lat="44.99778" lon="3.73075">
        <ele>1165.26</ele>
        <time>2022-05-04T12:17:12Z</time>
      </trkpt>
      <trkpt lat="44.99783" lon="3.73048">
        <ele>1168.14</ele>
        <time>2022-05-04T12:17:37Z</time>
      </trkpt>
      <trkpt lat="44.99791" lon="3.73017">
        <ele>1170.06</ele>
        <time>2022-05-04T12:18:04Z</time>
      </trkpt>
      <trkpt lat="44.99792" lon="3.72983">
        <ele>1171.02</ele>
        <time>2022-05-04T12:18:27Z</time>
      </trkpt>
      <trkpt lat="44.99792" lon="3.72953">
        <ele>1172.95</ele>
        <time>2022-05-04T12:18:49Z</time>
      </trkpt>
      <trkpt lat="44.99794" lon="3.72933">
        <ele>1174.39</ele>
        <time>2022-05-04T12:19:06Z</time>
      </trkpt>
      <trkpt lat="44.99799" lon="3.72895">
        <ele>1175.83</ele>
        <time>2022-05-04T12:19:38Z</time>
      </trkpt>
      <trkpt lat="44.99802" lon="3.72851">
        <ele>1177.75</ele>
        <time>2022-05-04T12:20:07Z</time>
      </trkpt>
      <trkpt lat="44.99806" lon="3.72822">
        <ele>1179.19</ele>
        <time>2022-05-04T12:20:32Z</time>
      </trkpt>
      <trkpt lat="44.99807" lon="3.72808">
        <ele>1179.67</ele>
        <time>2022-05-04T12:20:54Z</time>
      </trkpt>
      <trkpt lat="44.99805" lon="3.72807">
        <ele>1180.64</ele>
        <time>2022-05-04T12:21:37Z</time>
      </trkpt>
      <trkpt lat="44.99805" lon="3.72806">
        <ele>1180.64</ele>
        <time>2022-05-04T12:22:15Z</time>
      </trkpt>
      <trkpt lat="44.99808" lon="3.72795">
        <ele>1181.12</ele>
        <time>2022-05-04T12:22:39Z</time>
      </trkpt>
      <trkpt lat="44.99813" lon="3.72765">
        <ele>1184</ele>
        <time>2022-05-04T12:23:06Z</time>
      </trkpt>
      <trkpt lat="44.99812" lon="3.72733">
        <ele>1186.88</ele>
        <time>2022-05-04T12:23:26Z</time>
      </trkpt>
      <trkpt lat="44.99807" lon="3.72691">
        <ele>1189.77</ele>
        <time>2022-05-04T12:23:56Z</time>
      </trkpt>
      <trkpt lat="44.99801" lon="3.72647">
        <ele>1192.17</ele>
        <time>2022-05-04T12:24:24Z</time>
      </trkpt>
      <trkpt lat="44.99801" lon="3.72613">
        <ele>1194.58</ele>
        <time>2022-05-04T12:24:51Z</time>
      </trkpt>
      <trkpt lat="44.998" lon="3.72611">
        <ele>1195.06</ele>
        <time>2022-05-04T12:24:52Z</time>
      </trkpt>
      <trkpt lat="44.99793" lon="3.72583">
        <ele>1196.02</ele>
        <time>2022-05-04T12:25:08Z</time>
      </trkpt>
      <trkpt lat="44.99786" lon="3.7255">
        <ele>1196.98</ele>
        <time>2022-05-04T12:25:30Z</time>
      </trkpt>
      <trkpt lat="44.99785" lon="3.72528">
        <ele>1198.42</ele>
        <time>2022-05-04T12:25:44Z</time>
      </trkpt>
      <trkpt lat="44.99783" lon="3.72498">
        <ele>1200.82</ele>
        <time>2022-05-04T12:26:03Z</time>
      </trkpt>
      <trkpt lat="44.99783" lon="3.72492">
        <ele>1200.82</ele>
        <time>2022-05-04T12:26:07Z</time>
      </trkpt>
      <trkpt lat="44.99785" lon="3.7247">
        <ele>1201.79</ele>
        <time>2022-05-04T12:26:22Z</time>
      </trkpt>
      <trkpt lat="44.99788" lon="3.72462">
        <ele>1201.79</ele>
        <time>2022-05-04T12:26:27Z</time>
      </trkpt>
      <trkpt lat="44.99788" lon="3.7246">
        <ele>1201.79</ele>
        <time>2022-05-04T12:26:28Z</time>
      </trkpt>
      <trkpt lat="44.99797" lon="3.72426">
        <ele>1203.23</ele>
        <time>2022-05-04T12:26:54Z</time>
      </trkpt>
      <trkpt lat="44.99805" lon="3.72392">
        <ele>1205.15</ele>
        <time>2022-05-04T12:27:22Z</time>
      </trkpt>
      <trkpt lat="44.99809" lon="3.72352">
        <ele>1206.11</ele>
        <time>2022-05-04T12:27:50Z</time>
      </trkpt>
      <trkpt lat="44.99806" lon="3.72315">
        <ele>1206.59</ele>
        <time>2022-05-04T12:28:15Z</time>
      </trkpt>
      <trkpt lat="44.99805" lon="3.7231">
        <ele>1206.59</ele>
        <time>2022-05-04T12:28:18Z</time>
      </trkpt>
      <trkpt lat="44.99794" lon="3.7228">
        <ele>1206.59</ele>
        <time>2022-05-04T12:28:35Z</time>
      </trkpt>
      <trkpt lat="44.99787" lon="3.72267">
        <ele>1207.07</ele>
        <time>2022-05-04T12:28:44Z</time>
      </trkpt>
      <trkpt lat="44.99775" lon="3.72237">
        <ele>1207.07</ele>
        <time>2022-05-04T12:29:04Z</time>
      </trkpt>
      <trkpt lat="44.99775" lon="3.72212">
        <ele>1207.55</ele>
        <time>2022-05-04T12:29:21Z</time>
      </trkpt>
      <trkpt lat="44.99776" lon="3.72197">
        <ele>1207.55</ele>
        <time>2022-05-04T12:29:32Z</time>
      </trkpt>
      <trkpt lat="44.99776" lon="3.72177">
        <ele>1208.03</ele>
        <time>2022-05-04T12:29:47Z</time>
      </trkpt>
      <trkpt lat="44.99789" lon="3.72127">
        <ele>1208.03</ele>
        <time>2022-05-04T12:30:21Z</time>
      </trkpt>
      <trkpt lat="44.99805" lon="3.72093">
        <ele>1207.07</ele>
        <time>2022-05-04T12:30:44Z</time>
      </trkpt>
      <trkpt lat="44.99806" lon="3.72091">
        <ele>1207.55</ele>
        <time>2022-05-04T12:30:45Z</time>
      </trkpt>
      <trkpt lat="44.99813" lon="3.72072">
        <ele>1209</ele>
        <time>2022-05-04T12:31:00Z</time>
      </trkpt>
      <trkpt lat="44.99826" lon="3.72041">
        <ele>1207.55</ele>
        <time>2022-05-04T12:31:21Z</time>
      </trkpt>
      <trkpt lat="44.99846" lon="3.72003">
        <ele>1208.03</ele>
        <time>2022-05-04T12:31:48Z</time>
      </trkpt>
      <trkpt lat="44.99848" lon="3.71982">
        <ele>1208.03</ele>
        <time>2022-05-04T12:32:03Z</time>
      </trkpt>
      <trkpt lat="44.9983" lon="3.71957">
        <ele>1207.55</ele>
        <time>2022-05-04T12:32:23Z</time>
      </trkpt>
      <trkpt lat="44.99808" lon="3.71933">
        <ele>1207.55</ele>
        <time>2022-05-04T12:32:50Z</time>
      </trkpt>
      <trkpt lat="44.99793" lon="3.71904">
        <ele>1207.55</ele>
        <time>2022-05-04T12:33:13Z</time>
      </trkpt>
      <trkpt lat="44.9978" lon="3.71875">
        <ele>1207.55</ele>
        <time>2022-05-04T12:33:31Z</time>
      </trkpt>
      <trkpt lat="44.99777" lon="3.71867">
        <ele>1208.03</ele>
        <time>2022-05-04T12:33:35Z</time>
      </trkpt>
      <trkpt lat="44.99766" lon="3.71844">
        <ele>1207.55</ele>
        <time>2022-05-04T12:33:52Z</time>
      </trkpt>
      <trkpt lat="44.99765" lon="3.71833">
        <ele>1207.55</ele>
        <time>2022-05-04T12:33:59Z</time>
      </trkpt>
      <trkpt lat="44.99759" lon="3.71805">
        <ele>1207.07</ele>
        <time>2022-05-04T12:34:13Z</time>
      </trkpt>
      <trkpt lat="44.99754" lon="3.71775">
        <ele>1207.55</ele>
        <time>2022-05-04T12:34:30Z</time>
      </trkpt>
      <trkpt lat="44.99751" lon="3.71745">
        <ele>1207.55</ele>
        <time>2022-05-04T12:34:47Z</time>
      </trkpt>
      <trkpt lat="44.99753" lon="3.7173">
        <ele>1207.07</ele>
        <time>2022-05-04T12:35:04Z</time>
      </trkpt>
      <trkpt lat="44.99756" lon="3.71728">
        <ele>1207.07</ele>
        <time>2022-05-04T12:35:08Z</time>
      </trkpt>
      <trkpt lat="44.99766" lon="3.71721">
        <ele>1207.07</ele>
        <time>2022-05-04T12:35:23Z</time>
      </trkpt>
      <trkpt lat="44.99766" lon="3.71722">
        <ele>1206.11</ele>
        <time>2022-05-04T12:35:46Z</time>
      </trkpt>
      <trkpt lat="44.99775" lon="3.71719">
        <ele>1206.11</ele>
        <time>2022-05-04T12:35:57Z</time>
      </trkpt>
      <trkpt lat="44.99771" lon="3.71708">
        <ele>1203.23</ele>
        <time>2022-05-04T12:36:34Z</time>
      </trkpt>
      <trkpt lat="44.99771" lon="3.71708">
        <ele>1203.23</ele>
        <time>2022-05-04T12:36:35Z</time>
      </trkpt>
      <trkpt lat="44.99771" lon="3.71709">
        <ele>1206.11</ele>
        <time>2022-05-04T12:36:54Z</time>
      </trkpt>
      <trkpt lat="44.99771" lon="3.71709">
        <ele>1209.48</ele>
        <time>2022-05-04T12:37:00Z</time>
      </trkpt>
      <trkpt lat="44.99771" lon="3.71709">
        <ele>1209.96</ele>
        <time>2022-05-04T12:37:01Z</time>
      </trkpt>
      <trkpt lat="44.99771" lon="3.71709">
        <ele>1206.59</ele>
        <time>2022-05-04T12:37:13Z</time>
      </trkpt>
      <trkpt lat="44.99771" lon="3.7171">
        <ele>1203.71</ele>
        <time>2022-05-04T12:37:28Z</time>
      </trkpt>
      <trkpt lat="44.99772" lon="3.7171">
        <ele>1203.23</ele>
        <time>2022-05-04T12:37:29Z</time>
      </trkpt>
      <trkpt lat="44.99771" lon="3.71711">
        <ele>1207.07</ele>
        <time>2022-05-04T12:37:37Z</time>
      </trkpt>
      <trkpt lat="44.99771" lon="3.71711">
        <ele>1208.03</ele>
        <time>2022-05-04T12:37:39Z</time>
      </trkpt>
      <trkpt lat="44.99772" lon="3.71712">
        <ele>1207.55</ele>
        <time>2022-05-04T12:38:14Z</time>
      </trkpt>
      <trkpt lat="44.99773" lon="3.71713">
        <ele>1206.11</ele>
        <time>2022-05-04T12:38:43Z</time>
      </trkpt>
      <trkpt lat="44.99774" lon="3.71714">
        <ele>1206.59</ele>
        <time>2022-05-04T12:39:09Z</time>
      </trkpt>
      <trkpt lat="44.99773" lon="3.71714">
        <ele>1205.63</ele>
        <time>2022-05-04T12:39:30Z</time>
      </trkpt>
      <trkpt lat="44.99771" lon="3.71716">
        <ele>1206.11</ele>
        <time>2022-05-04T12:39:53Z</time>
      </trkpt>
      <trkpt lat="44.99771" lon="3.71716">
        <ele>1203.23</ele>
        <time>2022-05-04T12:40:03Z</time>
      </trkpt>
      <trkpt lat="44.9977" lon="3.71715">
        <ele>1206.59</ele>
        <time>2022-05-04T12:40:13Z</time>
      </trkpt>
      <trkpt lat="44.9977" lon="3.71715">
        <ele>1206.59</ele>
        <time>2022-05-04T12:40:14Z</time>
      </trkpt>
      <trkpt lat="44.9977" lon="3.71718">
        <ele>1207.55</ele>
        <time>2022-05-04T12:40:36Z</time>
      </trkpt>
      <trkpt lat="44.9977" lon="3.71719">
        <ele>1207.55</ele>
        <time>2022-05-04T12:41:00Z</time>
      </trkpt>
      <trkpt lat="44.99771" lon="3.7172">
        <ele>1207.55</ele>
        <time>2022-05-04T12:41:24Z</time>
      </trkpt>
      <trkpt lat="44.99771" lon="3.71721">
        <ele>1207.55</ele>
        <time>2022-05-04T12:41:51Z</time>
      </trkpt>
      <trkpt lat="44.99771" lon="3.71721">
        <ele>1207.55</ele>
        <time>2022-05-04T12:42:14Z</time>
      </trkpt>
      <trkpt lat="44.9977" lon="3.71722">
        <ele>1207.55</ele>
        <time>2022-05-04T12:42:35Z</time>
      </trkpt>
      <trkpt lat="44.9977" lon="3.71721">
        <ele>1207.55</ele>
        <time>2022-05-04T12:43:02Z</time>
      </trkpt>
      <trkpt lat="44.99769" lon="3.71723">
        <ele>1207.55</ele>
        <time>2022-05-04T12:43:29Z</time>
      </trkpt>
      <trkpt lat="44.99769" lon="3.71723">
        <ele>1207.55</ele>
        <time>2022-05-04T12:43:57Z</time>
      </trkpt>
      <trkpt lat="44.99768" lon="3.71722">
        <ele>1207.55</ele>
        <time>2022-05-04T12:44:19Z</time>
      </trkpt>
      <trkpt lat="44.99766" lon="3.71717">
        <ele>1207.55</ele>
        <time>2022-05-04T12:44:40Z</time>
      </trkpt>
      <trkpt lat="44.99765" lon="3.71716">
        <ele>1207.55</ele>
        <time>2022-05-04T12:45:02Z</time>
      </trkpt>
      <trkpt lat="44.99759" lon="3.71707">
        <ele>1207.55</ele>
        <time>2022-05-04T12:45:47Z</time>
      </trkpt>
      <trkpt lat="44.99756" lon="3.71703">
        <ele>1207.55</ele>
        <time>2022-05-04T12:45:52Z</time>
      </trkpt>
      <trkpt lat="44.99755" lon="3.71702">
        <ele>1207.55</ele>
        <time>2022-05-04T12:45:53Z</time>
      </trkpt>
      <trkpt lat="44.99753" lon="3.71701">
        <ele>1207.55</ele>
        <time>2022-05-04T12:45:56Z</time>
      </trkpt>
      <trkpt lat="44.99738" lon="3.71695">
        <ele>1206.59</ele>
        <time>2022-05-04T12:46:13Z</time>
      </trkpt>
      <trkpt lat="44.99732" lon="3.71693">
        <ele>1206.59</ele>
        <time>2022-05-04T12:46:20Z</time>
      </trkpt>
      <trkpt lat="44.99706" lon="3.71678">
        <ele>1206.59</ele>
        <time>2022-05-04T12:46:45Z</time>
      </trkpt>
      <trkpt lat="44.99675" lon="3.71664">
        <ele>1205.63</ele>
        <time>2022-05-04T12:47:09Z</time>
      </trkpt>
      <trkpt lat="44.99659" lon="3.71658">
        <ele>1205.63</ele>
        <time>2022-05-04T12:47:23Z</time>
      </trkpt>
      <trkpt lat="44.99623" lon="3.71645">
        <ele>1204.19</ele>
        <time>2022-05-04T12:47:54Z</time>
      </trkpt>
      <trkpt lat="44.99602" lon="3.71634">
        <ele>1203.23</ele>
        <time>2022-05-04T12:48:18Z</time>
      </trkpt>
      <trkpt lat="44.99591" lon="3.71611">
        <ele>1200.82</ele>
        <time>2022-05-04T12:48:37Z</time>
      </trkpt>
      <trkpt lat="44.9959" lon="3.7161">
        <ele>1200.82</ele>
        <time>2022-05-04T12:48:38Z</time>
      </trkpt>
      <trkpt lat="44.99565" lon="3.71577">
        <ele>1197.94</ele>
        <time>2022-05-04T12:49:05Z</time>
      </trkpt>
      <trkpt lat="44.99548" lon="3.71532">
        <ele>1196.5</ele>
        <time>2022-05-04T12:49:31Z</time>
      </trkpt>
      <trkpt lat="44.99533" lon="3.71495">
        <ele>1196.02</ele>
        <time>2022-05-04T12:49:57Z</time>
      </trkpt>
      <trkpt lat="44.9952" lon="3.71457">
        <ele>1194.58</ele>
        <time>2022-05-04T12:50:20Z</time>
      </trkpt>
      <trkpt lat="44.99515" lon="3.71424">
        <ele>1191.69</ele>
        <time>2022-05-04T12:50:40Z</time>
      </trkpt>
      <trkpt lat="44.99509" lon="3.71397">
        <ele>1188.81</ele>
        <time>2022-05-04T12:50:57Z</time>
      </trkpt>
      <trkpt lat="44.99502" lon="3.71375">
        <ele>1185.44</ele>
        <time>2022-05-04T12:51:13Z</time>
      </trkpt>
      <trkpt lat="44.99491" lon="3.71323">
        <ele>1182.56</ele>
        <time>2022-05-04T12:51:37Z</time>
      </trkpt>
      <trkpt lat="44.99481" lon="3.71289">
        <ele>1180.64</ele>
        <time>2022-05-04T12:51:55Z</time>
      </trkpt>
      <trkpt lat="44.99478" lon="3.71265">
        <ele>1177.75</ele>
        <time>2022-05-04T12:52:12Z</time>
      </trkpt>
      <trkpt lat="44.99477" lon="3.71261">
        <ele>1176.31</ele>
        <time>2022-05-04T12:52:40Z</time>
      </trkpt>
      <trkpt lat="44.99476" lon="3.71257">
        <ele>1175.83</ele>
        <time>2022-05-04T12:52:43Z</time>
      </trkpt>
      <trkpt lat="44.99476" lon="3.71255">
        <ele>1175.83</ele>
        <time>2022-05-04T12:52:44Z</time>
      </trkpt>
      <trkpt lat="44.99476" lon="3.71253">
        <ele>1175.83</ele>
        <time>2022-05-04T12:52:45Z</time>
      </trkpt>
      <trkpt lat="44.99475" lon="3.71251">
        <ele>1175.83</ele>
        <time>2022-05-04T12:52:46Z</time>
      </trkpt>
      <trkpt lat="44.99468" lon="3.71229">
        <ele>1173.43</ele>
        <time>2022-05-04T12:53:02Z</time>
      </trkpt>
      <trkpt lat="44.99467" lon="3.71228">
        <ele>1173.43</ele>
        <time>2022-05-04T12:53:03Z</time>
      </trkpt>
      <trkpt lat="44.99456" lon="3.71205">
        <ele>1171.02</ele>
        <time>2022-05-04T12:53:19Z</time>
      </trkpt>
      <trkpt lat="44.99448" lon="3.71183">
        <ele>1168.62</ele>
        <time>2022-05-04T12:53:37Z</time>
      </trkpt>
      <trkpt lat="44.99441" lon="3.71148">
        <ele>1166.22</ele>
        <time>2022-05-04T12:53:58Z</time>
      </trkpt>
      <trkpt lat="44.99436" lon="3.71129">
        <ele>1164.77</ele>
        <time>2022-05-04T12:54:12Z</time>
      </trkpt>
      <trkpt lat="44.99417" lon="3.71097">
        <ele>1162.85</ele>
        <time>2022-05-04T12:54:37Z</time>
      </trkpt>
      <trkpt lat="44.99411" lon="3.71087">
        <ele>1162.37</ele>
        <time>2022-05-04T12:54:43Z</time>
      </trkpt>
      <trkpt lat="44.99392" lon="3.71058">
        <ele>1160.45</ele>
        <time>2022-05-04T12:55:03Z</time>
      </trkpt>
      <trkpt lat="44.99372" lon="3.71032">
        <ele>1159.01</ele>
        <time>2022-05-04T12:55:23Z</time>
      </trkpt>
      <trkpt lat="44.99356" lon="3.71002">
        <ele>1157.56</ele>
        <time>2022-05-04T12:55:43Z</time>
      </trkpt>
      <trkpt lat="44.99337" lon="3.70965">
        <ele>1155.64</ele>
        <time>2022-05-04T12:56:08Z</time>
      </trkpt>
      <trkpt lat="44.99322" lon="3.70933">
        <ele>1154.2</ele>
        <time>2022-05-04T12:56:30Z</time>
      </trkpt>
      <trkpt lat="44.99309" lon="3.709">
        <ele>1152.76</ele>
        <time>2022-05-04T12:56:51Z</time>
      </trkpt>
      <trkpt lat="44.99292" lon="3.70871">
        <ele>1151.32</ele>
        <time>2022-05-04T12:57:13Z</time>
      </trkpt>
      <trkpt lat="44.99271" lon="3.70843">
        <ele>1149.87</ele>
        <time>2022-05-04T12:57:37Z</time>
      </trkpt>
      <trkpt lat="44.99247" lon="3.70812">
        <ele>1147.95</ele>
        <time>2022-05-04T12:58:03Z</time>
      </trkpt>
      <trkpt lat="44.99227" lon="3.70782">
        <ele>1145.07</ele>
        <time>2022-05-04T12:58:26Z</time>
      </trkpt>
      <trkpt lat="44.99207" lon="3.70762">
        <ele>1142.66</ele>
        <time>2022-05-04T12:58:46Z</time>
      </trkpt>
      <trkpt lat="44.99185" lon="3.70742">
        <ele>1139.78</ele>
        <time>2022-05-04T12:59:08Z</time>
      </trkpt>
      <trkpt lat="44.99159" lon="3.70719">
        <ele>1136.9</ele>
        <time>2022-05-04T12:59:33Z</time>
      </trkpt>
      <trkpt lat="44.99128" lon="3.7069">
        <ele>1134.01</ele>
        <time>2022-05-04T13:00:03Z</time>
      </trkpt>
      <trkpt lat="44.99107" lon="3.70658">
        <ele>1131.61</ele>
        <time>2022-05-04T13:00:28Z</time>
      </trkpt>
      <trkpt lat="44.99096" lon="3.70623">
        <ele>1129.21</ele>
        <time>2022-05-04T13:00:51Z</time>
      </trkpt>
      <trkpt lat="44.99091" lon="3.70599">
        <ele>1126.32</ele>
        <time>2022-05-04T13:01:07Z</time>
      </trkpt>
      <trkpt lat="44.99086" lon="3.70573">
        <ele>1123.44</ele>
        <time>2022-05-04T13:01:24Z</time>
      </trkpt>
      <trkpt lat="44.99082" lon="3.7054">
        <ele>1120.07</ele>
        <time>2022-05-04T13:01:43Z</time>
      </trkpt>
      <trkpt lat="44.99078" lon="3.70507">
        <ele>1116.71</ele>
        <time>2022-05-04T13:02:02Z</time>
      </trkpt>
      <trkpt lat="44.99073" lon="3.70479">
        <ele>1114.31</ele>
        <time>2022-05-04T13:02:20Z</time>
      </trkpt>
      <trkpt lat="44.99068" lon="3.7045">
        <ele>1111.42</ele>
        <time>2022-05-04T13:02:39Z</time>
      </trkpt>
      <trkpt lat="44.9906" lon="3.7042">
        <ele>1109.5</ele>
        <time>2022-05-04T13:02:56Z</time>
      </trkpt>
      <trkpt lat="44.99047" lon="3.70383">
        <ele>1106.13</ele>
        <time>2022-05-04T13:03:21Z</time>
      </trkpt>
      <trkpt lat="44.9904" lon="3.70344">
        <ele>1103.25</ele>
        <time>2022-05-04T13:03:45Z</time>
      </trkpt>
      <trkpt lat="44.99046" lon="3.70308">
        <ele>1100.85</ele>
        <time>2022-05-04T13:04:06Z</time>
      </trkpt>
      <trkpt lat="44.99052" lon="3.70261">
        <ele>1097.96</ele>
        <time>2022-05-04T13:04:34Z</time>
      </trkpt>
      <trkpt lat="44.99044" lon="3.70232">
        <ele>1094.6</ele>
        <time>2022-05-04T13:04:54Z</time>
      </trkpt>
      <trkpt lat="44.99026" lon="3.702">
        <ele>1091.71</ele>
        <time>2022-05-04T13:05:18Z</time>
      </trkpt>
      <trkpt lat="44.99009" lon="3.70161">
        <ele>1088.83</ele>
        <time>2022-05-04T13:05:44Z</time>
      </trkpt>
      <trkpt lat="44.99003" lon="3.70147">
        <ele>1087.87</ele>
        <time>2022-05-04T13:05:56Z</time>
      </trkpt>
      <trkpt lat="44.99003" lon="3.70145">
        <ele>1087.87</ele>
        <time>2022-05-04T13:05:57Z</time>
      </trkpt>
      <trkpt lat="44.99001" lon="3.70142">
        <ele>1087.87</ele>
        <time>2022-05-04T13:05:59Z</time>
      </trkpt>
      <trkpt lat="44.99001" lon="3.70141">
        <ele>1087.87</ele>
        <time>2022-05-04T13:06:00Z</time>
      </trkpt>
      <trkpt lat="44.99" lon="3.7014">
        <ele>1087.39</ele>
        <time>2022-05-04T13:06:01Z</time>
      </trkpt>
      <trkpt lat="44.98999" lon="3.70138">
        <ele>1087.39</ele>
        <time>2022-05-04T13:06:02Z</time>
      </trkpt>
      <trkpt lat="44.98999" lon="3.70137">
        <ele>1087.39</ele>
        <time>2022-05-04T13:06:03Z</time>
      </trkpt>
      <trkpt lat="44.98986" lon="3.7011">
        <ele>1085.95</ele>
        <time>2022-05-04T13:06:22Z</time>
      </trkpt>
      <trkpt lat="44.98969" lon="3.70075">
        <ele>1083.54</ele>
        <time>2022-05-04T13:06:47Z</time>
      </trkpt>
      <trkpt lat="44.98952" lon="3.70037">
        <ele>1080.66</ele>
        <time>2022-05-04T13:07:15Z</time>
      </trkpt>
      <trkpt lat="44.98935" lon="3.69996">
        <ele>1078.74</ele>
        <time>2022-05-04T13:07:43Z</time>
      </trkpt>
      <trkpt lat="44.98913" lon="3.69968">
        <ele>1076.81</ele>
        <time>2022-05-04T13:08:08Z</time>
      </trkpt>
      <trkpt lat="44.98894" lon="3.69935">
        <ele>1074.89</ele>
        <time>2022-05-04T13:08:34Z</time>
      </trkpt>
      <trkpt lat="44.98892" lon="3.69933">
        <ele>1074.41</ele>
        <time>2022-05-04T13:08:37Z</time>
      </trkpt>
      <trkpt lat="44.9889" lon="3.69928">
        <ele>1073.93</ele>
        <time>2022-05-04T13:08:40Z</time>
      </trkpt>
      <trkpt lat="44.98877" lon="3.69908">
        <ele>1072.49</ele>
        <time>2022-05-04T13:08:58Z</time>
      </trkpt>
      <trkpt lat="44.98876" lon="3.69905">
        <ele>1072.49</ele>
        <time>2022-05-04T13:09:00Z</time>
      </trkpt>
      <trkpt lat="44.98855" lon="3.69882">
        <ele>1069.6</ele>
        <time>2022-05-04T13:09:23Z</time>
      </trkpt>
      <trkpt lat="44.98839" lon="3.69865">
        <ele>1067.2</ele>
        <time>2022-05-04T13:09:42Z</time>
      </trkpt>
      <trkpt lat="44.98838" lon="3.69864">
        <ele>1067.2</ele>
        <time>2022-05-04T13:09:43Z</time>
      </trkpt>
      <trkpt lat="44.98837" lon="3.69863">
        <ele>1067.2</ele>
        <time>2022-05-04T13:09:44Z</time>
      </trkpt>
      <trkpt lat="44.98836" lon="3.69862">
        <ele>1067.2</ele>
        <time>2022-05-04T13:09:45Z</time>
      </trkpt>
      <trkpt lat="44.98835" lon="3.69861">
        <ele>1067.2</ele>
        <time>2022-05-04T13:09:46Z</time>
      </trkpt>
      <trkpt lat="44.98834" lon="3.6986">
        <ele>1066.72</ele>
        <time>2022-05-04T13:09:47Z</time>
      </trkpt>
      <trkpt lat="44.98833" lon="3.69859">
        <ele>1066.72</ele>
        <time>2022-05-04T13:09:48Z</time>
      </trkpt>
      <trkpt lat="44.98812" lon="3.69842">
        <ele>1064.8</ele>
        <time>2022-05-04T13:10:09Z</time>
      </trkpt>
      <trkpt lat="44.98798" lon="3.69831">
        <ele>1063.36</ele>
        <time>2022-05-04T13:10:27Z</time>
      </trkpt>
      <trkpt lat="44.98795" lon="3.69829">
        <ele>1062.87</ele>
        <time>2022-05-04T13:10:31Z</time>
      </trkpt>
      <trkpt lat="44.98793" lon="3.69827">
        <ele>1062.87</ele>
        <time>2022-05-04T13:10:33Z</time>
      </trkpt>
      <trkpt lat="44.98792" lon="3.69826">
        <ele>1062.87</ele>
        <time>2022-05-04T13:10:34Z</time>
      </trkpt>
      <trkpt lat="44.98779" lon="3.69806">
        <ele>1061.43</ele>
        <time>2022-05-04T13:10:52Z</time>
      </trkpt>
      <trkpt lat="44.9878" lon="3.69775">
        <ele>1059.03</ele>
        <time>2022-05-04T13:11:11Z</time>
      </trkpt>
      <trkpt lat="44.98781" lon="3.69735">
        <ele>1056.15</ele>
        <time>2022-05-04T13:11:36Z</time>
      </trkpt>
      <trkpt lat="44.98782" lon="3.69704">
        <ele>1054.22</ele>
        <time>2022-05-04T13:11:54Z</time>
      </trkpt>
      <trkpt lat="44.98784" lon="3.69666">
        <ele>1052.3</ele>
        <time>2022-05-04T13:12:16Z</time>
      </trkpt>
      <trkpt lat="44.98785" lon="3.69631">
        <ele>1050.38</ele>
        <time>2022-05-04T13:12:36Z</time>
      </trkpt>
      <trkpt lat="44.98786" lon="3.69594">
        <ele>1048.45</ele>
        <time>2022-05-04T13:12:57Z</time>
      </trkpt>
      <trkpt lat="44.98787" lon="3.69555">
        <ele>1046.05</ele>
        <time>2022-05-04T13:13:20Z</time>
      </trkpt>
      <trkpt lat="44.98786" lon="3.69527">
        <ele>1045.09</ele>
        <time>2022-05-04T13:13:38Z</time>
      </trkpt>
      <trkpt lat="44.98778" lon="3.69491">
        <ele>1043.65</ele>
        <time>2022-05-04T13:14:00Z</time>
      </trkpt>
      <trkpt lat="44.98769" lon="3.6946">
        <ele>1041.25</ele>
        <time>2022-05-04T13:14:22Z</time>
      </trkpt>
      <trkpt lat="44.98759" lon="3.69427">
        <ele>1039.8</ele>
        <time>2022-05-04T13:14:44Z</time>
      </trkpt>
      <trkpt lat="44.98758" lon="3.69423">
        <ele>1039.32</ele>
        <time>2022-05-04T13:14:46Z</time>
      </trkpt>
      <trkpt lat="44.98758" lon="3.69422">
        <ele>1039.32</ele>
        <time>2022-05-04T13:14:47Z</time>
      </trkpt>
      <trkpt lat="44.98758" lon="3.6942">
        <ele>1039.32</ele>
        <time>2022-05-04T13:14:48Z</time>
      </trkpt>
      <trkpt lat="44.98758" lon="3.69419">
        <ele>1039.32</ele>
        <time>2022-05-04T13:14:49Z</time>
      </trkpt>
      <trkpt lat="44.98757" lon="3.69417">
        <ele>1039.32</ele>
        <time>2022-05-04T13:14:50Z</time>
      </trkpt>
      <trkpt lat="44.98757" lon="3.69415">
        <ele>1039.32</ele>
        <time>2022-05-04T13:14:51Z</time>
      </trkpt>
      <trkpt lat="44.98757" lon="3.69414">
        <ele>1038.84</ele>
        <time>2022-05-04T13:14:52Z</time>
      </trkpt>
      <trkpt lat="44.98751" lon="3.69385">
        <ele>1037.4</ele>
        <time>2022-05-04T13:15:10Z</time>
      </trkpt>
      <trkpt lat="44.98749" lon="3.69355">
        <ele>1036.44</ele>
        <time>2022-05-04T13:15:28Z</time>
      </trkpt>
      <trkpt lat="44.98742" lon="3.69341">
        <ele>1035.48</ele>
        <time>2022-05-04T13:15:39Z</time>
      </trkpt>
      <trkpt lat="44.98741" lon="3.6934">
        <ele>1035.48</ele>
        <time>2022-05-04T13:15:40Z</time>
      </trkpt>
      <trkpt lat="44.98735" lon="3.69323">
        <ele>1035</ele>
        <time>2022-05-04T13:15:55Z</time>
      </trkpt>
      <trkpt lat="44.98731" lon="3.69293">
        <ele>1033.55</ele>
        <time>2022-05-04T13:16:14Z</time>
      </trkpt>
      <trkpt lat="44.98727" lon="3.69255">
        <ele>1032.59</ele>
        <time>2022-05-04T13:16:36Z</time>
      </trkpt>
      <trkpt lat="44.98722" lon="3.69217">
        <ele>1031.15</ele>
        <time>2022-05-04T13:16:57Z</time>
      </trkpt>
      <trkpt lat="44.98722" lon="3.6917">
        <ele>1029.71</ele>
        <time>2022-05-04T13:17:24Z</time>
      </trkpt>
      <trkpt lat="44.98729" lon="3.69134">
        <ele>1029.71</ele>
        <time>2022-05-04T13:17:46Z</time>
      </trkpt>
      <trkpt lat="44.98732" lon="3.69102">
        <ele>1029.71</ele>
        <time>2022-05-04T13:18:05Z</time>
      </trkpt>
      <trkpt lat="44.98733" lon="3.69076">
        <ele>1028.75</ele>
        <time>2022-05-04T13:18:21Z</time>
      </trkpt>
      <trkpt lat="44.98733" lon="3.69073">
        <ele>1028.75</ele>
        <time>2022-05-04T13:18:23Z</time>
      </trkpt>
      <trkpt lat="44.98733" lon="3.69071">
        <ele>1028.75</ele>
        <time>2022-05-04T13:18:24Z</time>
      </trkpt>
      <trkpt lat="44.98733" lon="3.6907">
        <ele>1028.27</ele>
        <time>2022-05-04T13:18:25Z</time>
      </trkpt>
      <trkpt lat="44.98733" lon="3.69069">
        <ele>1028.27</ele>
        <time>2022-05-04T13:18:26Z</time>
      </trkpt>
      <trkpt lat="44.98734" lon="3.69067">
        <ele>1028.27</ele>
        <time>2022-05-04T13:18:27Z</time>
      </trkpt>
      <trkpt lat="44.98734" lon="3.6905">
        <ele>1027.79</ele>
        <time>2022-05-04T13:18:41Z</time>
      </trkpt>
      <trkpt lat="44.98734" lon="3.69049">
        <ele>1027.79</ele>
        <time>2022-05-04T13:18:42Z</time>
      </trkpt>
      <trkpt lat="44.98735" lon="3.69015">
        <ele>1027.79</ele>
        <time>2022-05-04T13:19:02Z</time>
      </trkpt>
      <trkpt lat="44.98734" lon="3.68981">
        <ele>1026.83</ele>
        <time>2022-05-04T13:19:22Z</time>
      </trkpt>
      <trkpt lat="44.98734" lon="3.6894">
        <ele>1025.38</ele>
        <time>2022-05-04T13:19:45Z</time>
      </trkpt>
      <trkpt lat="44.98736" lon="3.68903">
        <ele>1023.46</ele>
        <time>2022-05-04T13:20:06Z</time>
      </trkpt>
      <trkpt lat="44.98738" lon="3.68868">
        <ele>1022.02</ele>
        <time>2022-05-04T13:20:27Z</time>
      </trkpt>
      <trkpt lat="44.98737" lon="3.68835">
        <ele>1020.58</ele>
        <time>2022-05-04T13:20:46Z</time>
      </trkpt>
      <trkpt lat="44.98732" lon="3.68803">
        <ele>1019.13</ele>
        <time>2022-05-04T13:21:06Z</time>
      </trkpt>
      <trkpt lat="44.98731" lon="3.68793">
        <ele>1018.17</ele>
        <time>2022-05-04T13:21:25Z</time>
      </trkpt>
      <trkpt lat="44.98731" lon="3.6879">
        <ele>1018.17</ele>
        <time>2022-05-04T13:21:34Z</time>
      </trkpt>
      <trkpt lat="44.98732" lon="3.68786">
        <ele>1018.17</ele>
        <time>2022-05-04T13:21:37Z</time>
      </trkpt>
      <trkpt lat="44.98737" lon="3.68757">
        <ele>1016.73</ele>
        <time>2022-05-04T13:21:56Z</time>
      </trkpt>
      <trkpt lat="44.98746" lon="3.6873">
        <ele>1014.33</ele>
        <time>2022-05-04T13:22:15Z</time>
      </trkpt>
      <trkpt lat="44.98759" lon="3.6871">
        <ele>1011.44</ele>
        <time>2022-05-04T13:22:31Z</time>
      </trkpt>
      <trkpt lat="44.98776" lon="3.68691">
        <ele>1009.04</ele>
        <time>2022-05-04T13:22:49Z</time>
      </trkpt>
      <trkpt lat="44.9879" lon="3.68661">
        <ele>1006.16</ele>
        <time>2022-05-04T13:23:10Z</time>
      </trkpt>
      <trkpt lat="44.98803" lon="3.68635">
        <ele>1003.27</ele>
        <time>2022-05-04T13:23:29Z</time>
      </trkpt>
      <trkpt lat="44.98823" lon="3.68616">
        <ele>1000.87</ele>
        <time>2022-05-04T13:23:48Z</time>
      </trkpt>
      <trkpt lat="44.98841" lon="3.68602">
        <ele>997.51</ele>
        <time>2022-05-04T13:24:05Z</time>
      </trkpt>
      <trkpt lat="44.98858" lon="3.68588">
        <ele>994.62</ele>
        <time>2022-05-04T13:24:23Z</time>
      </trkpt>
      <trkpt lat="44.98868" lon="3.68578">
        <ele>991.26</ele>
        <time>2022-05-04T13:24:36Z</time>
      </trkpt>
      <trkpt lat="44.98879" lon="3.68567">
        <ele>988.37</ele>
        <time>2022-05-04T13:24:51Z</time>
      </trkpt>
      <trkpt lat="44.98889" lon="3.68557">
        <ele>985.01</ele>
        <time>2022-05-04T13:25:05Z</time>
      </trkpt>
      <trkpt lat="44.98899" lon="3.68547">
        <ele>982.12</ele>
        <time>2022-05-04T13:25:20Z</time>
      </trkpt>
      <trkpt lat="44.9891" lon="3.68539">
        <ele>979.24</ele>
        <time>2022-05-04T13:25:35Z</time>
      </trkpt>
      <trkpt lat="44.98928" lon="3.68527">
        <ele>975.88</ele>
        <time>2022-05-04T13:25:53Z</time>
      </trkpt>
      <trkpt lat="44.98942" lon="3.68527">
        <ele>972.99</ele>
        <time>2022-05-04T13:26:11Z</time>
      </trkpt>
      <trkpt lat="44.98958" lon="3.6852">
        <ele>970.59</ele>
        <time>2022-05-04T13:26:27Z</time>
      </trkpt>
      <trkpt lat="44.98971" lon="3.6851">
        <ele>967.7</ele>
        <time>2022-05-04T13:26:42Z</time>
      </trkpt>
      <trkpt lat="44.98988" lon="3.685">
        <ele>964.82</ele>
        <time>2022-05-04T13:27:00Z</time>
      </trkpt>
      <trkpt lat="44.99003" lon="3.68491">
        <ele>961.94</ele>
        <time>2022-05-04T13:27:17Z</time>
      </trkpt>
      <trkpt lat="44.99012" lon="3.68485">
        <ele>960.01</ele>
        <time>2022-05-04T13:27:28Z</time>
      </trkpt>
      <trkpt lat="44.99014" lon="3.68484">
        <ele>960.01</ele>
        <time>2022-05-04T13:27:29Z</time>
      </trkpt>
      <trkpt lat="44.99015" lon="3.68484">
        <ele>960.01</ele>
        <time>2022-05-04T13:27:30Z</time>
      </trkpt>
      <trkpt lat="44.9903" lon="3.6849">
        <ele>958.09</ele>
        <time>2022-05-04T13:27:48Z</time>
      </trkpt>
      <trkpt lat="44.99037" lon="3.68496">
        <ele>956.65</ele>
        <time>2022-05-04T13:28:12Z</time>
      </trkpt>
      <trkpt lat="44.99036" lon="3.68496">
        <ele>956.65</ele>
        <time>2022-05-04T13:28:45Z</time>
      </trkpt>
      <trkpt lat="44.99044" lon="3.68504">
        <ele>956.65</ele>
        <time>2022-05-04T13:29:30Z</time>
      </trkpt>
      <trkpt lat="44.9905" lon="3.6851">
        <ele>956.65</ele>
        <time>2022-05-04T13:29:36Z</time>
      </trkpt>
      <trkpt lat="44.99059" lon="3.68518">
        <ele>955.21</ele>
        <time>2022-05-04T13:29:44Z</time>
      </trkpt>
      <trkpt lat="44.99063" lon="3.68521">
        <ele>955.21</ele>
        <time>2022-05-04T13:29:47Z</time>
      </trkpt>
      <trkpt lat="44.99064" lon="3.68522">
        <ele>955.21</ele>
        <time>2022-05-04T13:29:48Z</time>
      </trkpt>
      <trkpt lat="44.99065" lon="3.68523">
        <ele>955.21</ele>
        <time>2022-05-04T13:29:49Z</time>
      </trkpt>
      <trkpt lat="44.99081" lon="3.68538">
        <ele>953.28</ele>
        <time>2022-05-04T13:30:08Z</time>
      </trkpt>
      <trkpt lat="44.99108" lon="3.68557">
        <ele>950.88</ele>
        <time>2022-05-04T13:30:39Z</time>
      </trkpt>
      <trkpt lat="44.99132" lon="3.6857">
        <ele>948.48</ele>
        <time>2022-05-04T13:31:05Z</time>
      </trkpt>
      <trkpt lat="44.99156" lon="3.68579">
        <ele>946.56</ele>
        <time>2022-05-04T13:31:29Z</time>
      </trkpt>
      <trkpt lat="44.99158" lon="3.68581">
        <ele>946.56</ele>
        <time>2022-05-04T13:31:31Z</time>
      </trkpt>
      <trkpt lat="44.99163" lon="3.68584">
        <ele>945.11</ele>
        <time>2022-05-04T13:32:02Z</time>
      </trkpt>
      <trkpt lat="44.99177" lon="3.68582">
        <ele>942.23</ele>
        <time>2022-05-04T13:32:22Z</time>
      </trkpt>
      <trkpt lat="44.99193" lon="3.68571">
        <ele>938.86</ele>
        <time>2022-05-04T13:32:45Z</time>
      </trkpt>
      <trkpt lat="44.99204" lon="3.68555">
        <ele>935.98</ele>
        <time>2022-05-04T13:33:04Z</time>
      </trkpt>
      <trkpt lat="44.99209" lon="3.68535">
        <ele>932.62</ele>
        <time>2022-05-04T13:33:21Z</time>
      </trkpt>
      <trkpt lat="44.99214" lon="3.68512">
        <ele>929.73</ele>
        <time>2022-05-04T13:33:38Z</time>
      </trkpt>
      <trkpt lat="44.99224" lon="3.68485">
        <ele>926.37</ele>
        <time>2022-05-04T13:34:00Z</time>
      </trkpt>
      <trkpt lat="44.99227" lon="3.68464">
        <ele>923.48</ele>
        <time>2022-05-04T13:34:19Z</time>
      </trkpt>
      <trkpt lat="44.99228" lon="3.68458">
        <ele>921.08</ele>
        <time>2022-05-04T13:34:42Z</time>
      </trkpt>
      <trkpt lat="44.99229" lon="3.68455">
        <ele>920.6</ele>
        <time>2022-05-04T13:35:08Z</time>
      </trkpt>
      <trkpt lat="44.99232" lon="3.68445">
        <ele>917.72</ele>
        <time>2022-05-04T13:35:33Z</time>
      </trkpt>
      <trkpt lat="44.99228" lon="3.68433">
        <ele>915.79</ele>
        <time>2022-05-04T13:35:59Z</time>
      </trkpt>
      <trkpt lat="44.99227" lon="3.68415">
        <ele>912.43</ele>
        <time>2022-05-04T13:36:19Z</time>
      </trkpt>
      <trkpt lat="44.99236" lon="3.68411">
        <ele>910.03</ele>
        <time>2022-05-04T13:36:39Z</time>
      </trkpt>
      <trkpt lat="44.99241" lon="3.68407">
        <ele>907.14</ele>
        <time>2022-05-04T13:37:00Z</time>
      </trkpt>
      <trkpt lat="44.99239" lon="3.68398">
        <ele>903.78</ele>
        <time>2022-05-04T13:37:20Z</time>
      </trkpt>
      <trkpt lat="44.99238" lon="3.68387">
        <ele>900.89</ele>
        <time>2022-05-04T13:37:42Z</time>
      </trkpt>
      <trkpt lat="44.99245" lon="3.68377">
        <ele>898.49</ele>
        <time>2022-05-04T13:38:04Z</time>
      </trkpt>
      <trkpt lat="44.9925" lon="3.68371">
        <ele>895.61</ele>
        <time>2022-05-04T13:38:18Z</time>
      </trkpt>
      <trkpt lat="44.9926" lon="3.68364">
        <ele>892.24</ele>
        <time>2022-05-04T13:38:35Z</time>
      </trkpt>
      <trkpt lat="44.99265" lon="3.68357">
        <ele>890.32</ele>
        <time>2022-05-04T13:39:02Z</time>
      </trkpt>
      <trkpt lat="44.99269" lon="3.68357">
        <ele>890.32</ele>
        <time>2022-05-04T13:39:38Z</time>
      </trkpt>
      <trkpt lat="44.99273" lon="3.68357">
        <ele>889.36</ele>
        <time>2022-05-04T13:39:44Z</time>
      </trkpt>
      <trkpt lat="44.99279" lon="3.68359">
        <ele>887.43</ele>
        <time>2022-05-04T13:39:54Z</time>
      </trkpt>
      <trkpt lat="44.99292" lon="3.68366">
        <ele>884.55</ele>
        <time>2022-05-04T13:40:16Z</time>
      </trkpt>
      <trkpt lat="44.99296" lon="3.68368">
        <ele>883.59</ele>
        <time>2022-05-04T13:40:22Z</time>
      </trkpt>
      <trkpt lat="44.99298" lon="3.68368">
        <ele>882.63</ele>
        <time>2022-05-04T13:40:41Z</time>
      </trkpt>
      <trkpt lat="44.99297" lon="3.68367">
        <ele>882.15</ele>
        <time>2022-05-04T13:41:05Z</time>
      </trkpt>
      <trkpt lat="44.99291" lon="3.68347">
        <ele>880.71</ele>
        <time>2022-05-04T13:41:25Z</time>
      </trkpt>
      <trkpt lat="44.99287" lon="3.68329">
        <ele>878.78</ele>
        <time>2022-05-04T13:41:47Z</time>
      </trkpt>
      <trkpt lat="44.99282" lon="3.68316">
        <ele>875.9</ele>
        <time>2022-05-04T13:42:04Z</time>
      </trkpt>
      <trkpt lat="44.99272" lon="3.68301">
        <ele>873.01</ele>
        <time>2022-05-04T13:42:24Z</time>
      </trkpt>
      <trkpt lat="44.99265" lon="3.68293">
        <ele>872.53</ele>
        <time>2022-05-04T13:42:47Z</time>
      </trkpt>
      <trkpt lat="44.99245" lon="3.68286">
        <ele>872.53</ele>
        <time>2022-05-04T13:43:12Z</time>
      </trkpt>
      <trkpt lat="44.99227" lon="3.68291">
        <ele>873.98</ele>
        <time>2022-05-04T13:43:35Z</time>
      </trkpt>
      <trkpt lat="44.9921" lon="3.68282">
        <ele>874.94</ele>
        <time>2022-05-04T13:43:53Z</time>
      </trkpt>
      <trkpt lat="44.99202" lon="3.68274">
        <ele>874.94</ele>
        <time>2022-05-04T13:44:12Z</time>
      </trkpt>
      <trkpt lat="44.99202" lon="3.68275">
        <ele>874.46</ele>
        <time>2022-05-04T13:44:34Z</time>
      </trkpt>
      <trkpt lat="44.99202" lon="3.68275">
        <ele>875.9</ele>
        <time>2022-05-04T13:45:07Z</time>
      </trkpt>
      <trkpt lat="44.99197" lon="3.6827">
        <ele>875.9</ele>
        <time>2022-05-04T13:45:31Z</time>
      </trkpt>
      <trkpt lat="44.99193" lon="3.68265">
        <ele>875.9</ele>
        <time>2022-05-04T13:45:47Z</time>
      </trkpt>
      <trkpt lat="44.99189" lon="3.68262">
        <ele>875.9</ele>
        <time>2022-05-04T13:45:52Z</time>
      </trkpt>
      <trkpt lat="44.99172" lon="3.68245">
        <ele>876.38</ele>
        <time>2022-05-04T13:46:12Z</time>
      </trkpt>
      <trkpt lat="44.99155" lon="3.6823">
        <ele>877.34</ele>
        <time>2022-05-04T13:46:31Z</time>
      </trkpt>
      <trkpt lat="44.99135" lon="3.68215">
        <ele>877.82</ele>
        <time>2022-05-04T13:46:50Z</time>
      </trkpt>
      <trkpt lat="44.99116" lon="3.68201">
        <ele>877.82</ele>
        <time>2022-05-04T13:47:08Z</time>
      </trkpt>
      <trkpt lat="44.99098" lon="3.68189">
        <ele>877.82</ele>
        <time>2022-05-04T13:47:28Z</time>
      </trkpt>
      <trkpt lat="44.99084" lon="3.68181">
        <ele>878.78</ele>
        <time>2022-05-04T13:47:45Z</time>
      </trkpt>
      <trkpt lat="44.9908" lon="3.68179">
        <ele>879.26</ele>
        <time>2022-05-04T13:48:07Z</time>
      </trkpt>
      <trkpt lat="44.99079" lon="3.68179">
        <ele>879.26</ele>
        <time>2022-05-04T13:48:47Z</time>
      </trkpt>
      <trkpt lat="44.99077" lon="3.68176">
        <ele>879.26</ele>
        <time>2022-05-04T13:49:04Z</time>
      </trkpt>
      <trkpt lat="44.99072" lon="3.6817">
        <ele>879.26</ele>
        <time>2022-05-04T13:49:27Z</time>
      </trkpt>
      <trkpt lat="44.99067" lon="3.68162">
        <ele>879.26</ele>
        <time>2022-05-04T13:49:36Z</time>
      </trkpt>
      <trkpt lat="44.99066" lon="3.68161">
        <ele>879.74</ele>
        <time>2022-05-04T13:49:37Z</time>
      </trkpt>
      <trkpt lat="44.99065" lon="3.68159">
        <ele>880.22</ele>
        <time>2022-05-04T13:49:38Z</time>
      </trkpt>
      <trkpt lat="44.99055" lon="3.68142">
        <ele>881.19</ele>
        <time>2022-05-04T13:49:54Z</time>
      </trkpt>
      <trkpt lat="44.99049" lon="3.68128">
        <ele>881.67</ele>
        <time>2022-05-04T13:50:15Z</time>
      </trkpt>
      <trkpt lat="44.99048" lon="3.68124">
        <ele>882.63</ele>
        <time>2022-05-04T13:50:38Z</time>
      </trkpt>
      <trkpt lat="44.99049" lon="3.68123">
        <ele>882.63</ele>
        <time>2022-05-04T13:51:08Z</time>
      </trkpt>
      <trkpt lat="44.99046" lon="3.68118">
        <ele>882.15</ele>
        <time>2022-05-04T13:51:19Z</time>
      </trkpt>
      <trkpt lat="44.99045" lon="3.68116">
        <ele>882.15</ele>
        <time>2022-05-04T13:51:20Z</time>
      </trkpt>
      <trkpt lat="44.99042" lon="3.68107">
        <ele>883.59</ele>
        <time>2022-05-04T13:51:28Z</time>
      </trkpt>
      <trkpt lat="44.99038" lon="3.68094">
        <ele>883.59</ele>
        <time>2022-05-04T13:51:38Z</time>
      </trkpt>
      <trkpt lat="44.9903" lon="3.68084">
        <ele>883.59</ele>
        <time>2022-05-04T13:51:52Z</time>
      </trkpt>
      <trkpt lat="44.99027" lon="3.68081">
        <ele>883.59</ele>
        <time>2022-05-04T13:51:55Z</time>
      </trkpt>
      <trkpt lat="44.99026" lon="3.6808">
        <ele>883.11</ele>
        <time>2022-05-04T13:51:56Z</time>
      </trkpt>
      <trkpt lat="44.99004" lon="3.68052">
        <ele>883.11</ele>
        <time>2022-05-04T13:52:21Z</time>
      </trkpt>
      <trkpt lat="44.9899" lon="3.68034">
        <ele>882.63</ele>
        <time>2022-05-04T13:52:40Z</time>
      </trkpt>
      <trkpt lat="44.98974" lon="3.68016">
        <ele>881.67</ele>
        <time>2022-05-04T13:53:01Z</time>
      </trkpt>
      <trkpt lat="44.9897" lon="3.68008">
        <ele>881.19</ele>
        <time>2022-05-04T13:53:09Z</time>
      </trkpt>
      <trkpt lat="44.98959" lon="3.67991">
        <ele>880.22</ele>
        <time>2022-05-04T13:53:26Z</time>
      </trkpt>
      <trkpt lat="44.9895" lon="3.6797">
        <ele>879.26</ele>
        <time>2022-05-04T13:53:47Z</time>
      </trkpt>
      <trkpt lat="44.98949" lon="3.67953">
        <ele>879.26</ele>
        <time>2022-05-04T13:54:01Z</time>
      </trkpt>
      <trkpt lat="44.9895" lon="3.67952">
        <ele>879.26</ele>
        <time>2022-05-04T13:54:02Z</time>
      </trkpt>
      <trkpt lat="44.9895" lon="3.6795">
        <ele>879.26</ele>
        <time>2022-05-04T13:54:03Z</time>
      </trkpt>
      <trkpt lat="44.9895" lon="3.67949">
        <ele>878.78</ele>
        <time>2022-05-04T13:54:04Z</time>
      </trkpt>
      <trkpt lat="44.98951" lon="3.67947">
        <ele>878.78</ele>
        <time>2022-05-04T13:54:05Z</time>
      </trkpt>
      <trkpt lat="44.98951" lon="3.67945">
        <ele>878.78</ele>
        <time>2022-05-04T13:54:06Z</time>
      </trkpt>
      <trkpt lat="44.98951" lon="3.67944">
        <ele>878.78</ele>
        <time>2022-05-04T13:54:07Z</time>
      </trkpt>
      <trkpt lat="44.98951" lon="3.67942">
        <ele>878.78</ele>
        <time>2022-05-04T13:54:08Z</time>
      </trkpt>
      <trkpt lat="44.98952" lon="3.67941">
        <ele>878.78</ele>
        <time>2022-05-04T13:54:09Z</time>
      </trkpt>
      <trkpt lat="44.98954" lon="3.67933">
        <ele>877.82</ele>
        <time>2022-05-04T13:54:16Z</time>
      </trkpt>
      <trkpt lat="44.98954" lon="3.67932">
        <ele>877.82</ele>
        <time>2022-05-04T13:54:17Z</time>
      </trkpt>
      <trkpt lat="44.98961" lon="3.67916">
        <ele>876.38</ele>
        <time>2022-05-04T13:54:34Z</time>
      </trkpt>
      <trkpt lat="44.98972" lon="3.67911">
        <ele>874.94</ele>
        <time>2022-05-04T13:54:56Z</time>
      </trkpt>
      <trkpt lat="44.98978" lon="3.679">
        <ele>874.46</ele>
        <time>2022-05-04T13:55:14Z</time>
      </trkpt>
      <trkpt lat="44.98991" lon="3.67881">
        <ele>873.01</ele>
        <time>2022-05-04T13:55:34Z</time>
      </trkpt>
      <trkpt lat="44.98997" lon="3.67875">
        <ele>872.53</ele>
        <time>2022-05-04T13:55:42Z</time>
      </trkpt>
      <trkpt lat="44.99006" lon="3.67862">
        <ele>872.53</ele>
        <time>2022-05-04T13:55:58Z</time>
      </trkpt>
      <trkpt lat="44.99012" lon="3.67856">
        <ele>871.57</ele>
        <time>2022-05-04T13:56:13Z</time>
      </trkpt>
      <trkpt lat="44.99011" lon="3.67851">
        <ele>873.01</ele>
        <time>2022-05-04T13:56:27Z</time>
      </trkpt>
      <trkpt lat="44.99013" lon="3.6785">
        <ele>873.01</ele>
        <time>2022-05-04T13:56:49Z</time>
      </trkpt>
      <trkpt lat="44.99013" lon="3.6785">
        <ele>871.57</ele>
        <time>2022-05-04T13:57:18Z</time>
      </trkpt>
      <trkpt lat="44.99013" lon="3.67849">
        <ele>871.57</ele>
        <time>2022-05-04T13:57:45Z</time>
      </trkpt>
      <trkpt lat="44.99014" lon="3.67849">
        <ele>871.57</ele>
        <time>2022-05-04T13:58:11Z</time>
      </trkpt>
      <trkpt lat="44.99014" lon="3.67849">
        <ele>871.57</ele>
        <time>2022-05-04T13:58:41Z</time>
      </trkpt>
      <trkpt lat="44.9902" lon="3.67854">
        <ele>871.57</ele>
        <time>2022-05-04T13:59:20Z</time>
      </trkpt>
      <trkpt lat="44.9902" lon="3.67851">
        <ele>871.57</ele>
        <time>2022-05-04T13:59:40Z</time>
      </trkpt>
      <trkpt lat="44.99009" lon="3.67818">
        <ele>871.57</ele>
        <time>2022-05-04T14:00:12Z</time>
      </trkpt>
      <trkpt lat="44.99006" lon="3.67806">
        <ele>871.57</ele>
        <time>2022-05-04T14:00:17Z</time>
      </trkpt>
      <trkpt lat="44.9901" lon="3.67813">
        <ele>871.57</ele>
        <time>2022-05-04T14:00:31Z</time>
      </trkpt>
      <trkpt lat="44.9901" lon="3.67814">
        <ele>871.57</ele>
        <time>2022-05-04T14:00:32Z</time>
      </trkpt>
      <trkpt lat="44.99013" lon="3.67831">
        <ele>871.57</ele>
        <time>2022-05-04T14:00:42Z</time>
      </trkpt>
      <trkpt lat="44.99012" lon="3.67844">
        <ele>871.57</ele>
        <time>2022-05-04T14:01:07Z</time>
      </trkpt>
      <trkpt lat="44.99011" lon="3.67852">
        <ele>871.57</ele>
        <time>2022-05-04T14:01:11Z</time>
      </trkpt>
      <trkpt lat="44.99021" lon="3.6786">
        <ele>871.57</ele>
        <time>2022-05-04T14:01:37Z</time>
      </trkpt>
      <trkpt lat="44.99031" lon="3.67847">
        <ele>871.57</ele>
        <time>2022-05-04T14:01:57Z</time>
      </trkpt>
      <trkpt lat="44.99032" lon="3.67842">
        <ele>871.57</ele>
        <time>2022-05-04T14:02:03Z</time>
      </trkpt>
      <trkpt lat="44.99031" lon="3.67837">
        <ele>871.57</ele>
        <time>2022-05-04T14:02:23Z</time>
      </trkpt>
      <trkpt lat="44.99037" lon="3.67835">
        <ele>871.57</ele>
        <time>2022-05-04T14:02:48Z</time>
      </trkpt>
      <trkpt lat="44.99037" lon="3.67835">
        <ele>874.94</ele>
        <time>2022-05-04T14:02:51Z</time>
      </trkpt>
      <trkpt lat="44.99037" lon="3.67835">
        <ele>874.94</ele>
        <time>2022-05-04T14:02:52Z</time>
      </trkpt>
      <trkpt lat="44.99039" lon="3.67835">
        <ele>875.42</ele>
        <time>2022-05-04T14:03:15Z</time>
      </trkpt>
      <trkpt lat="44.99039" lon="3.67835">
        <ele>875.42</ele>
        <time>2022-05-04T14:03:35Z</time>
      </trkpt>
      <trkpt lat="44.99039" lon="3.67836">
        <ele>875.42</ele>
        <time>2022-05-04T14:03:55Z</time>
      </trkpt>
      <trkpt lat="44.9903" lon="3.67836">
        <ele>875.42</ele>
        <time>2022-05-04T14:04:23Z</time>
      </trkpt>
      <trkpt lat="44.9903" lon="3.67836">
        <ele>875.42</ele>
        <time>2022-05-04T14:04:50Z</time>
      </trkpt>
      <trkpt lat="44.9903" lon="3.67837">
        <ele>875.42</ele>
        <time>2022-05-04T14:05:14Z</time>
      </trkpt>
      <trkpt lat="44.9903" lon="3.67836">
        <ele>875.42</ele>
        <time>2022-05-04T14:05:40Z</time>
      </trkpt>
      <trkpt lat="44.9903" lon="3.67834">
        <ele>875.42</ele>
        <time>2022-05-04T14:06:08Z</time>
      </trkpt>
      <trkpt lat="44.99028" lon="3.67832">
        <ele>875.42</ele>
        <time>2022-05-04T14:06:41Z</time>
      </trkpt>
      <trkpt lat="44.99026" lon="3.67834">
        <ele>875.42</ele>
        <time>2022-05-04T14:07:09Z</time>
      </trkpt>
      <trkpt lat="44.99026" lon="3.67834">
        <ele>875.42</ele>
        <time>2022-05-04T14:07:38Z</time>
      </trkpt>
    </trkseg>
  </trk>
</gpx>